[[{"header":{"parameterUnit":"m.s-1","parameterCategory":1,"la1":31.0,"la2":29.5877,"lo1":-88.7671,"lo2":-86.6584,"dy":0.0162,"dx":0.0185,"nx":115,"ny":88,"refTime":"2024-06-05T06:00:00:Z","depth":0,"parameterNumber":2,"parameterNumberName":"U-component_of_WINDS"},"data":[0.0,0.0,0.0,0.0,0.0,0.0,0.0,0.0,0.0,0.0,0.0,0.0,0.0,0.0,0.0,0.0,0.0,0.0,0.0,0.0,0.0,0.0,0.0,0.0,0.0,0.0,0.0,0.0,0.0,0.0,0.0,0.0,0.0,0.0,0.0,0.0,0.0,0.0,0.0,0.0,0.0,0.0,0.0,0.0,0.0,0.0,0.0,0.0,0.0,0.0,0.0,0.0,0.0,0.0,0.0,0.0,0.0,0.0,0.0,0.0,0.0,0.0,0.0,0.0,0.0,0.0,0.0,0.0,0.0,0.0,0.0,0.0,0.0,0.0,0.0,0.0,0.0,0.0,0.0,0.0,0.0,0.0,0.0,0.0,0.0,0.0,0.0,0.0,0.0,0.0,0.0,0.0,0.0,0.0,0.0,0.0,0.0,0.0,0.0,0.0,0.0,0.0,0.0,0.0,0.0,0.0,0.0,0.0,0.0,0.0,0.0,0.0,0.0,0.0,0.0,0.0,0.0,0.0,0.0,0.0,0.0,0.0,0.0,0.0,0.0,0.0,0.0,0.0,0.0,0.0,0.0,0.0,0.0,0.0,0.0,0.0,0.0,0.0,0.0,0.0,0.0,0.0,0.0,0.0,0.0,0.0,0.0,0.0,0.0,0.0,0.0,0.0,0.0,0.0,0.0,0.0,0.0,0.0,0.0,0.0,0.0,0.0,0.0,0.0,0.0,0.0,0.0,0.0,0.0,0.0,0.0,0.0,0.0,0.0,0.0,0.0,0.0,0.0,0.0,0.0,0.0,0.0,0.0,0.0,0.0,0.0,0.0,0.0,0.0,0.0,0.0,0.0,0.0,0.0,0.0,0.0,0.0,0.0,0.0,0.0,0.0,0.0,0.0,0.0,0.0,0.0,0.0,0.0,0.0,0.0,0.0,0.0,0.0,0.0,0.0,0.0,0.0,0.0,0.0,0.0,0.0,0.0,0.0,0.0,0.0,0.0,0.0,0.0,0.0,0.0,0.0,0.0,0.0,0.0,0.0,0.0,0.0,0.0,0.0,0.0,0.0,0.0,0.0,0.0,0.0,0.0,0.0,0.0,0.0,0.0,0.0,0.0,0.0,0.0,0.0,0.0,0.0,0.0,0.0,0.0,0.0,0.0,0.0,0.0,0.0,0.0,0.0,0.0,0.0,0.0,0.0,0.0,0.0,0.0,0.0,0.0,0.0,0.0,0.0,0.0,0.0,0.0,0.0,0.0,0.0,0.0,0.0,0.0,0.0,0.0,0.0,0.0,0.0,0.0,0.0,0.0,0.0,0.0,0.0,0.0,0.0,0.0,0.0,0.0,0.0,0.0,0.0,0.0,0.0,0.0,0.0,0.0,0.0,0.0,0.0,0.0,0.0,0.0,0.0,0.0,0.0,0.0,0.0,0.0,0.0,0.0,0.0,0.0,0.0,0.0,0.0,0.0,0.0,0.0,0.0,0.0,0.0,0.0,0.0,0.0,0.0,0.0,0.0,0.0,0.0,0.0,0.0,0.0,0.0,0.0,0.0,0.0,0.0,0.0,0.0,0.0,0.0,0.0,0.0,0.0,0.0,0.0,0.0,0.0,0.0,0.0,0.0,0.0,0.0,0.0,0.0,0.0,0.0,0.0,0.0,0.0,0.0,0.0,0.0,0.0,0.0,0.0,0.0,0.0,0.0,0.0,0.0,0.0,0.0,0.0,0.0,0.0,0.0,0.0,0.0,0.0,0.0,0.0,0.0,0.0,0.0,0.0,0.0,0.0,0.0,0.0,0.0,0.0,0.0,0.0,0.0,0.0,0.0,0.0,0.0,0.0,0.0,0.0,0.0,0.0,0.0,0.0,0.0,0.0,0.0,0.0,0.0,0.0,0.0,0.0,0.0,0.0,0.0,0.0,0.0,0.0,0.0,0.0,0.0,0.0,0.0,0.0,0.0,0.0,0.0,0.0,0.0,0.0,0.0,0.0,0.0,0.0,0.0,0.0,0.0,0.0,0.0,0.0,0.0,0.0,0.0,0.0,0.0,0.0,0.0,0.0,0.0,0.0,0.0,0.0,0.0,0.0,0.0,0.0,0.0,0.0,0.0,0.0,0.0,0.0,0.0,0.0,0.0,0.0,0.0,0.0,0.0,0.0,0.0,0.0,0.0,0.0,0.0,0.0,0.0,0.0,0.0,0.0,0.0,0.0,0.0,0.0,0.0,0.0,0.0,0.0,0.0,0.0,0.0,0.0,0.0,0.0,0.0,0.0,0.0,0.0,0.0,0.0,0.0,0.0,0.0,0.0,0.0,0.0,0.0,0.0,0.0,0.0,0.0,0.0,0.0,0.0,0.0,0.0,0.0,0.0,0.0,0.0,0.0,0.0,0.0,0.0,0.0,0.0,0.0,0.0,0.0,0.0,0.0,0.0,0.0,0.0,0.0,0.0,0.0,0.0,0.0,0.0,0.0,0.0,0.0,0.0,0.0,0.0,0.0,0.0,0.0,0.0,0.0,0.0,0.0,0.0,0.0,0.0,0.0,0.0,0.0,0.0,0.0,0.0,0.0,0.0,0.0,0.0,0.0,0.0,0.0,0.0,0.0,0.0,0.0,0.0,0.0,0.0,0.0,0.0,0.0,0.0,0.0,0.0,0.0,0.0,0.0,0.0,0.0,0.0,0.0,0.0,0.0,0.0,0.0,0.0,0.0,0.0,0.0,0.0,0.0,0.0,0.0,0.0,0.0,0.0,0.0,0.0,0.0,0.0,0.0,0.0,0.0,0.0,0.0,0.0,0.0,0.0,0.0,0.0,0.0,0.0,0.0,0.0,0.0,0.0,0.0,0.0,0.0,0.0,0.0,0.0,0.0,0.0,0.0,0.0,0.0,0.0,0.0,0.0,0.0,0.0,0.0,0.0,0.0,0.0,0.0,0.0,0.0,0.0,0.0,0.0,0.0,0.0,0.0,0.0,0.0,0.0,0.0,0.0,0.0,0.0,0.0,0.0,0.0,0.0,0.0,0.0,0.0,0.0,0.0,0.0,0.0,0.0,0.0,0.0,0.0,0.0,0.0,0.0,0.0,0.0,0.0,0.0,0.0,0.0,0.0,0.0,0.0,0.0,0.0,0.0,0.0,0.0,0.0,0.0,0.0,0.0,0.0,0.0,0.0,0.0,0.0,0.0,0.0,0.0,0.0,0.0,0.0,0.0,0.0,0.0,0.0,0.0,0.0,0.0,0.0,0.0,0.0,0.0,0.0,0.0,0.0,0.0,0.0,0.0,0.0,0.0,0.0,0.0,0.0,0.0,0.0,0.0,0.0,0.0,0.0,0.0,0.0,0.0,0.0,0.0,0.0,0.0,0.0,0.0,0.0,0.0,0.0,0.0,0.0,0.0,0.0,0.0,0.0,0.0,0.0,0.0,0.0,0.0,0.0,0.0,0.0,0.0,0.0,0.0,0.0,0.0,0.0,0.0,0.0,0.0,0.0,0.0,0.0,0.0,0.0,0.0,0.0,0.0,0.0,0.0,0.0,0.0,0.0,0.0,0.0,0.0,0.0,0.0,0.0,0.0,0.0,0.0,0.0,0.0,0.0,0.0,0.0,0.0,0.0,0.0,0.0,0.0,0.0,0.0,0.0,0.0,0.0,0.0,0.0,0.0,0.0,0.0,0.0,0.0,0.0,0.0,0.0,0.0,0.0,0.0,0.0,0.0,0.0,0.0,0.0,0.0,0.0,0.0,0.0,0.0,0.0,0.0,0.0,0.0,0.0,0.0,0.0,0.0,0.0,0.0,0.0,0.0,0.0,0.0,0.0,0.0,0.0,0.0,0.0,0.0,0.0,0.0,0.0,0.0,0.0,0.0,0.0,0.0,0.0,0.0,0.0,0.0,0.0,0.0,0.0,0.0,0.0,0.0,0.0,0.0,0.0,0.0,0.0,0.0,0.0,0.0,0.0,0.0,0.0,0.0,0.0,0.0,0.0,0.0,0.0,0.0,0.0,0.0,0.0,0.0,0.0,0.0,0.0,0.0,0.0,0.0,0.0,0.0,0.0,0.0,0.0,0.0,0.0,0.0,0.0,0.0,0.0,0.0,0.0,0.0,0.0,0.0,0.0,0.0,0.0,0.0,0.0,0.0,0.0,0.0,0.0,0.0,0.0,0.0,0.0,0.0,0.0,0.0,0.0,0.0,0.0,0.0,0.0,0.0,0.0,0.0,0.0,0.0,0.0,0.0,0.0,0.0,0.0,0.0,0.0,0.0,0.0,0.0,-2.4199,0.0,0.0,0.0,0.0,0.0,0.0,0.0,0.0,0.0,0.0,0.0,0.0,0.0,0.0,0.0,0.0,0.0,0.0,0.0,0.0,0.0,0.0,0.0,0.0,0.0,0.0,0.0,0.0,0.0,0.0,0.0,0.0,0.0,0.0,0.0,0.0,0.0,0.0,0.0,0.0,0.0,0.0,0.0,0.0,0.0,0.0,0.0,0.0,0.0,0.0,0.0,0.0,0.0,0.0,0.0,0.0,0.0,0.0,0.0,0.0,0.0,0.0,0.0,0.0,0.0,0.0,0.0,0.0,0.0,0.0,0.0,0.0,0.0,0.0,0.0,0.0,0.0,0.0,0.0,0.0,0.0,0.0,0.0,0.0,0.0,0.0,0.0,0.0,0.0,0.0,0.0,0.0,0.0,0.0,0.0,0.0,0.0,0.0,0.0,0.0,0.0,0.0,0.0,0.0,0.0,0.0,0.0,0.0,0.0,0.0,-2.4632,-2.4701,-2.4771,-2.4821,-2.486,0.0,0.0,0.0,0.0,0.0,0.0,0.0,0.0,0.0,0.0,0.0,0.0,0.0,0.0,0.0,0.0,0.0,0.0,0.0,0.0,0.0,0.0,0.0,0.0,0.0,0.0,0.0,0.0,0.0,0.0,0.0,0.0,0.0,0.0,0.0,0.0,0.0,0.0,0.0,0.0,0.0,0.0,0.0,0.0,0.0,0.0,0.0,0.0,0.0,0.0,0.0,0.0,0.0,0.0,0.0,0.0,0.0,0.0,0.0,0.0,0.0,0.0,0.0,0.0,0.0,0.0,0.0,0.0,0.0,0.0,0.0,0.0,0.0,0.0,0.0,0.0,0.0,0.0,0.0,0.0,0.0,0.0,0.0,0.0,0.0,0.0,0.0,0.0,0.0,0.0,0.0,0.0,0.0,0.0,0.0,0.0,0.0,0.0,0.0,0.0,0.0,0.0,0.0,0.0,0.0,0.0,0.0,0.0,0.0,0.0,0.0,0.0,-2.5512,-2.5492,-2.5334,0.0,0.0,0.0,0.0,0.0,0.0,0.0,0.0,0.0,0.0,0.0,0.0,0.0,0.0,0.0,0.0,0.0,0.0,0.0,0.0,0.0,0.0,0.0,0.0,0.0,0.0,0.0,0.0,0.0,0.0,0.0,0.0,0.0,0.0,0.0,0.0,0.0,0.0,0.0,0.0,0.0,0.0,0.0,0.0,0.0,0.0,0.0,0.0,0.0,0.0,0.0,0.0,0.0,0.0,0.0,0.0,0.0,0.0,0.0,0.0,0.0,0.0,0.0,0.0,0.0,0.0,0.0,0.0,0.0,0.0,0.0,0.0,0.0,0.0,0.0,0.0,0.0,0.0,0.0,0.0,0.0,0.0,0.0,0.0,0.0,0.0,0.0,0.0,0.0,0.0,0.0,0.0,0.0,0.0,0.0,0.0,0.0,0.0,0.0,0.0,0.0,0.0,0.0,0.0,0.0,0.0,0.0,0.0,0.0,0.0,-2.6148,-2.6193,-2.6267,0.0,-2.5272,0.0,0.0,0.0,0.0,0.0,0.0,0.0,0.0,0.0,0.0,0.0,0.0,0.0,0.0,0.0,0.0,0.0,0.0,0.0,0.0,0.0,0.0,0.0,0.0,0.0,0.0,0.0,0.0,0.0,0.0,0.0,0.0,0.0,0.0,0.0,0.0,0.0,0.0,0.0,0.0,0.0,0.0,0.0,0.0,0.0,0.0,0.0,0.0,0.0,0.0,0.0,0.0,0.0,0.0,0.0,0.0,0.0,0.0,0.0,0.0,0.0,0.0,0.0,0.0,0.0,0.0,0.0,0.0,0.0,0.0,0.0,0.0,0.0,0.0,0.0,0.0,0.0,0.0,0.0,0.0,0.0,0.0,0.0,0.0,0.0,0.0,0.0,0.0,0.0,0.0,0.0,0.0,0.0,0.0,0.0,0.0,0.0,0.0,0.0,0.0,0.0,0.0,0.0,0.0,0.0,0.0,0.0,0.0,0.0,0.0,0.0,-2.6952,-2.7045,-2.6727,0.0,0.0,0.0,0.0,0.0,0.0,0.0,0.0,0.0,0.0,0.0,0.0,0.0,0.0,0.0,0.0,0.0,0.0,0.0,0.0,0.0,0.0,0.0,0.0,0.0,0.0,0.0,0.0,0.0,0.0,0.0,0.0,0.0,0.0,0.0,0.0,0.0,0.0,0.0,0.0,0.0,0.0,0.0,0.0,0.0,0.0,0.0,0.0,0.0,0.0,0.0,0.0,0.0,0.0,0.0,0.0,0.0,0.0,0.0,0.0,0.0,0.0,0.0,0.0,0.0,0.0,0.0,0.0,0.0,0.0,0.0,0.0,0.0,0.0,0.0,0.0,0.0,0.0,0.0,0.0,0.0,0.0,0.0,0.0,0.0,0.0,0.0,0.0,0.0,0.0,0.0,0.0,0.0,0.0,0.0,0.0,0.0,0.0,0.0,0.0,0.0,0.0,0.0,0.0,0.0,0.0,0.0,0.0,0.0,0.0,-2.7049,0.0,-2.7681,-2.7774,-2.7458,-2.6601,0.0,0.0,0.0,0.0,0.0,0.0,0.0,0.0,0.0,0.0,0.0,0.0,0.0,0.0,0.0,0.0,0.0,0.0,0.0,0.0,0.0,0.0,0.0,0.0,0.0,0.0,0.0,0.0,0.0,0.0,0.0,0.0,0.0,0.0,0.0,0.0,0.0,0.0,0.0,0.0,0.0,0.0,0.0,0.0,0.0,0.0,0.0,0.0,0.0,0.0,0.0,0.0,0.0,0.0,0.0,0.0,0.0,0.0,0.0,0.0,0.0,0.0,0.0,0.0,0.0,0.0,0.0,0.0,0.0,0.0,0.0,0.0,0.0,0.0,0.0,0.0,0.0,0.0,0.0,0.0,0.0,0.0,0.0,0.0,0.0,0.0,0.0,0.0,0.0,0.0,0.0,0.0,0.0,0.0,0.0,0.0,0.0,0.0,0.0,0.0,0.0,0.0,0.0,0.0,0.0,0.0,0.0,0.0,0.0,-2.7763,-2.8242,-2.8375,-2.843,-2.809,0.0,0.0,0.0,0.0,0.0,0.0,0.0,0.0,0.0,0.0,0.0,0.0,0.0,0.0,0.0,0.0,0.0,0.0,0.0,0.0,0.0,0.0,0.0,0.0,0.0,0.0,0.0,0.0,0.0,0.0,0.0,0.0,0.0,0.0,0.0,0.0,0.0,0.0,0.0,0.0,0.0,0.0,0.0,0.0,0.0,0.0,0.0,0.0,0.0,0.0,0.0,0.0,0.0,0.0,0.0,0.0,0.0,0.0,0.0,0.0,0.0,0.0,0.0,0.0,0.0,0.0,0.0,0.0,0.0,0.0,0.0,0.0,0.0,0.0,0.0,0.0,0.0,0.0,0.0,0.0,0.0,0.0,0.0,0.0,0.0,0.0,0.0,0.0,0.0,0.0,0.0,0.0,0.0,0.0,0.0,0.0,0.0,0.0,0.0,0.0,0.0,0.0,0.0,0.0,0.0,0.0,0.0,0.0,0.0,-2.8197,-2.9165,-2.9701,0.0,-2.9417,-2.9062,0.0,0.0,0.0,0.0,0.0,0.0,0.0,0.0,0.0,0.0,0.0,0.0,0.0,0.0,0.0,0.0,0.0,0.0,0.0,0.0,0.0,0.0,0.0,0.0,0.0,0.0,0.0,0.0,0.0,0.0,0.0,0.0,0.0,0.0,0.0,0.0,0.0,0.0,0.0,0.0,0.0,0.0,0.0,0.0,0.0,0.0,0.0,0.0,0.0,0.0,0.0,0.0,0.0,0.0,0.0,0.0,0.0,0.0,0.0,0.0,0.0,0.0,0.0,0.0,0.0,0.0,0.0,0.0,0.0,0.0,0.0,0.0,0.0,0.0,0.0,0.0,0.0,0.0,0.0,0.0,0.0,0.0,0.0,0.0,0.0,0.0,0.0,0.0,0.0,0.0,0.0,0.0,0.0,0.0,0.0,0.0,0.0,0.0,0.0,0.0,0.0,0.0,0.0,0.0,0.0,0.0,0.0,0.0,0.0,-2.9228,0.0,-3.0469,0.0,-3.0087,-2.9751,0.0,0.0,0.0,0.0,0.0,0.0,0.0,0.0,0.0,0.0,0.0,0.0,0.0,0.0,0.0,0.0,0.0,0.0,0.0,0.0,0.0,0.0,0.0,0.0,0.0,0.0,0.0,0.0,0.0,0.0,0.0,0.0,0.0,0.0,0.0,0.0,0.0,0.0,0.0,0.0,0.0,0.0,0.0,0.0,0.0,0.0,0.0,0.0,0.0,0.0,0.0,0.0,0.0,0.0,0.0,0.0,0.0,0.0,0.0,0.0,0.0,0.0,0.0,0.0,0.0,0.0,0.0,0.0,0.0,0.0,0.0,0.0,0.0,0.0,0.0,0.0,0.0,0.0,0.0,0.0,0.0,0.0,0.0,0.0,0.0,0.0,0.0,0.0,0.0,0.0,0.0,0.0,0.0,0.0,0.0,0.0,0.0,0.0,0.0,0.0,0.0,0.0,0.0,0.0,0.0,0.0,0.0,0.0,-2.8965,-2.9986,-3.0266,-3.0451,-3.0344,-3.0455,-3.0104,0.0,0.0,0.0,0.0,0.0,0.0,0.0,0.0,0.0,0.0,0.0,0.0,0.0,0.0,0.0,0.0,0.0,0.0,0.0,0.0,0.0,0.0,0.0,0.0,0.0,0.0,0.0,0.0,0.0,0.0,0.0,0.0,0.0,0.0,0.0,0.0,0.0,0.0,0.0,0.0,0.0,0.0,0.0,0.0,0.0,0.0,0.0,0.0,0.0,0.0,0.0,0.0,0.0,0.0,0.0,0.0,0.0,0.0,0.0,0.0,0.0,0.0,0.0,0.0,0.0,0.0,0.0,0.0,0.0,0.0,0.0,0.0,0.0,0.0,0.0,0.0,0.0,0.0,0.0,0.0,0.0,0.0,0.0,0.0,0.0,0.0,0.0,0.0,0.0,0.0,0.0,0.0,0.0,0.0,0.0,0.0,0.0,0.0,0.0,0.0,0.0,0.0,0.0,0.0,0.0,0.0,0.0,0.0,0.0,-3.1446,-3.2143,-3.2492,-3.251,-3.2133,-3.1328,0.0,0.0,0.0,0.0,0.0,0.0,0.0,0.0,0.0,0.0,0.0,0.0,0.0,0.0,0.0,0.0,0.0,0.0,0.0,0.0,0.0,0.0,0.0,0.0,0.0,0.0,0.0,0.0,0.0,0.0,0.0,0.0,0.0,0.0,0.0,0.0,0.0,0.0,0.0,0.0,0.0,0.0,0.0,0.0,0.0,0.0,0.0,0.0,0.0,0.0,0.0,0.0,0.0,0.0,0.0,0.0,0.0,0.0,0.0,0.0,0.0,0.0,0.0,0.0,0.0,0.0,0.0,0.0,0.0,0.0,0.0,0.0,0.0,0.0,0.0,0.0,0.0,0.0,0.0,0.0,0.0,0.0,0.0,0.0,0.0,0.0,0.0,0.0,0.0,0.0,0.0,0.0,0.0,0.0,0.0,0.0,0.0,0.0,0.0,0.0,0.0,0.0,0.0,0.0,0.0,0.0,0.0,0.0,0.0,-3.3588,-3.3765,-3.3859,-3.3841,-3.3213,-3.2315,-3.1095,0.0,0.0,0.0,0.0,0.0,0.0,0.0,0.0,0.0,0.0,0.0,0.0,0.0,0.0,0.0,0.0,0.0,0.0,0.0,0.0,0.0,0.0,0.0,0.0,0.0,0.0,0.0,0.0,0.0,0.0,0.0,0.0,0.0,0.0,0.0,0.0,0.0,0.0,0.0,0.0,0.0,0.0,0.0,0.0,0.0,0.0,0.0,0.0,0.0,0.0,0.0,0.0,0.0,0.0,0.0,0.0,0.0,0.0,0.0,0.0,0.0,0.0,0.0,0.0,0.0,0.0,0.0,0.0,0.0,0.0,0.0,0.0,0.0,0.0,0.0,0.0,0.0,0.0,0.0,0.0,0.0,0.0,0.0,0.0,0.0,0.0,0.0,0.0,0.0,0.0,0.0,0.0,0.0,0.0,0.0,0.0,0.0,0.0,0.0,0.0,0.0,0.0,0.0,0.0,0.0,0.0,0.0,0.0,-3.6238,-3.518,-3.4627,-3.4523,-3.394,-3.3158,0.0,0.0,0.0,0.0,0.0,0.0,0.0,0.0,0.0,0.0,0.0,0.0,0.0,0.0,0.0,0.0,0.0,0.0,0.0,0.0,0.0,0.0,0.0,0.0,0.0,0.0,0.0,0.0,0.0,0.0,0.0,0.0,0.0,0.0,0.0,0.0,0.0,0.0,0.0,0.0,0.0,0.0,0.0,0.0,0.0,0.0,0.0,0.0,0.0,0.0,0.0,0.0,0.0,0.0,0.0,0.0,0.0,0.0,0.0,0.0,0.0,0.0,0.0,0.0,0.0,0.0,0.0,0.0,0.0,0.0,0.0,0.0,0.0,0.0,0.0,0.0,0.0,0.0,0.0,0.0,0.0,0.0,0.0,0.0,0.0,0.0,0.0,0.0,0.0,0.0,0.0,0.0,0.0,0.0,0.0,0.0,0.0,0.0,0.0,0.0,0.0,0.0,0.0,0.0,0.0,0.0,0.0,0.0,0.0,-3.6977,-3.7209,-3.6926,-3.6006,-3.5826,-3.4636,0.0,0.0,0.0,0.0,0.0,0.0,0.0,0.0,0.0,0.0,0.0,0.0,0.0,0.0,0.0,0.0,0.0,0.0,0.0,0.0,0.0,0.0,0.0,0.0,0.0,0.0,0.0,0.0,0.0,0.0,0.0,0.0,0.0,0.0,0.0,0.0,0.0,0.0,0.0,0.0,0.0,0.0,0.0,0.0,0.0,0.0,0.0,0.0,0.0,0.0,0.0,0.0,0.0,0.0,0.0,0.0,0.0,0.0,0.0,0.0,0.0,0.0,0.0,0.0,0.0,0.0,0.0,0.0,0.0,0.0,0.0,0.0,0.0,0.0,0.0,0.0,0.0,0.0,0.0,0.0,0.0,0.0,0.0,0.0,0.0,0.0,0.0,0.0,0.0,0.0,0.0,0.0,0.0,0.0,0.0,0.0,0.0,0.0,0.0,0.0,0.0,0.0,0.0,0.0,0.0,0.0,0.0,0.0,-3.7064,-3.8602,-3.942,-3.9382,-3.8377,-3.7165,-3.5635,0.0,0.0,0.0,0.0,0.0,0.0,0.0,0.0,0.0,0.0,0.0,0.0,0.0,0.0,0.0,0.0,0.0,0.0,0.0,0.0,0.0,0.0,0.0,0.0,0.0,0.0,0.0,0.0,0.0,0.0,0.0,0.0,0.0,0.0,0.0,0.0,0.0,0.0,0.0,0.0,0.0,0.0,0.0,0.0,0.0,0.0,0.0,0.0,0.0,0.0,0.0,0.0,0.0,0.0,0.0,0.0,0.0,0.0,0.0,0.0,0.0,0.0,0.0,0.0,0.0,0.0,0.0,0.0,0.0,0.0,0.0,0.0,0.0,0.0,0.0,0.0,0.0,0.0,0.0,0.0,0.0,0.0,0.0,0.0,0.0,0.0,0.0,0.0,0.0,0.0,0.0,0.0,0.0,0.0,0.0,0.0,0.0,0.0,0.0,0.0,0.0,0.0,0.0,0.0,0.0,0.0,0.0,0.0,-3.8285,-4.0458,-4.1412,-4.1604,-4.0963,-3.8308,-3.6437,0.0,0.0,0.0,0.0,0.0,0.0,0.0,0.0,0.0,0.0,0.0,0.0,0.0,0.0,0.0,0.0,0.0,0.0,0.0,0.0,0.0,0.0,0.0,0.0,0.0,0.0,0.0,0.0,0.0,0.0,0.0,0.0,0.0,0.0,0.0,0.0,0.0,0.0,0.0,0.0,0.0,0.0,0.0,0.0,0.0,0.0,0.0,0.0,0.0,0.0,0.0,0.0,0.0,0.0,0.0,0.0,0.0,0.0,0.0,0.0,0.0,0.0,0.0,0.0,0.0,0.0,0.0,0.0,0.0,0.0,0.0,0.0,0.0,0.0,0.0,0.0,0.0,0.0,0.0,0.0,0.0,0.0,0.0,0.0,0.0,0.0,0.0,0.0,0.0,0.0,0.0,0.0,0.0,0.0,0.0,0.0,0.0,0.0,0.0,0.0,0.0,0.0,0.0,0.0,0.0,0.0,0.0,0.0,-3.9193,-4.0468,-4.1809,-4.2277,-4.1767,-3.998,-3.8191,0.0,0.0,0.0,0.0,0.0,0.0,0.0,0.0,0.0,0.0,0.0,0.0,0.0,0.0,0.0,0.0,0.0,0.0,0.0,0.0,0.0,0.0,0.0,0.0,0.0,0.0,0.0,0.0,0.0,0.0,0.0,0.0,0.0,0.0,0.0,0.0,0.0,0.0,0.0,0.0,0.0,0.0,0.0,0.0,0.0,0.0,0.0,0.0,-2.7754,0.0,0.0,0.0,0.0,0.0,0.0,0.0,0.0,0.0,0.0,0.0,0.0,0.0,0.0,0.0,0.0,0.0,0.0,0.0,0.0,0.0,0.0,0.0,0.0,0.0,0.0,0.0,0.0,0.0,0.0,0.0,0.0,0.0,0.0,0.0,0.0,0.0,0.0,0.0,0.0,0.0,0.0,0.0,0.0,0.0,0.0,0.0,0.0,0.0,0.0,0.0,0.0,0.0,0.0,0.0,0.0,0.0,0.0,0.0,-3.9848,-4.1544,-4.2689,-4.3194,-4.3026,-4.1578,-3.9657,0.0,0.0,0.0,0.0,0.0,0.0,0.0,0.0,0.0,0.0,0.0,0.0,0.0,0.0,0.0,0.0,0.0,0.0,0.0,0.0,0.0,0.0,0.0,0.0,0.0,0.0,0.0,0.0,0.0,0.0,0.0,0.0,0.0,0.0,0.0,0.0,0.0,0.0,0.0,0.0,0.0,0.0,0.0,0.0,0.0,0.0,0.0,0.0,0.0,0.0,0.0,0.0,0.0,0.0,0.0,0.0,0.0,0.0,0.0,0.0,0.0,0.0,0.0,0.0,0.0,0.0,0.0,0.0,0.0,0.0,0.0,0.0,0.0,0.0,0.0,0.0,0.0,0.0,0.0,0.0,0.0,0.0,0.0,0.0,0.0,0.0,0.0,0.0,0.0,0.0,0.0,0.0,0.0,0.0,0.0,0.0,0.0,0.0,0.0,0.0,0.0,0.0,0.0,0.0,0.0,0.0,0.0,-3.8007,-4.0357,-4.2706,-4.3638,-4.4163,-4.4268,-4.2913,-4.0919,-3.8264,0.0,0.0,0.0,0.0,0.0,0.0,0.0,0.0,0.0,0.0,0.0,0.0,0.0,0.0,0.0,0.0,0.0,0.0,0.0,0.0,0.0,0.0,0.0,0.0,0.0,0.0,0.0,0.0,0.0,0.0,0.0,0.0,0.0,0.0,0.0,0.0,0.0,0.0,-2.5641,-2.7239,0.0,0.0,0.0,0.0,0.0,0.0,0.0,0.0,-3.0229,0.0,0.0,0.0,0.0,0.0,0.0,0.0,0.0,0.0,0.0,0.0,0.0,0.0,0.0,0.0,0.0,0.0,0.0,0.0,0.0,0.0,0.0,0.0,0.0,0.0,0.0,0.0,0.0,0.0,0.0,0.0,0.0,0.0,0.0,0.0,0.0,0.0,0.0,0.0,0.0,0.0,0.0,0.0,0.0,0.0,0.0,0.0,0.0,0.0,0.0,0.0,0.0,0.0,0.0,0.0,0.0,-3.6592,-3.8809,-4.0866,-4.2757,-4.4133,-4.466,-4.4268,-4.3465,-4.1974,-3.9755,0.0,0.0,0.0,0.0,0.0,0.0,0.0,0.0,0.0,0.0,0.0,0.0,0.0,0.0,0.0,0.0,0.0,0.0,0.0,0.0,0.0,0.0,0.0,0.0,0.0,0.0,0.0,0.0,0.0,0.0,0.0,0.0,0.0,0.0,0.0,0.0,0.0,0.0,0.0,-2.8443,-2.9222,0.0,0.0,0.0,0.0,0.0,0.0,0.0,0.0,-2.9838,0.0,0.0,0.0,0.0,0.0,0.0,0.0,0.0,0.0,0.0,0.0,0.0,0.0,0.0,0.0,0.0,0.0,0.0,0.0,0.0,0.0,0.0,0.0,0.0,0.0,0.0,0.0,0.0,0.0,0.0,0.0,0.0,0.0,0.0,0.0,0.0,0.0,0.0,0.0,0.0,0.0,0.0,0.0,0.0,0.0,0.0,0.0,0.0,0.0,0.0,0.0,0.0,0.0,0.0,0.0,-3.6829,-3.9343,-4.1376,-4.2774,-4.4253,-4.4969,-4.4854,-4.3793,-4.2407,0.0,0.0,0.0,0.0,0.0,0.0,0.0,0.0,0.0,0.0,0.0,0.0,0.0,0.0,0.0,0.0,0.0,0.0,0.0,0.0,0.0,0.0,0.0,0.0,0.0,0.0,0.0,0.0,0.0,0.0,0.0,0.0,0.0,0.0,0.0,0.0,0.0,0.0,0.0,0.0,-2.9841,-3.0809,-3.106,0.0,0.0,0.0,0.0,0.0,0.0,-3.2194,-3.1916,0.0,0.0,0.0,0.0,0.0,0.0,0.0,0.0,0.0,0.0,0.0,0.0,0.0,0.0,0.0,0.0,0.0,0.0,0.0,0.0,0.0,0.0,0.0,0.0,0.0,0.0,0.0,0.0,0.0,0.0,0.0,0.0,0.0,0.0,0.0,0.0,0.0,0.0,0.0,0.0,0.0,0.0,0.0,0.0,0.0,0.0,0.0,0.0,0.0,0.0,0.0,0.0,0.0,0.0,0.0,-3.7049,-3.9783,-4.1706,-4.274,-4.4226,-4.5113,-4.531,-4.3958,-4.2562,0.0,0.0,0.0,0.0,0.0,0.0,0.0,0.0,0.0,0.0,0.0,0.0,0.0,0.0,0.0,0.0,0.0,0.0,0.0,0.0,0.0,0.0,0.0,0.0,0.0,0.0,0.0,0.0,0.0,0.0,0.0,0.0,0.0,0.0,0.0,0.0,0.0,0.0,0.0,0.0,0.0,-3.2159,-3.2362,-3.3498,0.0,0.0,0.0,0.0,-3.4456,-3.4391,0.0,0.0,0.0,0.0,0.0,0.0,0.0,0.0,0.0,0.0,0.0,0.0,0.0,0.0,0.0,0.0,0.0,0.0,0.0,0.0,0.0,0.0,0.0,0.0,0.0,0.0,0.0,0.0,0.0,0.0,0.0,0.0,0.0,0.0,0.0,0.0,0.0,0.0,0.0,0.0,0.0,0.0,0.0,0.0,0.0,0.0,0.0,0.0,0.0,0.0,0.0,0.0,0.0,0.0,0.0,0.0,-3.777,-4.0037,-4.1637,-4.2558,-4.4121,-4.5076,-4.5186,-4.3906,-4.258,0.0,0.0,0.0,0.0,0.0,0.0,0.0,0.0,0.0,0.0,0.0,0.0,0.0,0.0,0.0,0.0,0.0,0.0,0.0,0.0,0.0,0.0,0.0,0.0,0.0,0.0,0.0,0.0,0.0,0.0,0.0,0.0,0.0,0.0,0.0,0.0,0.0,0.0,0.0,0.0,0.0,-3.2168,-3.3507,-3.4281,-3.4728,0.0,0.0,-3.4732,-3.4749,-3.4326,0.0,0.0,0.0,0.0,0.0,0.0,0.0,0.0,0.0,0.0,0.0,0.0,0.0,0.0,0.0,0.0,0.0,0.0,0.0,0.0,0.0,0.0,0.0,0.0,0.0,0.0,0.0,0.0,0.0,0.0,0.0,0.0,0.0,0.0,0.0,0.0,0.0,0.0,0.0,0.0,0.0,0.0,0.0,0.0,0.0,0.0,0.0,0.0,0.0,0.0,0.0,0.0,0.0,0.0,0.0,-3.6022,-3.7898,-4.0493,-4.2044,-4.2541,-4.4139,-4.5059,-4.5203,-4.3889,-4.2562,0.0,0.0,0.0,0.0,0.0,0.0,0.0,0.0,0.0,0.0,0.0,0.0,0.0,0.0,0.0,0.0,0.0,0.0,0.0,0.0,0.0,0.0,0.0,0.0,0.0,0.0,0.0,0.0,0.0,0.0,0.0,0.0,0.0,0.0,0.0,0.0,0.0,0.0,0.0,0.0,0.0,0.0,-3.4677,-3.5678,0.0,0.0,0.0,-3.6537,-3.6605,0.0,0.0,0.0,0.0,0.0,0.0,0.0,0.0,0.0,0.0,0.0,0.0,0.0,0.0,0.0,0.0,0.0,0.0,0.0,0.0,0.0,0.0,0.0,0.0,0.0,0.0,0.0,0.0,0.0,0.0,0.0,0.0,0.0,0.0,0.0,0.0,0.0,0.0,0.0,0.0,0.0,0.0,0.0,0.0,0.0,0.0,0.0,0.0,0.0,0.0,0.0,0.0,0.0,0.0,0.0,0.0,0.0,-3.8128,-4.0874,-4.2441,-4.2751,-4.4214,-4.5032,-4.5133,-4.3881,0.0,0.0,0.0,0.0,0.0,0.0,0.0,0.0,0.0,0.0,0.0,0.0,0.0,0.0,0.0,0.0,0.0,0.0,0.0,0.0,0.0,0.0,0.0,0.0,0.0,0.0,0.0,-2.0789,0.0,0.0,0.0,0.0,0.0,0.0,0.0,0.0,0.0,0.0,0.0,0.0,0.0,0.0,-3.5712,-3.591,-3.7163,-3.8127,0.0,0.0,-3.8518,-3.8454,-3.8411,-3.7973,0.0,0.0,0.0,0.0,0.0,0.0,0.0,0.0,0.0,0.0,0.0,0.0,0.0,0.0,0.0,0.0,0.0,0.0,0.0,0.0,0.0,0.0,0.0,0.0,0.0,0.0,0.0,0.0,0.0,0.0,0.0,0.0,0.0,0.0,0.0,0.0,0.0,0.0,0.0,0.0,0.0,0.0,0.0,0.0,0.0,0.0,0.0,0.0,0.0,0.0,0.0,0.0,0.0,0.0,0.0,-3.8739,-4.1084,-4.2625,-4.3335,-4.4433,-4.5022,-4.5015,-4.3812,-4.2562,0.0,0.0,0.0,0.0,0.0,0.0,0.0,0.0,0.0,0.0,0.0,0.0,0.0,0.0,0.0,0.0,0.0,0.0,0.0,0.0,0.0,0.0,0.0,0.0,0.0,0.0,0.0,0.0,0.0,0.0,0.0,0.0,0.0,0.0,0.0,0.0,0.0,0.0,0.0,0.0,0.0,-3.5743,-3.7159,-3.8639,-3.956,0.0,0.0,-4.034,-3.985,-3.9261,-3.8623,-3.7976,0.0,0.0,0.0,0.0,0.0,0.0,0.0,0.0,0.0,0.0,0.0,0.0,0.0,0.0,0.0,0.0,0.0,0.0,0.0,0.0,0.0,0.0,0.0,0.0,0.0,0.0,0.0,0.0,0.0,0.0,0.0,0.0,0.0,0.0,0.0,0.0,0.0,0.0,0.0,0.0,0.0,0.0,0.0,0.0,0.0,0.0,0.0,0.0,0.0,0.0,0.0,0.0,0.0,-3.6904,-3.869,-4.0987,-4.254,-4.3282,-4.433,-4.4913,-4.4978,-4.3718,-4.2406,0.0,0.0,0.0,0.0,0.0,0.0,0.0,0.0,0.0,0.0,0.0,0.0,0.0,0.0,0.0,0.0,0.0,0.0,0.0,0.0,0.0,0.0,0.0,0.0,0.0,0.0,0.0,0.0,-2.2903,-2.3773,-2.4075,0.0,0.0,0.0,0.0,0.0,0.0,0.0,0.0,0.0,0.0,-3.7858,-3.8361,-3.9605,0.0,0.0,-4.0929,-4.1122,-4.1019,-4.0949,-4.0661,-4.0062,-3.9702,0.0,0.0,0.0,0.0,0.0,0.0,0.0,0.0,0.0,0.0,0.0,0.0,0.0,0.0,0.0,0.0,0.0,0.0,0.0,0.0,0.0,0.0,0.0,0.0,0.0,0.0,0.0,0.0,0.0,0.0,0.0,0.0,0.0,0.0,0.0,0.0,0.0,0.0,0.0,0.0,0.0,0.0,0.0,0.0,0.0,0.0,0.0,0.0,0.0,0.0,0.0,0.0,-3.7227,-3.9113,-4.1107,-4.2576,-4.3519,-4.4366,-4.4858,-4.4954,-4.3623,-4.241,0.0,0.0,0.0,0.0,0.0,0.0,0.0,0.0,0.0,0.0,0.0,0.0,0.0,0.0,0.0,0.0,0.0,0.0,0.0,0.0,0.0,0.0,0.0,0.0,0.0,0.0,0.0,0.0,-2.4065,-2.518,-2.5796,0.0,0.0,0.0,0.0,0.0,0.0,0.0,0.0,0.0,0.0,-3.9242,-3.955,-4.075,-4.1655,-4.1756,-4.2248,-4.2622,-4.2601,-4.2623,-4.2416,-4.1846,0.0,0.0,0.0,0.0,0.0,0.0,0.0,0.0,0.0,0.0,0.0,0.0,0.0,0.0,0.0,0.0,0.0,0.0,0.0,0.0,0.0,0.0,0.0,0.0,0.0,0.0,0.0,0.0,0.0,0.0,-2.7349,0.0,0.0,0.0,0.0,0.0,0.0,0.0,0.0,0.0,0.0,0.0,0.0,0.0,0.0,0.0,0.0,0.0,0.0,0.0,0.0,0.0,0.0,-3.7459,-4.031,-4.1502,-4.2785,-4.4226,-4.462,-4.4892,-4.5005,-4.364,-4.2676,-4.2109,0.0,0.0,0.0,0.0,0.0,0.0,0.0,0.0,0.0,0.0,0.0,0.0,0.0,0.0,0.0,0.0,0.0,0.0,0.0,0.0,0.0,0.0,0.0,0.0,0.0,0.0,-2.4108,-2.5319,-2.6431,0.0,0.0,0.0,0.0,0.0,0.0,0.0,0.0,0.0,0.0,-3.8616,-3.9501,-4.0787,-4.2182,-4.3052,-4.3052,-4.4368,-4.5197,-4.466,-4.4145,-4.3594,0.0,0.0,0.0,0.0,0.0,0.0,0.0,0.0,0.0,0.0,0.0,0.0,0.0,0.0,0.0,0.0,0.0,0.0,0.0,0.0,0.0,0.0,0.0,0.0,0.0,0.0,0.0,-3.0661,-3.0627,0.0,0.0,0.0,0.0,0.0,0.0,0.0,0.0,0.0,0.0,0.0,-3.5623,-3.5638,0.0,0.0,0.0,0.0,0.0,0.0,0.0,0.0,0.0,0.0,0.0,0.0,-3.8607,-4.0177,-4.1642,-4.3184,-4.4838,-4.5079,-4.5365,-4.5702,-4.48,-4.3151,-4.0741,0.0,0.0,0.0,0.0,0.0,0.0,0.0,0.0,0.0,0.0,0.0,0.0,0.0,0.0,0.0,0.0,0.0,0.0,0.0,0.0,0.0,0.0,0.0,0.0,0.0,-2.5205,0.0,0.0,0.0,0.0,0.0,0.0,0.0,0.0,0.0,0.0,0.0,-3.7481,-3.8583,-4.0385,-4.1749,-4.2225,-4.3389,-4.4252,0.0,0.0,0.0,0.0,0.0,0.0,0.0,0.0,0.0,0.0,0.0,0.0,0.0,0.0,-4.0756,-3.8656,-3.8171,-3.8112,-3.7994,0.0,0.0,0.0,0.0,0.0,0.0,0.0,0.0,0.0,0.0,0.0,0.0,0.0,0.0,0.0,0.0,-3.2922,0.0,0.0,0.0,0.0,0.0,0.0,0.0,0.0,-3.6011,-3.6785,-3.7919,-3.8152,-3.8277,0.0,-3.8232,-3.7035,0.0,0.0,0.0,0.0,0.0,0.0,0.0,0.0,-3.936,-4.0783,-4.2171,-4.3626,-4.5118,-4.5585,-4.5877,-4.6077,-4.4974,-4.3065,-4.0378,-3.8122,-3.6214,0.0,0.0,0.0,0.0,0.0,0.0,0.0,0.0,0.0,0.0,0.0,0.0,0.0,0.0,0.0,0.0,0.0,0.0,0.0,0.0,0.0,0.0,0.0,-2.6947,0.0,0.0,0.0,0.0,0.0,0.0,0.0,0.0,0.0,-3.6296,-3.7947,-3.9479,-4.0311,-4.2073,-4.3324,-4.3521,0.0,0.0,0.0,0.0,0.0,0.0,0.0,-4.6223,-4.6302,-4.5813,-4.5407,-4.5407,-4.496,-4.4627,-4.4627,0.0,0.0,-4.1499,-4.1038,-4.0956,-4.0818,-4.0723,-4.0611,-4.0397,-4.0214,-4.0085,0.0,0.0,0.0,0.0,0.0,0.0,0.0,0.0,-3.5579,-3.595,0.0,-3.5568,0.0,0.0,0.0,0.0,0.0,-3.6584,0.0,0.0,-3.8292,-3.9036,-3.9898,-4.0517,-4.0913,-4.1003,-4.0364,-3.9727,-3.8979,-3.7501,0.0,0.0,0.0,0.0,0.0,0.0,-3.9715,-4.2078,-4.3152,-4.4192,-4.5269,-4.6105,-4.6401,-4.6112,-4.4268,-4.2583,-4.1053,-3.8906,-3.7359,-3.6594,-3.3891,0.0,0.0,0.0,0.0,0.0,0.0,0.0,0.0,0.0,0.0,0.0,0.0,0.0,0.0,0.0,0.0,0.0,0.0,0.0,0.0,-2.8015,0.0,0.0,0.0,0.0,0.0,0.0,0.0,0.0,0.0,0.0,-3.8657,-4.0089,-4.172,-4.2919,0.0,0.0,0.0,0.0,-4.5921,-4.5937,-4.6674,-4.7316,-4.7535,-4.7095,-4.6814,-4.6991,0.0,0.0,-4.5963,-4.5947,-4.5963,-4.5947,-4.6044,-4.5514,-4.4288,-4.38,-4.3568,-4.3452,-4.3388,-4.3317,-4.3041,-4.2818,-4.2789,-3.9076,0.0,0.0,0.0,0.0,-3.715,-3.7512,-3.7727,-3.8302,-3.865,-3.8812,-3.8278,0.0,0.0,0.0,0.0,0.0,0.0,-3.9754,-4.0432,-4.0616,-4.1113,-4.1795,-4.1996,-4.2109,-4.2129,-4.2069,-4.1639,-4.1022,-4.0683,-3.9266,-3.6868,0.0,0.0,0.0,0.0,-4.1788,-4.2883,-4.4156,-4.5423,-4.6759,-4.7007,-4.7042,-4.688,-4.5016,-4.3258,-4.1747,-4.0631,-3.8945,-3.6613,-3.4768,0.0,0.0,0.0,0.0,0.0,0.0,0.0,0.0,0.0,0.0,0.0,0.0,0.0,0.0,0.0,0.0,0.0,0.0,0.0,-2.8743,-3.0707,-3.1984,0.0,0.0,0.0,0.0,0.0,0.0,0.0,0.0,0.0,-4.2525,-4.2574,-4.2837,0.0,0.0,-4.6102,-4.6295,-4.733,-4.8071,-4.8055,0.0,0.0,0.0,-4.9002,-4.9041,-4.9226,-4.9094,-4.8945,-4.8961,-4.8945,-4.8945,-4.8928,-4.8945,-4.8796,-4.8365,-4.6591,-4.5222,-4.4935,-4.4826,-4.4685,-4.4478,-4.4318,-4.4269,-4.2292,-4.081,-3.9564,-3.9072,-3.9164,-3.9765,-4.0153,-4.0368,-4.0905,-4.1294,-4.1544,-4.0969,-4.0491,-4.0108,-3.9862,0.0,0.0,0.0,-4.1971,-4.2402,-4.2925,-4.3387,-4.3802,-4.4064,-4.4187,-4.4172,-4.3991,-4.355,-4.2922,-4.2909,-4.1741,-3.9609,0.0,0.0,-4.0686,-4.2029,-4.3169,-4.4046,-4.5128,-4.6301,-4.7364,-4.7659,-4.7619,-4.717,-4.5591,-4.4009,-4.2534,-4.1494,-3.9847,-3.7443,-3.5986,-3.4517,0.0,0.0,0.0,0.0,0.0,0.0,0.0,0.0,0.0,0.0,0.0,-2.5781,0.0,0.0,0.0,0.0,-2.9354,-3.0475,-3.1537,-3.3259,0.0,0.0,0.0,0.0,0.0,0.0,0.0,-4.2419,-4.3141,-4.3961,-4.5308,-4.539,-4.5228,-4.5212,-4.6739,-4.7858,-4.7874,0.0,-4.9229,-4.9229,-4.9352,-4.9475,-4.9599,-4.9705,-4.9826,-4.9963,-5.0048,-5.0101,-5.0066,-5.0135,-5.022,-5.022,-5.022,-5.022,-5.022,-4.873,-4.7472,-4.7292,-4.7194,-4.7028,-4.6778,-4.6643,-4.6557,-4.4914,-4.4905,-4.2964,-4.1978,-4.178,-4.2407,-4.279,-4.2965,-4.3369,-4.3777,-4.4094,-4.3502,-4.3091,-4.2817,-4.2186,0.0,-4.2863,-4.351,-4.384,-4.3901,-4.5095,-4.5664,-4.5695,-4.6296,-4.6603,-4.6573,-4.5957,-4.5341,-4.4764,-4.4468,-4.4013,-4.341,-4.2335,-4.2333,-4.3229,-4.3309,-4.4025,-4.5373,-4.6127,-4.6813,-4.7496,-4.8086,-4.8019,-4.7233,-4.6079,-4.4803,-4.3327,-4.1836,-4.0353,-3.8836,-3.7404,-3.588,-3.4241,0.0,0.0,0.0,0.0,0.0,0.0,0.0,0.0,0.0,0.0,0.0,0.0,0.0,0.0,0.0,-3.2123,0.0,-3.4269,-3.5723,0.0,0.0,0.0,-3.9488,-4.1442,-4.1613,-4.2367,-4.4445,0.0,0.0,-4.7249,0.0,-4.8384,-4.7592,-4.8619,-4.9401,-4.9401,-4.9624,-4.9763,-4.9861,-4.9812,-4.978,-4.9946,-4.9965,-4.9962,-4.9979,-4.9953,-5.0159,-5.021,-5.0314,-5.0385,-5.0469,-5.0386,-5.0436,-5.0402,-5.0369,-5.0317,-5.008,-4.9895,-4.9692,-4.923,-4.9075,-4.8988,-4.6785,-4.5984,-4.6044,-4.5359,-4.4283,-4.4981,-4.5155,-4.4943,-4.5394,-4.5582,-4.549,-4.5378,-4.512,-4.488,-4.471,-4.4741,-4.4895,-4.5572,-4.588,-4.5895,-4.6203,-4.6357,-4.6357,-4.6526,-4.6603,-4.6588,-4.6434,-4.628,-4.6166,-4.6175,-4.6252,-4.6233,-4.6296,-4.556,-4.4044,-4.4509,-4.5235,-4.6127,-4.6963,-4.7768,-4.8438,-4.8417,-4.8019,-4.7233,-4.6622,-4.5596,-4.4104,-4.3055,-4.1776,-4.0264,-3.8666,-3.709,-3.5613,-3.4616,0.0,0.0,0.0,0.0,0.0,0.0,0.0,0.0,0.0,-2.9474,-3.0351,0.0,-3.2261,0.0,-3.4664,-3.6287,-3.647,-3.8242,0.0,0.0,-4.1072,-4.2149,-4.3711,-4.4376,-4.5322,-4.6959,-4.7605,-4.8278,-4.9148,-4.9801,-5.0124,-4.9889,-5.017,-5.0347,-5.0363,-5.0926,-5.1306,-5.1274,-5.1257,-5.1343,-5.1402,-5.1503,-5.1418,-5.1306,-5.1451,-5.1575,-5.1575,-5.1754,-5.1877,-5.186,-5.1877,-5.1877,-5.1827,-5.186,-5.1843,-5.1742,-5.0808,-4.9842,-4.9599,-4.9529,-4.9545,-4.8717,-4.8318,-4.8661,-4.8336,-4.752,-4.7301,-4.7153,-4.7096,-4.758,-4.7759,-4.7737,-4.7337,-4.6772,-4.6049,-4.6034,-4.6034,-4.6095,-4.6726,-4.705,-4.705,-4.7357,-4.7496,-4.7496,-4.7496,-4.7496,-4.7496,-4.7496,-4.7398,-4.7241,-4.7424,-4.7465,-4.7402,-4.7824,-4.7368,-4.6189,-4.667,-4.7265,-4.7814,-4.8316,-4.8642,-4.8786,-4.8765,-4.8396,-4.7629,-4.7124,-4.6138,-4.4654,-4.3829,-4.2543,-4.0703,-3.9706,-3.8508,-3.6979,-3.6111,-3.5263,0.0,0.0,0.0,0.0,0.0,0.0,0.0,0.0,0.0,0.0,0.0,-3.5308,-3.5809,-3.7536,-3.8738,-3.9037,-4.0426,-4.174,-4.2767,-4.3529,-4.4539,-4.5997,-4.6744,-4.7556,-4.8695,-4.9335,-4.9789,-5.0199,-5.0873,-5.1333,-5.1333,-5.1421,-5.1441,-5.1366,-5.1783,-5.2069,-5.2086,-5.2086,-5.205,-5.2102,-5.203,-5.1941,-5.1831,-5.1977,-5.2102,-5.2102,-5.2266,-5.2409,-5.2409,-5.2409,-5.2409,-5.2409,-5.2445,-5.2464,-5.2364,-5.1833,-5.1163,-5.0796,-5.0709,-5.0689,-5.0555,-5.0915,-5.0875,-5.0842,-5.0761,-4.9504,-4.8975,-4.9041,-4.9494,-4.9822,-4.9951,-4.9209,-4.8235,-4.7127,-4.7034,-4.6988,-4.7019,-4.7511,-4.7727,-4.7773,-4.8343,-4.8604,-4.8604,-4.8604,-4.8604,-4.8604,-4.8604,-4.845,-4.8168,-4.8337,-4.8255,-4.7947,-4.8282,-4.8621,-4.886,-4.9248,-4.9548,-4.9688,-4.9676,-4.9433,-4.9001,-4.9097,-4.8859,-4.8129,-4.7539,-4.6538,-4.519,-4.4319,-4.297,-4.105,-4.0787,-3.9997,-3.8472,-3.7567,-3.6986,0.0,-3.6044,0.0,0.0,0.0,0.0,0.0,0.0,0.0,0.0,-3.6651,-3.8437,-3.9681,-4.0514,-4.1177,-4.1773,-4.2585,-4.3628,-4.4953,-4.5765,-4.6758,-4.8117,-4.8778,-4.9369,-4.9996,-5.0646,-5.1067,-5.1152,-5.1869,-5.2455,-5.2544,-5.2721,-5.2691,-5.2415,-5.2368,-5.2373,-5.2409,-5.2409,-5.2302,-5.2139,-5.1941,-5.1868,-5.1831,-5.2109,-5.2218,-5.2267,-5.2511,-5.2724,-5.2741,-5.2826,-5.2793,-5.2727,-5.2886,-5.2957,-5.3007,-5.2998,-5.2779,-5.2291,-5.2098,-5.2158,-5.1859,-5.1505,-5.1892,-5.221,-5.2334,-5.1735,-5.0815,-4.974,-5.023,-5.0335,-5.0245,-5.0276,-5.0159,-4.9882,-4.9343,-4.9112,-4.9081,-4.8635,-4.8419,-4.8435,-4.8558,-4.8604,-4.8604,-4.8604,-4.8604,-4.8604,-4.8604,-4.8656,-4.881,-4.9038,-4.9226,-4.9458,-4.9903,-5.0326,-5.0704,0.0,0.0,0.0,-4.999,-4.9845,-4.9849,-4.9413,-4.8842,-4.8112,-4.751,0.0,-4.589,-4.4511,-4.3554,-4.3085,-4.2262,0.0,0.0,0.0,0.0,0.0,0.0,0.0,0.0,0.0,0.0,0.0,-3.9418,-3.9196,-3.7794,-3.9472,-4.1,-4.1868,-4.3127,-4.3926,-4.4059,-4.5284,-4.6427,-4.7272,-4.8034,-4.8845,-4.9707,-5.0385,-5.0881,-5.103,-5.212,-5.295,-5.3128,-5.3831,-5.43,-5.4395,-5.4587,-5.4319,-5.3699,-5.2933,-5.2442,-5.2409,-5.2409,-5.2318,-5.2139,-5.2066,-5.1993,-5.1917,-5.2487,-5.293,-5.2979,-5.3605,-5.4116,-5.4246,-5.4316,-5.4356,-5.4517,-5.4623,-5.4558,-5.4625,-5.4176,-5.3571,-5.2898,-5.2746,-5.2746,-5.2974,0.0,-5.3042,-5.3238,0.0,-5.3076,-5.2332,-5.1448,-5.1409,-5.1241,-5.0999,-5.1146,-5.1021,-5.0682,-5.0328,-5.0189,-5.0159,-4.9466,-4.9127,-4.9127,-4.8773,-4.8604,-4.8604,-4.8604,-4.8604,-4.8604,-4.8718,-4.8924,-4.9144,-4.9372,-4.9677,-5.0089,-5.055,-5.0896,-5.1221,-5.1871,-5.1812,-5.1111,-5.1027,-5.0718,-5.0118,-4.9822,-4.928,-4.8582,0.0,0.0,0.0,0.0,0.0,0.0,0.0,0.0,0.0,0.0,0.0,-4.0114,-3.9947,-3.9893,-3.991,-4.0519,-4.0878,-4.0895,-4.222,-4.2597,-4.1571,-4.246,-4.3495,-4.4572,-4.5367,-4.6096,-4.6825,-4.7554,-4.8282,-4.9028,-4.974,-5.0503,-5.1337,-5.2086,-5.2651,-5.314,-5.3789,-5.4292,-5.4384,-5.4684,-5.4971,-5.506,-5.5096,-5.4979,-5.4561,-5.3766,-5.3073,-5.2582,-5.2445,-5.2373,-5.2283,-5.2247,-5.2343,-5.2567,-5.2966,-5.344,-5.3881,-5.4319,-5.4712,-5.4915,-5.4951,-5.4988,-5.5113,-5.524,-5.54,-5.5385,-5.5273,-5.4871,-5.416,-5.3516,-5.3007,-5.4023,-5.4413,-5.4214,-5.4271,-5.449,-5.4059,-5.3607,-5.3083,0.0,0.0,0.0,-5.1882,-5.1575,-5.1067,-5.0928,-5.0882,-5.082,-5.0174,-4.9805,-4.9651,-4.9081,-4.8743,-4.8604,-4.8604,-4.8604,-4.862,-4.8841,-4.9118,-4.9316,-4.9517,-4.9876,-5.034,-5.0781,-5.1086,-5.1408,-5.22,-5.2447,-5.2016,-5.2085,-5.156,-5.0338,-5.0152,-4.9746,-4.9004,-4.823,-4.7554,-4.69,-4.6022,-4.4976,-4.3804,-4.3607,-4.3265,-4.2652,-4.2422,-4.2299,-4.2282,-4.2147,-4.209,-4.209,-4.2771,-4.3302,-4.3551,-4.4663,-4.5263,-4.5133,-4.5202,-4.5831,-4.7173,-4.7437,-4.8049,-4.9194,-4.9476,-4.9891,-5.0605,-5.1335,-5.2154,-5.3027,-5.3594,-5.4197,-5.4943,-5.5183,-5.537,-5.5389,-5.5593,-5.5662,-5.5715,-5.5888,-5.5631,-5.5394,-5.4617,-5.367,-5.3061,-5.2684,-5.2445,-5.2445,-5.2426,-5.2691,-5.3271,-5.3536,-5.3991,-5.4789,-5.5142,-5.5319,-5.5671,-5.5607,-5.5693,-5.5732,-5.6085,-5.6177,-5.6177,-5.6319,-5.6303,-5.5603,-5.4482,-5.3585,-5.4788,-5.5078,-5.5275,-5.5495,-5.5732,-5.5277,-5.4524,-5.353,-5.2658,-5.2396,-5.2575,-5.256,-5.2529,-5.2406,-5.1821,-5.1559,-5.1513,-5.0867,-5.0236,0.0,-4.9574,-4.9204,-4.862,-4.8604,-4.8604,-4.862,-4.8857,-4.9103,-4.9316,-4.9677,-5.0089,-5.055,-5.0956,-5.1408,-5.1977,-5.2553,-5.2818,-5.2736,-5.2438,-5.1878,-5.1065,-5.0422,-4.9683,-4.8849,-4.8077,-4.753,-4.7306,-4.6572,-4.6089,-4.5888,-4.5671,-4.5527,-4.541,-4.4827,-4.4527,-4.4543,-4.4599,-4.4671,-4.4658,-4.5343,-4.6313,-4.75,-4.7835,-4.7575,-4.6707,-4.7173,-4.7901,-4.873,-4.941,-4.9976,-5.0259,-5.096,-5.1679,-5.2415,-5.3168,-5.3922,-5.4661,-5.4862,-5.5013,-5.5269,-5.583,-5.6398,-5.6592,-5.7175,-5.7658,-5.7902,-5.7644,-5.7716,-5.6844,-5.5289,-5.4077,-5.3722,-5.3078,-5.2655,-5.2653,-5.2497,-5.2845,-5.3518,-5.4203,-5.4859,-5.5897,-5.6452,-5.6882,-5.7381,-5.7352,-5.7495,-5.7816,-5.806,-5.7959,-5.789,-5.7619,-5.7227,-5.7004,-5.591,-5.4832,-5.5194,-5.5431,-5.5731,-5.5979,-5.6179,-5.5704,-5.5004,-5.4191,-5.3407,-5.2901,-5.2729,-5.2713,-5.2713,-5.2683,-5.239,-5.2252,-5.2221,-5.1544,-5.1067,-5.0743,-5.002,-4.9512,-4.9174,-4.8789,-4.8676,-4.88,-4.9047,-4.9235,-4.9477,-4.9876,-5.0262,-5.0628,-5.1221,-5.1778,-5.223,-5.257,-5.2729,-5.2729,-5.2757,-5.2454,-5.1696,-5.0872,-5.0034,-4.9248,-4.8493,-4.7891,-4.7412,-4.7018,-4.6572,-4.6138,-4.6077,-4.6046,-4.6029,-4.5821,-4.5698,-4.5714,-4.5741,-4.5818,-4.5818,-4.6873,-4.8147,-4.9537,-4.9705,-4.969,-4.9576,-4.9476,-4.9759,-5.0493,-5.0927,-5.1478,-5.2247,-5.2735,-5.3288,-5.4008,-5.45,-5.5093,-5.584,-5.6132,-5.6391,-5.6887,-5.7315,-5.7625,-5.7713,-5.8074,-5.8367,-5.849,-5.849,-5.8372,-5.8047,-5.6812,-5.5598,-5.5016,-5.4364,-5.3818,-5.3432,-5.333,-5.3611,-5.4317,-5.4701,-5.5565,-5.676,-5.7456,-5.7758,-5.8116,-5.8224,-5.8295,-5.849,-5.8649,-5.8754,-5.8754,-5.8754,-5.8443,-5.7976,-5.6817,-5.5509,-5.5431,-5.5731,-5.5979,-5.6225,-5.6473,-5.6129,-5.5561,-5.4852,-5.4191,-5.353,-5.2975,-5.279,-5.2713,-5.2713,-5.2713,-5.2713,-5.2637,-5.2175,-5.1852,-5.1605,-5.0636,-4.9974,-4.9651,-4.9138,-4.8955,-4.9011,-4.925,-4.9493,-4.9717,-5.0144,-5.0534,-5.088,-5.1466,-5.1997,-5.2409,-5.2535,-5.2605,-5.264,-5.292,-5.274,-5.2034,-5.133,-5.0576,-4.9791,-4.9055,-4.8403,-4.7822,-4.7543,-4.7113,-4.6562,-4.6545,-4.6593,-4.6624,-4.6762,-4.6884,-4.6915,-4.7096,-4.7325,-4.7575,-4.8584,-4.9813,-5.1058,-5.1193,-5.1496,-5.2152,-5.195,-5.185,-5.2286,-5.242,-5.3025,-5.4137,-5.4474,-5.4811,-5.5535,-5.5742,-5.6224,-5.7026,-5.7322,-5.772,-5.8441,-5.8631,-5.8632,-5.8701,-5.8736,-5.8771,-5.8806,-5.8736,-5.8736,-5.8632,-5.8135,-5.738,-5.6572,-5.5778,-5.5041,-5.4451,-5.4332,-5.4651,-5.5322,-5.5545,-5.6366,-5.7512,-5.8027,-5.8188,-5.8525,-5.8631,-5.8701,-5.8736,-5.8961,-5.9132,-5.9166,-5.93,-5.9207,-5.8181,-5.726,-5.5998,-5.5731,-5.5979,-5.6274,-5.6519,-5.6761,-5.6669,-5.6223,-5.553,-5.4914,-5.4206,-5.356,-5.2975,-5.2713,-5.2713,-5.2713,-5.2713,-5.2713,-5.2652,-5.2298,-5.1759,-5.159,-5.0867,-4.9862,-4.9831,-4.9558,-4.913,-4.9372,-4.9693,-4.9892,-5.0324,-5.0956,-5.1594,-5.1778,-5.2013,-5.2373,-5.2535,-5.2605,-5.2605,-5.264,-5.2379,-5.1866,-5.1731,-5.1262,-5.0359,-4.9626,-4.916,-4.8912,-4.8282,-4.7966,-4.7995,-4.8028,-4.8092,-4.8266,-4.8457,-4.863,-4.8771,-4.9517,-5.0382,-5.1168,-5.1421,-5.1816,-5.2569,-5.2706,-5.3012,-5.3712,-5.4308,-5.4465,-5.4261,-5.426,-5.4736,-5.5671,-5.5962,-5.632,-5.6984,-5.7156,-5.7498,-5.8148,-5.8459,-5.8564,-5.865,-5.8995,-5.92,-5.9217,-5.9285,-5.9437,-5.937,-5.937,-5.9336,-5.9183,-5.8978,-5.8703,-5.8152,-5.6983,-5.5836,-5.5563,-5.5405,-5.5675,-5.6442,-5.6789,-5.7304,-5.8077,-5.8438,-5.8544,-5.8892,-5.8961,-5.9081,-5.9336,-5.9537,-5.9486,-5.9486,-5.9466,-5.9186,-5.788,-5.7286,-5.6547,-5.5979,-5.6274,-5.6519,-5.6713,-5.681,-5.681,-5.6409,-5.5653,-5.5022,-5.4299,-5.3683,-5.3006,-5.2713,-5.2713,-5.2713,-5.2713,-5.2713,-5.2713,-5.2575,-5.2267,-5.1913,-5.1405,-5.091,-5.0232,-4.989,-4.976,-4.964,-4.9757,-5.0168,-5.0689,-5.1258,-5.1741,-5.1904,-5.2122,-5.2373,-5.2445,-5.2464,-5.248,-5.248,-5.2385,-5.2156,-5.1723,-5.1339,-5.0905,-5.0206,-4.9808,-4.9723,-4.9526,-4.926,-4.8943,-4.9473,-4.9718,-4.9472,-5.0035,-5.0478,-5.0669,-5.1017,-5.1592,-5.2406,-5.2457,-5.2797,-5.3612,-5.4091,-5.455,-5.4922,-5.5644,-5.6212,-5.6472,-5.5996,-5.5945,-5.673,-5.697,-5.7364,-5.805,-5.8359,-5.8651,-5.8909,-5.9149,-5.9234,-5.9234,-5.9386,-5.9453,-5.9504,-5.9554,-5.9621,-5.9621,-5.9621,-5.9588,-5.947,-5.9403,-5.9352,-5.9148,-5.829,-5.7449,-5.6848,-5.6641,-5.6794,-5.7051,-5.7223,-5.7601,-5.8496,-5.8771,-5.8927,-5.9285,-5.9319,-5.9386,-5.9521,-5.9685,-5.9716,-5.9733,-5.9761,-5.9409,-5.7936,-5.759,-5.6864,-5.6264,-5.6421,-5.6649,-5.681,-5.681,-5.681,-5.6517,-5.5899,-5.5099,-5.4406,-5.3929,-5.3098,-5.2713,-5.2713,-5.2713,-5.2713,-5.2713,-5.2713,-5.2713,-5.2652,-5.2206,-5.1911,-5.1678,-5.1029,-5.0569,-5.0372,-5.0187,-5.0216,-5.0527,-5.0994,-5.1445,-5.1794,-5.1977,-5.2194,-5.2373,-5.2409,-5.2409,-5.2409,-5.2409,-5.2409,-5.2326,-5.1879,-5.1597,-5.1564,-5.0866,-5.0502,-5.0571,-5.0458,-5.0226,-4.9857,-5.0638,-5.0916,-5.0631,-5.1216,-5.1765,-5.2172,-5.2331,-5.2705,-5.3413,-5.3481,-5.3854,-5.4655,-5.5307,-5.5751,-5.6107,-5.6779,-5.7502,-5.8018,-5.7581,-5.75,-5.7878,-5.8084,-5.8393,-5.8909,-5.9234,-5.9403,-5.9386,-5.9586,-5.9735,-5.9735,-5.9833,-5.9866,-5.9866,-5.9884,-5.9866,-5.9833,-5.9801,-5.9702,-5.9652,-5.9652,-5.9619,-5.9603,-5.9301,-5.8788,-5.8033,-5.7826,-5.7861,-5.7895,-5.7981,-5.8376,-5.9046,-5.9132,-5.9217,-5.9535,-5.9619,-5.9685,-5.9801,-5.9864,-5.9861,-5.9911,-5.9923,-5.9654,-5.8447,-5.807,-5.7202,-5.6675,-5.6452,-5.6713,-5.681,-5.681,-5.681,-5.6794,-5.6594,-5.533,-5.4668,-5.4422,-5.3329,-5.2729,-5.2713,-5.2713,-5.2713,-5.2713,-5.2713,-5.2713,-5.2713,-5.2652,-5.2431,-5.2017,-5.2156,-5.1715,-5.09,-5.0983,-5.1024,-5.0906,-5.1275,-5.1573,-5.1815,-5.203,-5.2211,-5.2373,-5.2409,-5.2409,-5.2409,-5.2409,-5.2409,-5.2409,-5.2359,-5.231,-5.2243,-5.1647,-5.1318,-5.1356,-5.0792,-5.0627,-5.11,-5.1234,-5.141,-5.1677,-5.1808,-5.2372,-5.3201,-5.3615,-5.4079,-5.4704,-5.483,-5.5191,-5.5918,-5.6213,-5.6523,-5.7248,-5.7947,-5.8418,-5.8455,-5.9012,-5.9311,-5.938,-5.9328,-5.9398,-5.9535,-5.957,-5.9636,-5.9621,-5.9914,-6.0057,-6.0089,-6.0297,-6.0423,-6.0485,-6.0441,-6.0333,-6.0269,-6.0188,-6.001,-5.9864,-5.9814,-5.9766,-5.9669,-5.957,-5.9402,-5.9029,-5.8771,-5.8806,-5.8823,-5.8941,-5.9382,-5.9485,-5.9603,-5.9668,-5.9716,-5.9781,-5.9896,-6.0043,-6.0075,-6.0057,-6.0057,-6.0057,-5.9615,-5.8825,-5.8228,-5.739,-5.7018,-5.6664,-5.6761,-5.681,-5.681,-5.681,-5.681,-5.6717,-5.5776,-5.5099,-5.4575,-5.3699,-5.3129,-5.2713,-5.2713,-5.2713,-5.2713,-5.2713,-5.2713,-5.2713,-5.2848,-5.2843,-5.2728,-5.2641,-5.2502,-5.2171,-5.1604,-5.1222,-5.1151,-5.1499,-5.1794,-5.1993,-5.2211,-5.2338,-5.2373,-5.2409,-5.2409,-5.2409,-5.2409,-5.2409,-5.2409,-5.2409,-5.2445,-5.2483,-5.2285,-5.2171,-5.2189,-5.2251,-5.2202,-5.1911,-5.258,-5.2938,-5.2908,-5.347,-5.3987,-5.4387,-5.4561,-5.4713,-5.5022,-5.5584,-5.6043,-5.6449,-5.7517,-5.8189,-5.8668,-5.9319,-5.9794,-5.9847,-6.0023,-6.0234,-6.0202,-6.0043,-5.9928,-6.004,-6.0153,-6.0202,-6.0266,-6.036,-6.0423,-6.0454,-6.0547,-6.0596,-6.0609,-6.0547,-6.0503,-6.0427,-6.0333,-6.0202,-6.0057,-5.9975,-5.9961,-5.9914,-5.9799,-5.9683,-5.9584,-5.9418,-5.9369,-5.9386,-5.9469,-5.9584,-5.9668,-5.9733,-5.9781,-5.9879,-5.9943,-5.9975,-6.0107,-6.0089,-6.0089,-6.0089,-6.0089,-5.9826,-5.9159,-5.8527,-5.7684,-5.703,-5.6807,-5.681,-5.681,-5.681,-5.681,-5.681,-5.6717,-5.6007,-5.533,-5.4637,-5.3976,-5.3345,-5.279,-5.2713,-5.2713,-5.2713,-5.2713,-5.2758,-5.2848,-5.3026,-5.3219,-5.3346,-5.3212,-5.3149,-5.3073,-5.2109,-5.1653,-5.1745,-5.1872,-5.1941,-5.2102,-5.2318,-5.2409,-5.2409,-5.2409,-5.2409,-5.2409,-5.2409,-5.2409,-5.2409,-5.2445,-5.2516,-5.2589,-5.2764,-5.2868,-5.2868,-5.323,-5.328,-5.3088,-5.3739,-5.408,-5.4012,-5.4652,-5.5113,-5.5144,-5.5204,-5.5387,-5.5692,-5.6255,-5.6884,-5.7467,-5.854,-5.9372,-5.9747,-6.026,-6.0574,-6.0627,-6.0627,-6.0609,-6.0622,-6.045,-6.0356,-6.0388,-6.0499,-6.0627,-6.0627,-6.0622,-6.0701,-6.078,-6.078,-6.0762,-6.0732,-6.0701,-6.064,-6.0565,-6.0472,-6.0315,-6.0234,-6.0121,-6.0089,-6.0089,-5.9993,-5.9911,-5.9846,-5.9766,-5.9668,-5.9668,-5.9718,-5.9799,-5.9831,-5.9879,-5.9911,-6.0057,-6.0089,-6.0089,-6.0089,-6.0089,-6.0089,-6.0121,-6.0072,-5.9931,-5.9352,-5.8808,-5.807,-5.6825,-5.681,-5.681,-5.681,-5.681,-5.681,-5.681,-5.6686,-5.6053,-5.5422,-5.4652,-5.4006,-5.3437,-5.2821,-5.2713,-5.2713,-5.2758,-5.2758,-5.2848,-5.3071,-5.316,-5.3512,-5.4001,-5.4024,-5.3867,-5.3645,-5.272,-5.2481,-5.2761,-5.2322,-5.2102,-5.2139,-5.2318,-5.2409,-5.2409,-5.2409,-5.2409,-5.2409,-5.2409,-5.2409,-5.2409,-5.2535,-5.2624,-5.2694,-5.311,-5.3366,-5.3399,-5.3433,-5.3666,-5.4074,-5.4333,-5.4652,-5.4844,-5.5139,-5.5306,-5.5478,-5.5625,-5.617,-5.6887,-5.7146,-5.7942,-5.8874,-5.9388,-5.9843,-6.0405,-6.0587,-6.064,-6.0688,-6.0671,-6.0701,-6.0788,-6.077,-6.0727,-6.064,-6.0658,-6.0688,-6.0671,-6.0727,-6.0878,-6.1034,-6.1034,-6.1093,-6.1046,-6.0926,-6.0788,-6.0727,-6.0561,-6.0409,-6.0346,-6.0252,-6.0121,-6.0089,-6.0057,-6.0008,-6.004,-6.0089,-5.9943,-5.9879,-5.9961,-6.0025,-5.9993,-6.0008,-6.0008,-6.0089,-6.0171,-6.0171,-6.0202,-6.0202,-6.0216,-6.0216,-6.0135,-6.0118,-5.9766,-5.9274,-5.865,-5.681,-5.681,-5.681,-5.681,-5.681,-5.681,-5.681,-5.6794,-5.6548,-5.5792,-5.4791,-5.4468,-5.3791,-5.2914,-5.2713,-5.2803,-5.2982,-5.2997,-5.3026,-5.316,-5.3584,-5.3888,-5.413,-5.4444,-5.4413,-5.414,-5.3652,-5.3264,-5.2996,-5.2465,-5.2175,-5.2318,-5.239,-5.2409,-5.2409,-5.2409,-5.2409,-5.2409,-5.2516,-5.2535,-5.257,-5.2694,-5.2903,-5.3128,-5.3332,-5.3567,-5.3931,-5.3963,-5.4093,-5.4416,-5.4623,-5.4855,-5.5126,-5.5396,-5.5543,-5.5689,-5.6294,-5.6745,-5.7175,-5.8213,-5.9035,-5.9621,-6.019,-6.0624,-6.0891,-6.0944,-6.0914,-6.0944,-6.0944,-6.0974,-6.1004,-6.0986,-6.0974,-6.0944,-6.0962,-6.0914,-6.0914,-6.0956,-6.1016,-6.1093,-6.1093,-6.1093,-6.1093,-6.1016,-6.0938,-6.083,-6.0727,-6.0622,-6.0441,-6.0346,-6.0234,-6.0121,-6.0121,-6.0089,-6.0089,-6.0089,-6.004,-5.9975,-6.004,-6.0089,-6.0089,-6.0089,-6.0089,-6.0153,-6.0234,-6.0266,-6.0315,-6.0329,-6.036,-6.036,-6.036,-6.0294,-6.0227,-5.9759,-5.9134,-5.681,-5.681,-5.681,-5.681,-5.681,-5.681,-5.681,-5.681,-5.681,-5.5992,-5.4868,-5.4668,-5.3991,-5.2929,-5.2803,-5.2937,-5.3115,-5.3336,-5.3452,-5.3496,-5.3829,-5.4258,-5.4597,-5.5072,-5.5264,-5.5089,-5.4722,-5.4281,-5.3774,-5.3135,-5.2746,-5.2636,-5.257,-5.2622,-5.2587,-5.257,-5.2587,-5.2605,-5.2659,-5.2694,-5.2764,-5.2972,-5.3196,-5.3382,-5.36,-5.3898,-5.4271,-5.4385,-5.4463,-5.4637,-5.4904,-5.5161,-5.5413,-5.5895,-5.6263,-5.6445,-5.7098,-5.777,-5.8183,-5.9141,-5.9929,-6.0244,-6.0766,-6.1075,-6.1093,-6.1093,-6.1093,-6.1093,-6.1093,-6.1093,-6.1093,-6.1093,-6.1093,-6.1093,-6.1093,-6.1093,-6.1093,-6.1093,-6.1093,-6.1093,-6.1093,-6.1093,-6.1093,-6.1093,-6.1064,-6.0908,-6.083,-6.077,-6.0578,-6.0441,-6.0346,-6.0202,-6.0139,-6.0121,-6.0089,-6.0089,-6.0089,-6.0089,-6.0089,-6.0089,-6.0089,-6.0107,-6.0107,-6.0234,-6.0315,-6.0409,-6.0441,-6.0503,-6.0516,-6.0565,-6.0534,-6.0454,-6.0307,-6.0104,-5.9566,-5.681,-5.681,-5.681,-5.681,-5.681,-5.681,-5.681,-5.681,-5.681,-5.6038,-5.5022,-5.4714,-5.4037,-5.3036,-5.3059,-5.3115,-5.3292,-5.3773,-5.4087,-5.4173,-5.4343,-5.4665,-5.5369,-5.583,-5.61,-5.6188,-5.5776,-5.5306,-5.4619,-5.4083,-5.3606,-5.2935,-5.2834,-5.2903,-5.2834,-5.2868,-5.2868,-5.2834,-5.2903,-5.2903,-5.2972,-5.3247,-5.3433,-5.35,-5.3931,-5.4303,-5.4512,-5.47,-5.4811,-5.4873,-5.5239,-5.5554,-5.5889,-5.661,-5.7085,-5.7324,-5.8099,-5.8879,-5.9608,-5.994,-6.0314,-6.0867,-6.1022,-6.1093,-6.1093,-6.1093,-6.1093,-6.1093,-6.1093,-6.1093,-6.1093,-6.1093,-6.1093,-6.1093,-6.1093,-6.1093,-6.1093,-6.1093,-6.1093,-6.1093,-6.1093,-6.1093,-6.1093,-6.1093,-6.1093,-6.1046,-6.0956,-6.0848,-6.0757,-6.0591,-6.0441,-6.0346,-6.0234,-6.0171,-6.0121,-6.0089,-6.0089,-6.0089,-6.0089,-6.0089,-6.0121,-6.0139,-6.0234,-6.0346,-6.0441,-6.0503,-6.0596,-6.0671,-6.0701,-6.075,-6.0688,-6.0565,-6.0419,-6.0246,-6.0016,-5.681,-5.681,-5.681,-5.681,-5.681,-5.681,-5.681,-5.681,-5.681,-5.6301,-5.5453,-5.493,-5.4345,-5.3724,-5.3288,-5.3336,-5.3758,-5.406,-5.4513,-5.4998,-5.5056,-5.5369,-5.591,-5.633,-5.6564,-5.6581,-5.625,-5.5669,-5.5024,-5.441,-5.3708,-5.292,-5.2955,-5.2903,-5.2903,-5.2903,-5.2903,-5.2938,-5.3093,-5.3179,-5.3298,-5.3517,-5.3733,-5.3996,-5.4271,-5.4512,-5.4717,-5.4961,-5.5096,-5.5109,-5.5443,-5.5948,-5.6511,-5.7027,-5.759,-5.8234,-5.9015,-5.9608,-5.994,-6.0451,-6.0861,-6.104,-6.1123,-6.1093,-6.1093,-6.1093,-6.1093,-6.1093,-6.1093,-6.1093,-6.1093,-6.1093,-6.1093,-6.1093,-6.1093,-6.1093,-6.1093,-6.1093,-6.1093,-6.1093,-6.1093,-6.1093,-6.1093,-6.1093,-6.1093,-6.1093,-6.1016,-6.0956,-6.0848,-6.074,-6.064,-6.0441,-6.0315,-6.0252,-6.0171,-6.0121,-6.0089,-6.0089,-6.0089,-6.0121,-6.0171,-6.0252,-6.0378,-6.0503,-6.0591,-6.0684,-6.0775,-6.0866,-6.0896,-6.0884,-6.0823,-6.0732,-6.0671,-6.049,-6.037,-5.681,-5.681,-5.681,-5.681,-5.681,-5.681,-5.681,-5.681,-5.6794,-5.6409,-5.5716,-5.5116,-5.4591,-5.4108,-5.3692,-5.373,-5.4103,-5.447,-5.4915,-5.5369,-5.5774,-5.6093,-5.6408,-5.6757,-5.6932,-5.6954,-5.6834,-5.6395,-5.5727,-5.5026,-5.4338,-5.3699,-5.3313,-5.3144,-5.3161,-5.3161,-5.3161,-5.3195,-5.3315,-5.345,-5.3534,-5.3783,-5.3963,-5.4222,-5.4463,-5.4731,-5.4961,-5.5247,-5.5425,-5.5455,-5.5683,-5.6175,-5.7004,-5.7626,-5.8238,-5.9069,-5.9911,-6.0427,-6.0557,-6.095,-6.1176,-6.127,-6.1299,-6.1241,-6.1211,-6.1182,-6.1182,-6.1093,-6.1093,-6.1093,-6.1093,-6.1093,-6.1093,-6.1093,-6.1093,-6.1093,-6.1093,-6.1093,-6.1093,-6.1093,-6.1093,-6.1093,-6.1093,-6.1093,-6.1093,-6.1093,-6.1093,-6.1016,-6.0938,-6.0878,-6.0788,-6.0591,-6.0472,-6.0409,-6.0297,-6.0266,-6.0234,-6.0234,-6.028,-6.028,-6.028,-6.0378,-6.0516,-6.0653,-6.0757,-6.083,-6.0908,-6.0986,-6.1034,-6.1004,-6.0956,-6.0896,-6.0805,-6.0696,-6.0547,-5.681,-5.681,-5.681,-5.681,-5.681,-5.681,-5.681,-5.681,-5.681,-5.6486,-5.5887,-5.5364,-5.4868,-5.4276,-5.415,-5.4146,-5.4301,-5.4957,-5.5369,-5.5814,-5.633,-5.6796,-5.6834,-5.7139,-5.7273,-5.7364,-5.7551,-5.7173,-5.6503,-5.5935,-5.5328,-5.455,-5.3873,-5.3551,-5.3517,-5.3568,-5.3568,-5.3551,-5.3668,-5.375,-5.3799,-5.3996,-5.419,-5.4367,-5.4683,-5.4978,-5.5217,-5.5484,-5.5677,-5.5706,-5.5932,-5.656,-5.7441,-5.8331,-5.9202,-5.9945,-6.0641,-6.1075,-6.1245,-6.1304,-6.1386,-6.1519,-6.153,-6.1501,-6.1339,-6.127,-6.1241,-6.1093,-6.1093,-6.1093,-6.1093,-6.1093,-6.1123,-6.1152,-6.1152,-6.1152,-6.1141,-6.1093,-6.1093,-6.1093,-6.1093,-6.1093,-6.1093,-6.1093,-6.1093,-6.1093,-6.1093,-6.1064,-6.1016,-6.0956,-6.0878,-6.074,-6.0653,-6.0565,-6.0503,-6.0409,-6.0409,-6.0392,-6.053,-6.053,-6.0499,-6.0561,-6.0666,-6.0788,-6.0878,-6.0938,-6.1016,-6.1093,-6.1093,-6.1093,-6.1016,-6.0956,-6.0878,-6.0788,-6.0666,-5.681,-5.681,-5.681,-5.681,-5.681,-5.681,-5.681,-5.681,-5.681,-5.6783,-5.6524,-5.5628,-5.5344,-5.5543,-5.4672,-5.4428,-5.4998,-5.5369,-5.5733,-5.6486,-5.7084,-5.7364,-5.7402,-5.7514,-5.7534,-5.7625,-5.7918,-5.7654,-5.7029,-5.642,-5.5724,-5.5008,-5.4344,-5.3899,-5.3883,-5.3833,-5.3899,-5.3899,-5.3932,-5.398,-5.4078,-5.4158,-5.4367,-5.4637,-5.4961,-5.5187,-5.5413,-5.559,-5.5735,-5.6003,-5.6606,-5.7377,-5.8174,-5.9062,-5.9974,-6.0704,-6.1091,-6.1328,-6.1473,-6.153,-6.153,-6.1605,-6.1633,-6.1519,-6.1328,-6.131,-6.1223,-6.1123,-6.1093,-6.1093,-6.1123,-6.1211,-6.1241,-6.127,-6.1357,-6.1433,-6.1299,-6.1182,-6.1123,-6.1093,-6.1093,-6.1093,-6.1093,-6.1093,-6.1093,-6.1093,-6.1093,-6.1093,-6.1064,-6.1064,-6.0986,-6.0878,-6.0818,-6.0732,-6.0609,-6.0547,-6.053,-6.0578,-6.0684,-6.0775,-6.0745,-6.0745,-6.0836,-6.0926,-6.1016,-6.1093,-6.1093,-6.1093,-6.1093,-6.1093,-6.1093,-6.1064,-6.0986,-6.0878,-6.08,-5.681,-5.681,-5.681,-5.681,-5.681,-5.681,-5.681,-5.681,-5.6875,-5.7019,-5.6853,-5.5983,-5.5799,-5.6015,-5.5181,-5.4998,-5.5409,-5.5854,-5.6391,-5.7046,-5.7476,-5.7681,-5.7881,-5.7898,-5.7881,-5.7935,-5.8188,-5.8075,-5.7685,-5.7054,-5.6389,-5.562,-5.4902,-5.4339,-5.4032,-5.4013,-5.398,-5.403,-5.4078,-5.4143,-5.4207,-5.4399,-5.4603,-5.493,-5.5156,-5.5336,-5.5578,-5.5735,-5.6074,-5.6642,-5.7423,-5.8125,-5.8652,-5.9481,-6.04,-6.112,-6.1415,-6.1519,-6.1633,-6.169,-6.1718,-6.1774,-6.1802,-6.1662,-6.1519,-6.1444,-6.1328,-6.1152,-6.1093,-6.1141,-6.1182,-6.1223,-6.131,-6.1444,-6.153,-6.153,-6.1444,-6.1299,-6.1152,-6.1123,-6.1093,-6.1093,-6.1093,-6.1093,-6.1093,-6.1093,-6.1093,-6.1093,-6.1093,-6.1064,-6.1064,-6.1004,-6.0986,-6.0896,-6.0745,-6.0714,-6.0696,-6.0727,-6.0836,-6.0926,-6.0926,-6.0956,-6.0986,-6.1064,-6.1093,-6.1093,-6.1093,-6.1093,-6.1093,-6.1093,-6.1093,-6.1093,-6.1064,-6.0986,-6.0908,-5.681,-5.681,-5.681,-5.681,-5.681,-5.681,-5.681,-5.6891,-5.7004,-5.7102,-5.6996,-5.6392,-5.6046,-5.6018,-5.5593,-5.5458,-5.5814,-5.6352,-5.7046,-5.7476,-5.7662,-5.7881,-5.8116,-5.8224,-5.8312,-5.8295,-5.8455,-5.8474,-5.8321,-5.7825,-5.7124,-5.6422,-5.555,-5.4915,-5.4369,-5.4112,-5.411,-5.416,-5.4207,-5.4303,-5.4367,-5.4606,-5.4869,-5.5109,-5.5247,-5.5396,-5.5648,-5.5857,-5.6294,-5.7281,-5.8235,-5.872,-5.9134,-5.9774,-6.0597,-6.1368,-6.1548,-6.169,-6.1802,-6.183,-6.1886,-6.1996,-6.1996,-6.1886,-6.169,-6.1577,-6.1433,-6.127,-6.1152,-6.1182,-6.1299,-6.1415,-6.1473,-6.1587,-6.1633,-6.1633,-6.1605,-6.1491,-6.1357,-6.12,-6.1152,-6.1152,-6.1123,-6.1093,-6.1093,-6.1093,-6.1093,-6.1093,-6.1093,-6.1093,-6.1064,-6.1064,-6.1034,-6.1016,-6.0896,-6.0866,-6.0848,-6.0878,-6.0986,-6.1016,-6.1064,-6.1064,-6.1064,-6.1064,-6.1093,-6.1093,-6.1093,-6.1093,-6.1093,-6.1093,-6.1093,-6.1093,-6.1093,-6.1093,-6.0986,-5.681,-5.681,-5.681,-5.681,-5.681,-5.681,-5.6891,-5.7052,-5.71,-5.7152,-5.7098,-5.646,-5.6248,-5.6214,-5.5723,-5.579,-5.6408,-5.6949,-5.7327,-5.7662,-5.7881,-5.8152,-5.8224,-5.849,-5.8648,-5.8701,-5.8736,-5.8736,-5.8599,-5.8135,-5.7723,-5.7326,-5.6277,-5.5486,-5.5142,-5.4795,-5.4436,-5.4353,-5.4399,-5.4512,-5.4655,-5.478,-5.4948,-5.5217,-5.5354,-5.5549,-5.5677,-5.5868,-5.6329,-5.7263,-5.8366,-5.9194,-5.9867,-6.0648,-6.1221,-6.1544,-6.1746,-6.183,-6.1913,-6.1969,-6.1969,-6.1996,-6.2023,-6.1941,-6.1774,-6.1662,-6.1491,-6.1328,-6.127,-6.127,-6.131,-6.153,-6.1672,-6.1774,-6.183,-6.1858,-6.1774,-6.1718,-6.1559,-6.1357,-6.1299,-6.1223,-6.1182,-6.1123,-6.1093,-6.1093,-6.1093,-6.1093,-6.1093,-6.1093,-6.1093,-6.1093,-6.1093,-6.1093,-6.1064,-6.1034,-6.1016,-6.0986,-6.1064,-6.1064,-6.1093,-6.1093,-6.1093,-6.1093,-6.1093,-6.1093,-6.1093,-6.1093,-6.1093,-6.1093,-6.1093,-6.1093,-6.1093,-6.1093,-6.1093,-5.681,-5.681,-5.681,-5.681,-5.681,-5.681,-5.6939,-5.71,-5.7227,-5.7246,-5.7078,-5.674,-5.6477,-5.6379,-5.6035,-5.6228,-5.6911,-5.7327,-5.7551,-5.7772,-5.8044,-5.826,-5.8331,-5.8683,-5.8806,-5.8858,-5.8892,-5.8892,-5.8875,-5.8634,-5.8271,-5.7805,-5.7081,-5.6443,-5.5736,-5.5255,-5.4856,-5.4649,-5.4623,-5.4686,-5.4811,-5.4917,-5.5144,-5.5341,-5.5519,-5.5666,-5.5892,-5.6407,-5.7075,-5.8,-5.903,-5.9942,-6.0708,-6.1225,-6.1633,-6.1756,-6.1858,-6.1941,-6.1996,-6.2023,-6.1996,-6.2023,-6.2023,-6.1941,-6.1802,-6.1662,-6.1519,-6.1357,-6.131,-6.1386,-6.1559,-6.17,-6.1812,-6.1895,-6.1969,-6.1969,-6.1913,-6.1913,-6.1756,-6.1541,-6.1397,-6.131,-6.1223,-6.1182,-6.1123,-6.1093,-6.1093,-6.1093,-6.1093,-6.1093,-6.1093,-6.1093,-6.1093,-6.1093,-6.1093,-6.1093,-6.1093,-6.1093,-6.1093,-6.1093,-6.1093,-6.1093,-6.1093,-6.1093,-6.1093,-6.1093,-6.1093,-6.1093,-6.1093,-6.1093,-6.1093,-6.1093,-6.1093,-6.1093,-6.1093,-5.681,-5.681,-5.681,-5.681,-5.681,-5.6842,-5.6971,-5.7195,-5.7527,-5.7477,-5.713,-5.7045,-5.6798,-5.6465,-5.6437,-5.668,-5.7364,-5.7551,-5.7698,-5.7881,-5.8152,-5.8384,-5.8525,-5.8736,-5.8909,-5.8944,-5.8978,-5.9012,-5.8978,-5.8892,-5.8633,-5.8254,-5.8047,-5.7391,-5.6374,-5.5803,-5.532,-5.5003,-5.4766,-5.4842,-5.493,-5.5126,-5.5336,-5.559,-5.5777,-5.6029,-5.6336,-5.7089,-5.7989,-5.8874,-5.9724,-6.0593,-6.1454,-6.1774,-6.183,-6.1858,-6.1941,-6.1996,-6.2023,-6.2023,-6.2023,-6.2023,-6.2023,-6.1941,-6.1858,-6.1746,-6.1559,-6.1415,-6.1415,-6.1484,-6.17,-6.183,-6.1868,-6.1969,-6.1996,-6.1996,-6.1996,-6.1969,-6.1941,-6.1728,-6.153,-6.1397,-6.131,-6.1223,-6.1164,-6.1093,-6.1093,-6.1093,-6.1093,-6.1093,-6.1093,-6.1093,-6.1093,-6.1093,-6.1093,-6.1093,-6.1093,-6.1093,-6.1093,-6.1093,-6.1093,-6.1093,-6.1093,-6.1123,-6.1093,-6.1093,-6.1093,-6.1093,-6.1093,-6.1093,-6.1093,-6.1093,-6.1093,-6.1093,-6.1093,-5.681,-5.681,-5.681,-5.681,-5.681,-5.6971,-5.7195,-5.748,-5.7855,-5.7666,-5.6985,-5.7206,-5.6911,-5.6479,-5.6718,-5.7139,-5.7422,-5.7625,-5.7735,-5.7918,-5.826,-5.8455,-5.8561,-5.8858,-5.8961,-5.9012,-5.9012,-5.9012,-5.9012,-5.9012,-5.8978,-5.8719,-5.8254,-5.7736,-5.7338,-5.6589,-5.5857,-5.5663,-5.5282,-5.507,-5.5156,-5.5389,-5.559,-5.5865,-5.6388,-5.6875,-5.7178,-5.795,-5.8812,-5.9695,-6.0152,-6.0842,-6.1594,-6.1895,-6.195,-6.1978,-6.1978,-6.2023,-6.2023,-6.2023,-6.2023,-6.2023,-6.2023,-6.1978,-6.1913,-6.1848,-6.169,-6.1605,-6.1662,-6.1746,-6.183,-6.1913,-6.1969,-6.1996,-6.2023,-6.2023,-6.2023,-6.2023,-6.1969,-6.1941,-6.1728,-6.1541,-6.1397,-6.131,-6.1223,-6.1152,-6.1093,-6.1093,-6.1093,-6.1093,-6.1093,-6.1093,-6.1093,-6.1093,-6.1093,-6.1093,-6.1093,-6.1093,-6.1123,-6.1123,-6.1152,-6.1182,-6.1152,-6.1152,-6.1152,-6.1152,-6.1182,-6.1182,-6.1123,-6.1093,-6.1093,-6.1093,-6.1093,-6.1093,-6.1093,-5.681,-5.681,-5.681,-5.681,-5.681,-5.7019,-5.7243,-5.7496,-5.757,-5.742,-5.7055,-5.6941,-5.6735,-5.6556,-5.6949,-5.7327,-5.7588,-5.7698,-5.7808,-5.7954,-5.8295,-5.849,-5.8596,-5.8823,-5.8978,-5.9012,-5.9012,-5.9012,-5.9012,-5.9012,-5.9012,-5.8961,-5.8804,-5.8474,-5.8197,-5.7567,-5.7109,-5.6669,-5.6133,-5.5689,-5.5611,-5.5935,-5.6335,-5.6411,-5.7311,-5.7788,-5.8152,-5.8837,-5.947,-6.0182,-6.0657,-6.1266,-6.1712,-6.1913,-6.1996,-6.1996,-6.1996,-6.2023,-6.2023,-6.2023,-6.2023,-6.2023,-6.1996,-6.195,-6.1913,-6.1858,-6.1802,-6.1718,-6.1774,-6.183,-6.1886,-6.1969,-6.1996,-6.2023,-6.2023,-6.2023,-6.2023,-6.2023,-6.1996,-6.1969,-6.1923,-6.1756,-6.1569,-6.1512,-6.1397,-6.1281,-6.1211,-6.1182,-6.1152,-6.1093,-6.1093,-6.1093,-6.1093,-6.1093,-6.1093,-6.1093,-6.1123,-6.1152,-6.1241,-6.1241,-6.127,-6.127,-6.127,-6.1328,-6.1386,-6.1386,-6.1375,-6.1259,-6.1152,-6.1123,-6.1093,-6.1123,-6.1123,-6.1093,-6.1093,-5.681,-5.681,-5.681,-5.6858,-5.6906,-5.71,-5.7385,-5.7621,-5.747,-5.7356,-5.7168,-5.6822,-5.6664,-5.6857,-5.7214,-5.7514,-5.7698,-5.7825,-5.7881,-5.8027,-5.826,-5.849,-5.8631,-5.8823,-5.9012,-5.9012,-5.9012,-5.9012,-5.9012,-5.9047,-5.9081,-5.9098,-5.9131,-5.9007,-5.8691,-5.8353,-5.798,-5.7356,-5.6978,-5.6593,-5.6398,-5.6828,-5.7158,-5.7559,-5.8178,-5.8803,-5.8986,-5.9744,-6.0328,-6.0662,-6.1163,-6.1628,-6.1858,-6.1969,-6.1996,-6.2023,-6.2023,-6.2023,-6.2023,-6.2023,-6.2023,-6.2023,-6.1996,-6.195,-6.1913,-6.1858,-6.1858,-6.1858,-6.184,-6.1895,-6.1969,-6.1978,-6.1996,-6.2023,-6.2023,-6.2023,-6.2023,-6.2023,-6.2023,-6.1996,-6.1969,-6.1941,-6.1812,-6.1728,-6.1615,-6.1426,-6.1357,-6.1299,-6.1241,-6.1152,-6.1123,-6.1123,-6.1123,-6.1123,-6.1182,-6.1182,-6.1164,-6.1211,-6.1299,-6.1386,-6.1415,-6.1444,-6.1473,-6.153,-6.1615,-6.1548,-6.1462,-6.1346,-6.1229,-6.127,-6.127,-6.1182,-6.1152,-6.1123,-6.1093,-5.681,-5.681,-5.681,-5.6891,-5.71,-5.7385,-5.77,-5.7961,-5.786,-5.7611,-5.7249,-5.696,-5.689,-5.7231,-5.7439,-5.7662,-5.7881,-5.7881,-5.7881,-5.8027,-5.8295,-5.8455,-5.8631,-5.8788,-5.9012,-5.9012,-5.9012,-5.9012,-5.9047,-5.9166,-5.9234,-5.9319,-5.9369,-5.9436,-5.9274,-5.8968,-5.8549,-5.803,-5.7724,-5.771,-5.7638,-5.7882,-5.8077,-5.8509,-5.913,-5.9669,-5.9833,-6.0574,-6.1124,-6.1296,-6.1582,-6.1812,-6.1941,-6.1996,-6.2023,-6.2023,-6.2023,-6.2023,-6.2023,-6.2023,-6.2023,-6.2023,-6.1996,-6.1978,-6.1969,-6.1996,-6.1996,-6.1969,-6.195,-6.1969,-6.1996,-6.2023,-6.2023,-6.2023,-6.2023,-6.2033,-6.2033,-6.2033,-6.2033,-6.2023,-6.2023,-6.2078,-6.2033,-6.195,-6.1784,-6.1587,-6.1473,-6.1433,-6.1346,-6.1288,-6.1182,-6.1152,-6.1152,-6.1182,-6.1281,-6.1281,-6.1328,-6.1386,-6.1473,-6.1548,-6.1605,-6.1633,-6.1728,-6.1756,-6.1812,-6.17,-6.1615,-6.1644,-6.1644,-6.153,-6.1462,-6.1328,-6.1241,-6.1182,-6.1152,-5.681,-5.681,-5.6923,-5.7052,-5.7084,-5.7385,-5.7527,-5.7516,-5.7376,-5.7007,-5.6703,-5.6789,-5.7025,-5.7289,-5.7514,-5.7698,-5.7881,-5.7881,-5.7881,-5.8027,-5.8277,-5.8455,-5.8614,-5.8771,-5.9012,-5.9012,-5.9012,-5.9012,-5.9012,-5.9234,-5.9386,-5.9453,-5.9569,-5.9617,-5.9591,-5.9546,-5.918,-5.8796,-5.8624,-5.858,-5.8307,-5.8798,-5.91,-5.926,-6.0119,-6.0564,-6.08,-6.1073,-6.1437,-6.1662,-6.1774,-6.1868,-6.195,-6.1996,-6.2023,-6.2023,-6.2023,-6.2023,-6.2023,-6.2023,-6.2023,-6.2023,-6.2023,-6.2023,-6.2023,-6.2023,-6.2023,-6.2023,-6.2023,-6.2023,-6.2023,-6.2023,-6.2023,-6.2023,-6.2023,-6.206,-6.2069,-6.2096,-6.2123,-6.2168,-6.2222,-6.2257,-6.2203,-6.215,-6.1978,-6.1756,-6.1662,-6.1577,-6.1491,-6.1404,-6.1346,-6.1299,-6.1299,-6.1357,-6.1426,-6.1473,-6.1501,-6.1587,-6.169,-6.1756,-6.184,-6.1978,-6.2014,-6.2014,-6.2042,-6.2014,-6.2042,-6.2069,-6.1987,-6.1784,-6.1587,-6.1444,-6.1357,-6.127,-6.1211,-5.6304,-5.6337,-5.6511,-5.6823,-5.7181,-5.7277,-5.7337,-5.7346,-5.6869,-5.6566,-5.634,-5.6834,-5.7214,-5.7402,-5.7588,-5.7735,-5.7881,-5.7881,-5.7881,-5.8027,-5.826,-5.8455,-5.8614,-5.8771,-5.9012,-5.9012,-5.9012,-5.9012,-5.9132,-5.9301,-5.9469,-5.9635,-5.9799,-5.9879,-5.9961,-6.0054,-5.9935,-5.9673,-5.9541,-5.9491,-5.9212,-5.9639,-6.0066,-6.0161,-6.079,-6.1057,-6.1221,-6.1379,-6.1569,-6.1728,-6.183,-6.1913,-6.1969,-6.2023,-6.2023,-6.2023,-6.2023,-6.2023,-6.2023,-6.2023,-6.2023,-6.2023,-6.2023,-6.2023,-6.2023,-6.2023,-6.2023,-6.2023,-6.2023,-6.2023,-6.2023,-6.2023,-6.2033,-6.206,-6.2087,-6.2123,-6.2203,-6.2257,-6.2283,-6.2336,-6.2362,-6.2362,-6.2362,-6.2283,-6.2123,-6.1923,-6.1774,-6.169,-6.1662,-6.1577,-6.1519,-6.1519,-6.1501,-6.1559,-6.1644,-6.17,-6.1766,-6.1877,-6.196,-6.2042,-6.2123,-6.223,-6.2283,-6.223,-6.2283,-6.2389,-6.2362,-6.2283,-6.2123,-6.195,-6.1812,-6.1654,-6.1491,-6.1433,-6.1328,-5.5209,-5.5147,-5.5408,-5.6263,-5.7262,-5.6995,-5.7168,-5.7444,-5.6638,-5.6377,-5.6652,-5.7063,-5.7364,-5.7588,-5.7735,-5.7845,-5.7881,-5.7881,-5.7918,-5.8027,-5.8295,-5.849,-5.8614,-5.8806,-5.9012,-5.9012,-5.9012,-5.9081,-5.9285,-5.9437,-5.9619,-5.9799,-5.9961,-6.0089,-6.0107,-6.0283,-6.0378,-6.0374,-6.0459,-6.044,-6.0521,-6.0599,-6.0713,-6.0915,-6.1122,-6.1299,-6.1444,-6.1587,-6.1728,-6.183,-6.1895,-6.1969,-6.1996,-6.2023,-6.2023,-6.2023,-6.2023,-6.2023,-6.2023,-6.2023,-6.2023,-6.2023,-6.2023,-6.2023,-6.2023,-6.2023,-6.2023,-6.2023,-6.2023,-6.2023,-6.2023,-6.2023,-6.2087,-6.2123,-6.215,-6.2212,-6.2318,-6.2423,-6.2475,-6.2578,-6.2475,-6.2397,-6.2415,-6.2407,-6.2257,-6.2096,-6.1895,-6.183,-6.183,-6.1784,-6.1756,-6.1756,-6.1784,-6.1784,-6.1868,-6.1932,-6.2042,-6.215,-6.223,-6.2283,-6.2336,-6.2423,-6.2441,-6.2441,-6.2545,-6.2672,-6.257,-6.2415,-6.2336,-6.2265,-6.2069,-6.1905,-6.1746,-6.1595,-6.1491,-5.5315,-5.5299,-5.5573,-5.6005,-5.6518,-5.6404,-5.6414,-5.6456,-5.626,-5.6322,-5.673,-5.7139,-5.7402,-5.7625,-5.7772,-5.7881,-5.7881,-5.7918,-5.7935,-5.8116,-5.8419,-5.8561,-5.8736,-5.8858,-5.8978,-5.9012,-5.9012,-5.9115,-5.9301,-5.9537,-5.9685,-5.9846,-6.0139,-6.0283,-6.0315,-6.0378,-6.0472,-6.0653,-6.0727,-6.0818,-6.0986,-6.1034,-6.1093,-6.1211,-6.1299,-6.1415,-6.1587,-6.1774,-6.183,-6.1913,-6.1996,-6.1996,-6.2023,-6.2023,-6.2023,-6.2023,-6.2023,-6.2023,-6.2023,-6.2023,-6.2023,-6.2023,-6.2023,-6.2023,-6.2023,-6.2023,-6.2023,-6.2023,-6.2023,-6.2023,-6.2023,-6.2087,-6.215,-6.2203,-6.2257,-6.237,-6.25,-6.2603,-6.2705,-6.2855,-6.2855,-6.2787,-6.278,-6.2698,-6.257,-6.2467,-6.231,-6.2177,-6.215,-6.2096,-6.2042,-6.2042,-6.2042,-6.2042,-6.2069,-6.215,-6.223,-6.2336,-6.2415,-6.2441,-6.2519,-6.2629,-6.273,-6.2823,-6.2898,-6.2947,-6.2848,-6.2755,-6.273,-6.2629,-6.2397,-6.2132,-6.195,-6.1802,-6.1662,-5.4824,-5.4869,-5.5092,-5.5342,-5.5534,-5.5771,-5.5834,-5.5857,-5.6146,-5.6541,-5.6927,-5.7252,-5.7514,-5.7698,-5.7808,-5.7881,-5.7918,-5.8007,-5.8044,-5.8224,-5.849,-5.8648,-5.8806,-5.8944,-5.8978,-5.9012,-5.9081,-5.92,-5.9419,-5.9586,-5.9816,-6.0057,-6.0266,-6.0423,-6.0485,-6.0561,-6.0622,-6.0788,-6.0848,-6.0956,-6.1064,-6.1123,-6.1193,-6.1328,-6.1444,-6.1587,-6.1746,-6.1858,-6.1913,-6.1996,-6.2023,-6.2023,-6.2023,-6.2023,-6.2023,-6.2023,-6.2023,-6.2023,-6.2023,-6.2023,-6.2023,-6.2023,-6.2023,-6.2023,-6.2023,-6.2023,-6.2023,-6.2023,-6.2023,-6.2023,-6.2033,-6.2123,-6.223,-6.2283,-6.2441,-6.2578,-6.273,-6.283,-6.2929,-6.3075,-6.3147,-6.3123,-6.3104,-6.3002,-6.2898,-6.2823,-6.2748,-6.2622,-6.2467,-6.2344,-6.2291,-6.2283,-6.2283,-6.2257,-6.2283,-6.237,-6.2449,-6.25,-6.2596,-6.2672,-6.2823,-6.2947,-6.3069,-6.3141,-6.3117,-6.3093,-6.3141,-6.3099,-6.3002,-6.2855,-6.2654,-6.2423,-6.2203,-6.2033,-6.1868,-5.3805,-5.3833,-5.4033,-5.4321,-5.4555,-5.5336,-5.5641,-5.5806,-5.6424,-5.6927,-5.7289,-5.7476,-5.7662,-5.7845,-5.7881,-5.7918,-5.7954,-5.8116,-5.8224,-5.8348,-5.8596,-5.8736,-5.884,-5.8927,-5.8978,-5.9047,-5.9166,-5.9319,-5.957,-5.9783,-6.0025,-6.0283,-6.0378,-6.0547,-6.0666,-6.0788,-6.0818,-6.0878,-6.0986,-6.1046,-6.1152,-6.1241,-6.1328,-6.1444,-6.1587,-6.1728,-6.1858,-6.1895,-6.1969,-6.2023,-6.2023,-6.2023,-6.2023,-6.2023,-6.2023,-6.2023,-6.2023,-6.2023,-6.2023,-6.2023,-6.2023,-6.2023,-6.2023,-6.2023,-6.2023,-6.2023,-6.2023,-6.2023,-6.2023,-6.2005,-6.2033,-6.215,-6.231,-6.2467,-6.2654,-6.2805,-6.2953,-6.3093,-6.3165,-6.326,-6.3289,-6.3312,-6.3312,-6.3242,-6.3189,-6.3141,-6.3045,-6.2873,-6.2723,-6.2545,-6.2493,-6.2467,-6.2441,-6.2441,-6.2493,-6.2603,-6.2705,-6.2805,-6.2898,-6.2972,-6.3117,-6.3189,-6.3237,-6.326,-6.3237,-6.3237,-6.3307,-6.3284,-6.3194,-6.3051,-6.288,-6.2679,-6.2467,-6.223,-6.2042,-5.4103,-5.4258,-5.4285,-5.4539,-5.4964,-5.5652,-5.5929,-5.603,-5.6486,-5.6911,-5.7327,-5.7497,-5.7735,-5.7881,-5.7881,-5.7991,-5.8116,-5.8224,-5.8402,-5.8596,-5.8736,-5.884,-5.8927,-5.8978,-5.9012,-5.9081,-5.92,-5.9419,-5.9636,-5.9864,-6.0139,-6.0364,-6.0503,-6.0653,-6.0788,-6.0956,-6.0986,-6.1016,-6.1093,-6.1152,-6.1211,-6.1281,-6.1444,-6.1615,-6.1728,-6.1858,-6.1941,-6.1969,-6.2023,-6.2023,-6.2023,-6.2023,-6.2023,-6.2023,-6.2023,-6.2023,-6.2023,-6.2023,-6.2023,-6.2023,-6.2023,-6.2023,-6.2023,-6.2023,-6.2023,-6.2023,-6.2023,-6.2023,-6.2051,-6.206,-6.2141,-6.2257,-6.2415,-6.2622,-6.2805,-6.2978,-6.3147,-6.3284,-6.3377,-6.347,-6.3497,-6.3565,-6.3565,-6.3497,-6.3447,-6.3424,-6.3331,-6.3165,-6.2996,-6.2823,-6.2698,-6.2698,-6.2698,-6.2698,-6.2773,-6.288,-6.2978,-6.3093,-6.3141,-6.3189,-6.3284,-6.3354,-6.3419,-6.3419,-6.34,-6.3424,-6.3488,-6.3424,-6.3354,-6.3242,-6.3099,-6.2904,-6.2723,-6.2467,-6.223,-5.446,-5.4555,-5.4555,-5.4806,-5.5303,-5.603,-5.6362,-5.6424,-5.6757,-5.7139,-5.7422,-5.7608,-5.7845,-5.8007,-5.8044,-5.8152,-5.8331,-5.8438,-5.8596,-5.8701,-5.884,-5.8927,-5.8978,-5.9012,-5.9047,-5.9166,-5.9301,-5.9553,-5.9751,-6.0028,-6.0315,-6.0472,-6.0609,-6.0745,-6.0908,-6.1016,-6.1123,-6.1152,-6.1193,-6.1241,-6.1328,-6.1397,-6.1615,-6.1756,-6.183,-6.1941,-6.1996,-6.2023,-6.2023,-6.2023,-6.2023,-6.2023,-6.2023,-6.2023,-6.2023,-6.2023,-6.2023,-6.2023,-6.2023,-6.2023,-6.2023,-6.2023,-6.2023,-6.2023,-6.2023,-6.2023,-6.2023,-6.2023,-6.206,-6.2141,-6.223,-6.2389,-6.257,-6.2773,-6.2953,-6.3147,-6.3312,-6.347,-6.3583,-6.3695,-6.3783,-6.383,-6.3848,-6.3761,-6.3695,-6.3695,-6.365,-6.3561,-6.3354,-6.3141,-6.3021,-6.2972,-6.2972,-6.2972,-6.3045,-6.3075,-6.3165,-6.3237,-6.3242,-6.3331,-6.3447,-6.347,-6.3511,-6.3534,-6.3557,-6.3579,-6.3557,-6.3534,-6.3488,-6.3377,-6.3265,-6.3075,-6.2873,-6.257,-6.2389,-5.4813,-5.4854,-5.4854,-5.5155,-5.5572,-5.6369,-5.6719,-5.6796,-5.716,-5.7439,-5.7625,-5.7825,-5.7991,-5.8152,-5.8188,-5.8348,-5.8525,-5.8631,-5.8736,-5.8823,-5.8927,-5.8978,-5.8978,-5.9012,-5.9132,-5.9319,-5.952,-5.97,-5.9928,-6.0202,-6.0441,-6.0609,-6.0727,-6.0878,-6.1016,-6.1123,-6.1211,-6.127,-6.131,-6.1415,-6.1473,-6.1615,-6.1802,-6.1858,-6.1913,-6.2023,-6.2023,-6.2023,-6.2023,-6.2023,-6.2023,-6.2023,-6.2023,-6.2023,-6.2023,-6.2023,-6.2023,-6.2023,-6.2023,-6.2023,-6.2023,-6.2023,-6.2023,-6.2051,-6.2078,-6.206,-6.206,-6.2087,-6.2123,-6.2257,-6.2362,-6.2519,-6.2705,-6.2904,-6.3099,-6.3331,-6.3534,-6.3691,-6.3805,-6.3913,-6.3977,-6.4019,-6.4019,-6.3934,-6.3891,-6.3873,-6.383,-6.3783,-6.3695,-6.3447,-6.3307,-6.3237,-6.3189,-6.3189,-6.3213,-6.3242,-6.3307,-6.3377,-6.34,-6.3424,-6.3511,-6.3557,-6.3579,-6.3602,-6.3602,-6.3602,-6.3579,-6.3557,-6.3557,-6.3511,-6.3377,-6.3237,-6.2996,-6.2698,-6.2493,-5.488,-5.5088,-5.5417,-5.5886,-5.6369,-5.6603,-5.6987,-5.7364,-5.7476,-5.7588,-5.7662,-5.7954,-5.8135,-5.826,-5.8384,-5.8525,-5.8701,-5.8771,-5.8875,-5.8927,-5.9012,-5.9047,-5.9047,-5.9166,-5.9268,-5.9369,-5.9602,-5.9928,-6.0171,-6.0378,-6.0516,-6.0727,-6.08,-6.0908,-6.1093,-6.1182,-6.127,-6.1357,-6.153,-6.1615,-6.1672,-6.1728,-6.183,-6.1913,-6.2023,-6.2023,-6.2023,-6.2023,-6.2023,-6.2023,-6.2023,-6.2023,-6.2023,-6.2023,-6.2023,-6.2023,-6.2051,-6.2051,-6.2051,-6.2051,-6.2051,-6.206,-6.2087,-6.2141,-6.215,-6.215,-6.215,-6.2203,-6.2257,-6.2389,-6.25,-6.2654,-6.283,-6.3051,-6.3242,-6.347,-6.3732,-6.3867,-6.4037,-6.41,-6.4162,-6.4162,-6.4162,-6.4123,-6.4081,-6.4019,-6.3915,-6.3891,-6.3891,-6.372,-6.3565,-6.347,-6.3377,-6.3336,-6.3359,-6.34,-6.3447,-6.3511,-6.3557,-6.3579,-6.362,-6.3647,-6.3669,-6.3624,-6.3602,-6.3624,-6.3624,-6.3579,-6.3579,-6.3557,-6.3419,-6.3237,-6.3026,-6.273,-6.257,-5.5458,-5.5604,-5.6046,-5.6385,-5.6719,-5.6987,-5.7289,-5.7588,-5.7772,-5.7862,-5.7881,-5.8116,-5.8295,-5.8419,-5.8613,-5.8701,-5.8875,-5.8909,-5.8927,-5.8978,-5.9098,-5.9132,-5.92,-5.9335,-5.9469,-5.9602,-5.9896,-6.0202,-6.0409,-6.0578,-6.0696,-6.08,-6.0878,-6.0986,-6.1141,-6.1241,-6.1357,-6.1444,-6.169,-6.1802,-6.1858,-6.1913,-6.1895,-6.1996,-6.2023,-6.2023,-6.2023,-6.2023,-6.2023,-6.2051,-6.2078,-6.2141,-6.2195,-6.2203,-6.2177,-6.2177,-6.2177,-6.2177,-6.2168,-6.2168,-6.2168,-6.2195,-6.2203,-6.2283,-6.231,-6.231,-6.2318,-6.237,-6.2441,-6.2545,-6.2654,-6.2805,-6.3002,-6.3218,-6.34,-6.3624,-6.3867,-6.4079,-6.4162,-6.4203,-6.4244,-6.4244,-6.4244,-6.4244,-6.4203,-6.4183,-6.4081,-6.4019,-6.4019,-6.3998,-6.3848,-6.3717,-6.361,-6.3583,-6.3583,-6.3583,-6.3579,-6.3624,-6.3688,-6.3714,-6.3758,-6.3739,-6.3739,-6.3695,-6.3691,-6.371,-6.371,-6.3643,-6.3602,-6.3579,-6.3419,-6.3213,-6.3002,-6.2805,-6.257,-5.6109,-5.6228,-5.6564,-5.6757,-5.6911,-5.7402,-5.7662,-5.7752,-5.808,-5.826,-5.826,-5.8312,-5.849,-5.8718,-5.8857,-5.8892,-5.8944,-5.8944,-5.8978,-5.9081,-5.92,-5.9285,-5.9386,-5.952,-5.97,-5.9914,-6.0188,-6.036,-6.0485,-6.0653,-6.0788,-6.0848,-6.0986,-6.1093,-6.1152,-6.127,-6.1444,-6.1605,-6.1774,-6.1886,-6.1969,-6.2023,-6.1996,-6.1996,-6.2023,-6.2023,-6.2023,-6.2023,-6.2023,-6.2087,-6.2168,-6.2275,-6.2328,-6.2336,-6.2336,-6.2336,-6.2336,-6.2336,-6.2362,-6.2336,-6.2362,-6.2389,-6.2415,-6.2441,-6.2493,-6.2545,-6.2552,-6.2603,-6.2654,-6.273,-6.2855,-6.3002,-6.3194,-6.3382,-6.3583,-6.3758,-6.3995,-6.4203,-6.4263,-6.4303,-6.4303,-6.4303,-6.4284,-6.4284,-6.4284,-6.4284,-6.4264,-6.4224,-6.4183,-6.4142,-6.404,-6.3955,-6.387,-6.3845,-6.3802,-6.3758,-6.3695,-6.3758,-6.3802,-6.3826,-6.387,-6.3848,-6.3808,-6.383,-6.3826,-6.3798,-6.3732,-6.3688,-6.3643,-6.3602,-6.3377,-6.3189,-6.3051,-6.283,-6.2545,-5.6267,-5.6619,-5.6834,-5.7139,-5.7439,-5.7735,-5.7935,-5.8116,-5.8348,-5.8542,-5.8648,-5.8683,-5.8753,-5.8823,-5.8927,-5.9012,-5.9012,-5.9047,-5.9115,-5.9234,-5.9335,-5.9419,-5.9553,-5.9733,-5.9978,-6.022,-6.0378,-6.0516,-6.0622,-6.0757,-6.0908,-6.1016,-6.1046,-6.1152,-6.1299,-6.1415,-6.1587,-6.1746,-6.1858,-6.1969,-6.1996,-6.2023,-6.2023,-6.2023,-6.2023,-6.2023,-6.2023,-6.2023,-6.206,-6.2168,-6.2283,-6.2362,-6.2441,-6.2467,-6.2467,-6.2467,-6.2467,-6.2467,-6.2467,-6.2493,-6.2519,-6.2519,-6.2552,-6.2654,-6.273,-6.283,-6.288,-6.3002,-6.3026,-6.3026,-6.3123,-6.3237,-6.34,-6.3606,-6.3783,-6.3913,-6.4102,-6.4224,-6.4303,-6.4303,-6.4303,-6.4284,-6.4284,-6.4284,-6.4284,-6.4284,-6.4284,-6.4244,-6.4244,-6.4244,-6.4244,-6.4162,-6.41,-6.3998,-6.3915,-6.387,-6.3848,-6.387,-6.3913,-6.3955,-6.3977,-6.3894,-6.3894,-6.3958,-6.3891,-6.3842,-6.3776,-6.3714,-6.3665,-6.3579,-6.3354,-6.3171,-6.3051,-6.2855,-6.257]},{"header":{"parameterUnit":"m.s-1","parameterCategory":1,"la1":31.0,"la2":29.5877,"lo1":-88.7671,"lo2":-86.6584,"dy":0.0162,"dx":0.0185,"nx":115,"ny":88,"refTime":"2024-06-05T06:00:00:Z","depth":0,"parameterNumber":3,"parameterNumberName":"V-component_of_WINDS"},"data":[0.0,0.0,0.0,0.0,0.0,0.0,0.0,0.0,0.0,0.0,0.0,0.0,0.0,0.0,0.0,0.0,0.0,0.0,0.0,0.0,0.0,0.0,0.0,0.0,0.0,0.0,0.0,0.0,0.0,0.0,0.0,0.0,0.0,0.0,0.0,0.0,0.0,0.0,0.0,0.0,0.0,0.0,0.0,0.0,0.0,0.0,0.0,0.0,0.0,0.0,0.0,0.0,0.0,0.0,0.0,0.0,0.0,0.0,0.0,0.0,0.0,0.0,0.0,0.0,0.0,0.0,0.0,0.0,0.0,0.0,0.0,0.0,0.0,0.0,0.0,0.0,0.0,0.0,0.0,0.0,0.0,0.0,0.0,0.0,0.0,0.0,0.0,0.0,0.0,0.0,0.0,0.0,0.0,0.0,0.0,0.0,0.0,0.0,0.0,0.0,0.0,0.0,0.0,0.0,0.0,0.0,0.0,0.0,0.0,0.0,0.0,0.0,0.0,0.0,0.0,0.0,0.0,0.0,0.0,0.0,0.0,0.0,0.0,0.0,0.0,0.0,0.0,0.0,0.0,0.0,0.0,0.0,0.0,0.0,0.0,0.0,0.0,0.0,0.0,0.0,0.0,0.0,0.0,0.0,0.0,0.0,0.0,0.0,0.0,0.0,0.0,0.0,0.0,0.0,0.0,0.0,0.0,0.0,0.0,0.0,0.0,0.0,0.0,0.0,0.0,0.0,0.0,0.0,0.0,0.0,0.0,0.0,0.0,0.0,0.0,0.0,0.0,0.0,0.0,0.0,0.0,0.0,0.0,0.0,0.0,0.0,0.0,0.0,0.0,0.0,0.0,0.0,0.0,0.0,0.0,0.0,0.0,0.0,0.0,0.0,0.0,0.0,0.0,0.0,0.0,0.0,0.0,0.0,0.0,0.0,0.0,0.0,0.0,0.0,0.0,0.0,0.0,0.0,0.0,0.0,0.0,0.0,0.0,0.0,0.0,0.0,0.0,0.0,0.0,0.0,0.0,0.0,0.0,0.0,0.0,0.0,0.0,0.0,0.0,0.0,0.0,0.0,0.0,0.0,0.0,0.0,0.0,0.0,0.0,0.0,0.0,0.0,0.0,0.0,0.0,0.0,0.0,0.0,0.0,0.0,0.0,0.0,0.0,0.0,0.0,0.0,0.0,0.0,0.0,0.0,0.0,0.0,0.0,0.0,0.0,0.0,0.0,0.0,0.0,0.0,0.0,0.0,0.0,0.0,0.0,0.0,0.0,0.0,0.0,0.0,0.0,0.0,0.0,0.0,0.0,0.0,0.0,0.0,0.0,0.0,0.0,0.0,0.0,0.0,0.0,0.0,0.0,0.0,0.0,0.0,0.0,0.0,0.0,0.0,0.0,0.0,0.0,0.0,0.0,0.0,0.0,0.0,0.0,0.0,0.0,0.0,0.0,0.0,0.0,0.0,0.0,0.0,0.0,0.0,0.0,0.0,0.0,0.0,0.0,0.0,0.0,0.0,0.0,0.0,0.0,0.0,0.0,0.0,0.0,0.0,0.0,0.0,0.0,0.0,0.0,0.0,0.0,0.0,0.0,0.0,0.0,0.0,0.0,0.0,0.0,0.0,0.0,0.0,0.0,0.0,0.0,0.0,0.0,0.0,0.0,0.0,0.0,0.0,0.0,0.0,0.0,0.0,0.0,0.0,0.0,0.0,0.0,0.0,0.0,0.0,0.0,0.0,0.0,0.0,0.0,0.0,0.0,0.0,0.0,0.0,0.0,0.0,0.0,0.0,0.0,0.0,0.0,0.0,0.0,0.0,0.0,0.0,0.0,0.0,0.0,0.0,0.0,0.0,0.0,0.0,0.0,0.0,0.0,0.0,0.0,0.0,0.0,0.0,0.0,0.0,0.0,0.0,0.0,0.0,0.0,0.0,0.0,0.0,0.0,0.0,0.0,0.0,0.0,0.0,0.0,0.0,0.0,0.0,0.0,0.0,0.0,0.0,0.0,0.0,0.0,0.0,0.0,0.0,0.0,0.0,0.0,0.0,0.0,0.0,0.0,0.0,0.0,0.0,0.0,0.0,0.0,0.0,0.0,0.0,0.0,0.0,0.0,0.0,0.0,0.0,0.0,0.0,0.0,0.0,0.0,0.0,0.0,0.0,0.0,0.0,0.0,0.0,0.0,0.0,0.0,0.0,0.0,0.0,0.0,0.0,0.0,0.0,0.0,0.0,0.0,0.0,0.0,0.0,0.0,0.0,0.0,0.0,0.0,0.0,0.0,0.0,0.0,0.0,0.0,0.0,0.0,0.0,0.0,0.0,0.0,0.0,0.0,0.0,0.0,0.0,0.0,0.0,0.0,0.0,0.0,0.0,0.0,0.0,0.0,0.0,0.0,0.0,0.0,0.0,0.0,0.0,0.0,0.0,0.0,0.0,0.0,0.0,0.0,0.0,0.0,0.0,0.0,0.0,0.0,0.0,0.0,0.0,0.0,0.0,0.0,0.0,0.0,0.0,0.0,0.0,0.0,0.0,0.0,0.0,0.0,0.0,0.0,0.0,0.0,0.0,0.0,0.0,0.0,0.0,0.0,0.0,0.0,0.0,0.0,0.0,0.0,0.0,0.0,0.0,0.0,0.0,0.0,0.0,0.0,0.0,0.0,0.0,0.0,0.0,0.0,0.0,0.0,0.0,0.0,0.0,0.0,0.0,0.0,0.0,0.0,0.0,0.0,0.0,0.0,0.0,0.0,0.0,0.0,0.0,0.0,0.0,0.0,0.0,0.0,0.0,0.0,0.0,0.0,0.0,0.0,0.0,0.0,0.0,0.0,0.0,0.0,0.0,0.0,0.0,0.0,0.0,0.0,0.0,0.0,0.0,0.0,0.0,0.0,0.0,0.0,0.0,0.0,0.0,0.0,0.0,0.0,0.0,0.0,0.0,0.0,0.0,0.0,0.0,0.0,0.0,0.0,0.0,0.0,0.0,0.0,0.0,0.0,0.0,0.0,0.0,0.0,0.0,0.0,0.0,0.0,0.0,0.0,0.0,0.0,0.0,0.0,0.0,0.0,0.0,0.0,0.0,0.0,0.0,0.0,0.0,0.0,0.0,0.0,0.0,0.0,0.0,0.0,0.0,0.0,0.0,0.0,0.0,0.0,0.0,0.0,0.0,0.0,0.0,0.0,0.0,0.0,0.0,0.0,0.0,0.0,0.0,0.0,0.0,0.0,0.0,0.0,0.0,0.0,0.0,0.0,0.0,0.0,0.0,0.0,0.0,0.0,0.0,0.0,0.0,0.0,0.0,0.0,0.0,0.0,0.0,0.0,0.0,0.0,0.0,0.0,0.0,0.0,0.0,0.0,0.0,0.0,0.0,0.0,0.0,0.0,0.0,0.0,0.0,0.0,0.0,0.0,0.0,0.0,0.0,0.0,0.0,0.0,0.0,0.0,0.0,0.0,0.0,0.0,0.0,0.0,0.0,0.0,0.0,0.0,0.0,0.0,0.0,0.0,0.0,0.0,0.0,0.0,0.0,0.0,0.0,0.0,0.0,0.0,0.0,0.0,0.0,0.0,0.0,0.0,0.0,0.0,0.0,0.0,0.0,0.0,0.0,0.0,0.0,0.0,0.0,0.0,0.0,0.0,0.0,0.0,0.0,0.0,0.0,0.0,0.0,0.0,0.0,0.0,0.0,0.0,0.0,0.0,0.0,0.0,0.0,0.0,0.0,0.0,0.0,0.0,0.0,0.0,0.0,0.0,0.0,0.0,0.0,0.0,0.0,0.0,0.0,0.0,0.0,0.0,0.0,0.0,0.0,0.0,0.0,0.0,0.0,0.0,0.0,0.0,0.0,0.0,0.0,0.0,0.0,0.0,0.0,0.0,0.0,0.0,0.0,0.0,0.0,0.0,0.0,0.0,0.0,0.0,0.0,0.0,0.0,0.0,0.0,0.0,0.0,0.0,0.0,0.0,0.0,0.0,0.0,0.0,0.0,0.0,0.0,0.0,0.0,0.0,0.0,0.0,0.0,0.0,0.0,0.0,0.0,0.0,0.0,0.0,0.0,0.0,0.0,0.0,0.0,0.0,0.0,0.0,0.0,0.0,0.0,0.0,0.0,0.0,0.0,0.0,0.0,0.0,0.0,0.0,0.0,0.0,0.0,0.0,0.0,0.0,0.0,0.0,0.0,0.0,0.0,0.0,0.0,0.0,0.0,0.0,0.0,0.0,0.0,0.0,0.0,0.0,0.0,0.0,0.0,0.0,0.0,0.0,0.0,-0.8778,0.0,0.0,0.0,0.0,0.0,0.0,0.0,0.0,0.0,0.0,0.0,0.0,0.0,0.0,0.0,0.0,0.0,0.0,0.0,0.0,0.0,0.0,0.0,0.0,0.0,0.0,0.0,0.0,0.0,0.0,0.0,0.0,0.0,0.0,0.0,0.0,0.0,0.0,0.0,0.0,0.0,0.0,0.0,0.0,0.0,0.0,0.0,0.0,0.0,0.0,0.0,0.0,0.0,0.0,0.0,0.0,0.0,0.0,0.0,0.0,0.0,0.0,0.0,0.0,0.0,0.0,0.0,0.0,0.0,0.0,0.0,0.0,0.0,0.0,0.0,0.0,0.0,0.0,0.0,0.0,0.0,0.0,0.0,0.0,0.0,0.0,0.0,0.0,0.0,0.0,0.0,0.0,0.0,0.0,0.0,0.0,0.0,0.0,0.0,0.0,0.0,0.0,0.0,0.0,0.0,0.0,0.0,0.0,0.0,0.0,-0.9517,-0.9389,-0.9261,-0.9126,-0.9018,0.0,0.0,0.0,0.0,0.0,0.0,0.0,0.0,0.0,0.0,0.0,0.0,0.0,0.0,0.0,0.0,0.0,0.0,0.0,0.0,0.0,0.0,0.0,0.0,0.0,0.0,0.0,0.0,0.0,0.0,0.0,0.0,0.0,0.0,0.0,0.0,0.0,0.0,0.0,0.0,0.0,0.0,0.0,0.0,0.0,0.0,0.0,0.0,0.0,0.0,0.0,0.0,0.0,0.0,0.0,0.0,0.0,0.0,0.0,0.0,0.0,0.0,0.0,0.0,0.0,0.0,0.0,0.0,0.0,0.0,0.0,0.0,0.0,0.0,0.0,0.0,0.0,0.0,0.0,0.0,0.0,0.0,0.0,0.0,0.0,0.0,0.0,0.0,0.0,0.0,0.0,0.0,0.0,0.0,0.0,0.0,0.0,0.0,0.0,0.0,0.0,0.0,0.0,0.0,0.0,0.0,0.0,0.0,0.0,0.0,0.0,0.0,-0.9729,-0.9563,-0.9315,0.0,0.0,0.0,0.0,0.0,0.0,0.0,0.0,0.0,0.0,0.0,0.0,0.0,0.0,0.0,0.0,0.0,0.0,0.0,0.0,0.0,0.0,0.0,0.0,0.0,0.0,0.0,0.0,0.0,0.0,0.0,0.0,0.0,0.0,0.0,0.0,0.0,0.0,0.0,0.0,0.0,0.0,0.0,0.0,0.0,0.0,0.0,0.0,0.0,0.0,0.0,0.0,0.0,0.0,0.0,0.0,0.0,0.0,0.0,0.0,0.0,0.0,0.0,0.0,0.0,0.0,0.0,0.0,0.0,0.0,0.0,0.0,0.0,0.0,0.0,0.0,0.0,0.0,0.0,0.0,0.0,0.0,0.0,0.0,0.0,0.0,0.0,0.0,0.0,0.0,0.0,0.0,0.0,0.0,0.0,0.0,0.0,0.0,0.0,0.0,0.0,0.0,0.0,0.0,0.0,0.0,0.0,0.0,0.0,0.0,-1.0465,-1.0351,-1.0215,0.0,-0.9701,0.0,0.0,0.0,0.0,0.0,0.0,0.0,0.0,0.0,0.0,0.0,0.0,0.0,0.0,0.0,0.0,0.0,0.0,0.0,0.0,0.0,0.0,0.0,0.0,0.0,0.0,0.0,0.0,0.0,0.0,0.0,0.0,0.0,0.0,0.0,0.0,0.0,0.0,0.0,0.0,0.0,0.0,0.0,0.0,0.0,0.0,0.0,0.0,0.0,0.0,0.0,0.0,0.0,0.0,0.0,0.0,0.0,0.0,0.0,0.0,0.0,0.0,0.0,0.0,0.0,0.0,0.0,0.0,0.0,0.0,0.0,0.0,0.0,0.0,0.0,0.0,0.0,0.0,0.0,0.0,0.0,0.0,0.0,0.0,0.0,0.0,0.0,0.0,0.0,0.0,0.0,0.0,0.0,0.0,0.0,0.0,0.0,0.0,0.0,0.0,0.0,0.0,0.0,0.0,0.0,0.0,0.0,0.0,0.0,0.0,0.0,-1.0821,-1.0585,-1.0326,0.0,0.0,0.0,0.0,0.0,0.0,0.0,0.0,0.0,0.0,0.0,0.0,0.0,0.0,0.0,0.0,0.0,0.0,0.0,0.0,0.0,0.0,0.0,0.0,0.0,0.0,0.0,0.0,0.0,0.0,0.0,0.0,0.0,0.0,0.0,0.0,0.0,0.0,0.0,0.0,0.0,0.0,0.0,0.0,0.0,0.0,0.0,0.0,0.0,0.0,0.0,0.0,0.0,0.0,0.0,0.0,0.0,0.0,0.0,0.0,0.0,0.0,0.0,0.0,0.0,0.0,0.0,0.0,0.0,0.0,0.0,0.0,0.0,0.0,0.0,0.0,0.0,0.0,0.0,0.0,0.0,0.0,0.0,0.0,0.0,0.0,0.0,0.0,0.0,0.0,0.0,0.0,0.0,0.0,0.0,0.0,0.0,0.0,0.0,0.0,0.0,0.0,0.0,0.0,0.0,0.0,0.0,0.0,0.0,0.0,-1.1656,0.0,-1.136,-1.1081,-1.0816,-1.0646,0.0,0.0,0.0,0.0,0.0,0.0,0.0,0.0,0.0,0.0,0.0,0.0,0.0,0.0,0.0,0.0,0.0,0.0,0.0,0.0,0.0,0.0,0.0,0.0,0.0,0.0,0.0,0.0,0.0,0.0,0.0,0.0,0.0,0.0,0.0,0.0,0.0,0.0,0.0,0.0,0.0,0.0,0.0,0.0,0.0,0.0,0.0,0.0,0.0,0.0,0.0,0.0,0.0,0.0,0.0,0.0,0.0,0.0,0.0,0.0,0.0,0.0,0.0,0.0,0.0,0.0,0.0,0.0,0.0,0.0,0.0,0.0,0.0,0.0,0.0,0.0,0.0,0.0,0.0,0.0,0.0,0.0,0.0,0.0,0.0,0.0,0.0,0.0,0.0,0.0,0.0,0.0,0.0,0.0,0.0,0.0,0.0,0.0,0.0,0.0,0.0,0.0,0.0,0.0,0.0,0.0,0.0,0.0,0.0,-1.2361,-1.239,-1.2081,-1.1849,-1.1599,0.0,0.0,0.0,0.0,0.0,0.0,0.0,0.0,0.0,0.0,0.0,0.0,0.0,0.0,0.0,0.0,0.0,0.0,0.0,0.0,0.0,0.0,0.0,0.0,0.0,0.0,0.0,0.0,0.0,0.0,0.0,0.0,0.0,0.0,0.0,0.0,0.0,0.0,0.0,0.0,0.0,0.0,0.0,0.0,0.0,0.0,0.0,0.0,0.0,0.0,0.0,0.0,0.0,0.0,0.0,0.0,0.0,0.0,0.0,0.0,0.0,0.0,0.0,0.0,0.0,0.0,0.0,0.0,0.0,0.0,0.0,0.0,0.0,0.0,0.0,0.0,0.0,0.0,0.0,0.0,0.0,0.0,0.0,0.0,0.0,0.0,0.0,0.0,0.0,0.0,0.0,0.0,0.0,0.0,0.0,0.0,0.0,0.0,0.0,0.0,0.0,0.0,0.0,0.0,0.0,0.0,0.0,0.0,0.0,-1.3336,-1.3291,-1.3146,0.0,-1.2525,-1.2261,0.0,0.0,0.0,0.0,0.0,0.0,0.0,0.0,0.0,0.0,0.0,0.0,0.0,0.0,0.0,0.0,0.0,0.0,0.0,0.0,0.0,0.0,0.0,0.0,0.0,0.0,0.0,0.0,0.0,0.0,0.0,0.0,0.0,0.0,0.0,0.0,0.0,0.0,0.0,0.0,0.0,0.0,0.0,0.0,0.0,0.0,0.0,0.0,0.0,0.0,0.0,0.0,0.0,0.0,0.0,0.0,0.0,0.0,0.0,0.0,0.0,0.0,0.0,0.0,0.0,0.0,0.0,0.0,0.0,0.0,0.0,0.0,0.0,0.0,0.0,0.0,0.0,0.0,0.0,0.0,0.0,0.0,0.0,0.0,0.0,0.0,0.0,0.0,0.0,0.0,0.0,0.0,0.0,0.0,0.0,0.0,0.0,0.0,0.0,0.0,0.0,0.0,0.0,0.0,0.0,0.0,0.0,0.0,0.0,-1.4256,0.0,-1.3725,0.0,-1.3239,-1.2936,0.0,0.0,0.0,0.0,0.0,0.0,0.0,0.0,0.0,0.0,0.0,0.0,0.0,0.0,0.0,0.0,0.0,0.0,0.0,0.0,0.0,0.0,0.0,0.0,0.0,0.0,0.0,0.0,0.0,0.0,0.0,0.0,0.0,0.0,0.0,0.0,0.0,0.0,0.0,0.0,0.0,0.0,0.0,0.0,0.0,0.0,0.0,0.0,0.0,0.0,0.0,0.0,0.0,0.0,0.0,0.0,0.0,0.0,0.0,0.0,0.0,0.0,0.0,0.0,0.0,0.0,0.0,0.0,0.0,0.0,0.0,0.0,0.0,0.0,0.0,0.0,0.0,0.0,0.0,0.0,0.0,0.0,0.0,0.0,0.0,0.0,0.0,0.0,0.0,0.0,0.0,0.0,0.0,0.0,0.0,0.0,0.0,0.0,0.0,0.0,0.0,0.0,0.0,0.0,0.0,0.0,0.0,0.0,-1.4998,-1.4706,-1.4396,-1.428,-1.4231,-1.404,-1.368,0.0,0.0,0.0,0.0,0.0,0.0,0.0,0.0,0.0,0.0,0.0,0.0,0.0,0.0,0.0,0.0,0.0,0.0,0.0,0.0,0.0,0.0,0.0,0.0,0.0,0.0,0.0,0.0,0.0,0.0,0.0,0.0,0.0,0.0,0.0,0.0,0.0,0.0,0.0,0.0,0.0,0.0,0.0,0.0,0.0,0.0,0.0,0.0,0.0,0.0,0.0,0.0,0.0,0.0,0.0,0.0,0.0,0.0,0.0,0.0,0.0,0.0,0.0,0.0,0.0,0.0,0.0,0.0,0.0,0.0,0.0,0.0,0.0,0.0,0.0,0.0,0.0,0.0,0.0,0.0,0.0,0.0,0.0,0.0,0.0,0.0,0.0,0.0,0.0,0.0,0.0,0.0,0.0,0.0,0.0,0.0,0.0,0.0,0.0,0.0,0.0,0.0,0.0,0.0,0.0,0.0,0.0,0.0,0.0,-1.5893,-1.5721,-1.5672,-1.5681,-1.5155,-1.4525,0.0,0.0,0.0,0.0,0.0,0.0,0.0,0.0,0.0,0.0,0.0,0.0,0.0,0.0,0.0,0.0,0.0,0.0,0.0,0.0,0.0,0.0,0.0,0.0,0.0,0.0,0.0,0.0,0.0,0.0,0.0,0.0,0.0,0.0,0.0,0.0,0.0,0.0,0.0,0.0,0.0,0.0,0.0,0.0,0.0,0.0,0.0,0.0,0.0,0.0,0.0,0.0,0.0,0.0,0.0,0.0,0.0,0.0,0.0,0.0,0.0,0.0,0.0,0.0,0.0,0.0,0.0,0.0,0.0,0.0,0.0,0.0,0.0,0.0,0.0,0.0,0.0,0.0,0.0,0.0,0.0,0.0,0.0,0.0,0.0,0.0,0.0,0.0,0.0,0.0,0.0,0.0,0.0,0.0,0.0,0.0,0.0,0.0,0.0,0.0,0.0,0.0,0.0,0.0,0.0,0.0,0.0,0.0,0.0,-1.7578,-1.7065,-1.6789,-1.6826,-1.6199,-1.55,-1.479,0.0,0.0,0.0,0.0,0.0,0.0,0.0,0.0,0.0,0.0,0.0,0.0,0.0,0.0,0.0,0.0,0.0,0.0,0.0,0.0,0.0,0.0,0.0,0.0,0.0,0.0,0.0,0.0,0.0,0.0,0.0,0.0,0.0,0.0,0.0,0.0,0.0,0.0,0.0,0.0,0.0,0.0,0.0,0.0,0.0,0.0,0.0,0.0,0.0,0.0,0.0,0.0,0.0,0.0,0.0,0.0,0.0,0.0,0.0,0.0,0.0,0.0,0.0,0.0,0.0,0.0,0.0,0.0,0.0,0.0,0.0,0.0,0.0,0.0,0.0,0.0,0.0,0.0,0.0,0.0,0.0,0.0,0.0,0.0,0.0,0.0,0.0,0.0,0.0,0.0,0.0,0.0,0.0,0.0,0.0,0.0,0.0,0.0,0.0,0.0,0.0,0.0,0.0,0.0,0.0,0.0,0.0,0.0,-1.9625,-1.8411,-1.7739,-1.7685,-1.7107,-1.6532,0.0,0.0,0.0,0.0,0.0,0.0,0.0,0.0,0.0,0.0,0.0,0.0,0.0,0.0,0.0,0.0,0.0,0.0,0.0,0.0,0.0,0.0,0.0,0.0,0.0,0.0,0.0,0.0,0.0,0.0,0.0,0.0,0.0,0.0,0.0,0.0,0.0,0.0,0.0,0.0,0.0,0.0,0.0,0.0,0.0,0.0,0.0,0.0,0.0,0.0,0.0,0.0,0.0,0.0,0.0,0.0,0.0,0.0,0.0,0.0,0.0,0.0,0.0,0.0,0.0,0.0,0.0,0.0,0.0,0.0,0.0,0.0,0.0,0.0,0.0,0.0,0.0,0.0,0.0,0.0,0.0,0.0,0.0,0.0,0.0,0.0,0.0,0.0,0.0,0.0,0.0,0.0,0.0,0.0,0.0,0.0,0.0,0.0,0.0,0.0,0.0,0.0,0.0,0.0,0.0,0.0,0.0,0.0,0.0,-2.0025,-2.0046,-1.9582,-1.8644,-1.8353,-1.7505,0.0,0.0,0.0,0.0,0.0,0.0,0.0,0.0,0.0,0.0,0.0,0.0,0.0,0.0,0.0,0.0,0.0,0.0,0.0,0.0,0.0,0.0,0.0,0.0,0.0,0.0,0.0,0.0,0.0,0.0,0.0,0.0,0.0,0.0,0.0,0.0,0.0,0.0,0.0,0.0,0.0,0.0,0.0,0.0,0.0,0.0,0.0,0.0,0.0,0.0,0.0,0.0,0.0,0.0,0.0,0.0,0.0,0.0,0.0,0.0,0.0,0.0,0.0,0.0,0.0,0.0,0.0,0.0,0.0,0.0,0.0,0.0,0.0,0.0,0.0,0.0,0.0,0.0,0.0,0.0,0.0,0.0,0.0,0.0,0.0,0.0,0.0,0.0,0.0,0.0,0.0,0.0,0.0,0.0,0.0,0.0,0.0,0.0,0.0,0.0,0.0,0.0,0.0,0.0,0.0,0.0,0.0,0.0,-2.0757,-2.1123,-2.1459,-2.1161,-2.0138,-1.9295,-1.8255,0.0,0.0,0.0,0.0,0.0,0.0,0.0,0.0,0.0,0.0,0.0,0.0,0.0,0.0,0.0,0.0,0.0,0.0,0.0,0.0,0.0,0.0,0.0,0.0,0.0,0.0,0.0,0.0,0.0,0.0,0.0,0.0,0.0,0.0,0.0,0.0,0.0,0.0,0.0,0.0,0.0,0.0,0.0,0.0,0.0,0.0,0.0,0.0,0.0,0.0,0.0,0.0,0.0,0.0,0.0,0.0,0.0,0.0,0.0,0.0,0.0,0.0,0.0,0.0,0.0,0.0,0.0,0.0,0.0,0.0,0.0,0.0,0.0,0.0,0.0,0.0,0.0,0.0,0.0,0.0,0.0,0.0,0.0,0.0,0.0,0.0,0.0,0.0,0.0,0.0,0.0,0.0,0.0,0.0,0.0,0.0,0.0,0.0,0.0,0.0,0.0,0.0,0.0,0.0,0.0,0.0,0.0,0.0,-2.1495,-2.2369,-2.2661,-2.2472,-2.1723,-2.0101,-1.8917,0.0,0.0,0.0,0.0,0.0,0.0,0.0,0.0,0.0,0.0,0.0,0.0,0.0,0.0,0.0,0.0,0.0,0.0,0.0,0.0,0.0,0.0,0.0,0.0,0.0,0.0,0.0,0.0,0.0,0.0,0.0,0.0,0.0,0.0,0.0,0.0,0.0,0.0,0.0,0.0,0.0,0.0,0.0,0.0,0.0,0.0,0.0,0.0,0.0,0.0,0.0,0.0,0.0,0.0,0.0,0.0,0.0,0.0,0.0,0.0,0.0,0.0,0.0,0.0,0.0,0.0,0.0,0.0,0.0,0.0,0.0,0.0,0.0,0.0,0.0,0.0,0.0,0.0,0.0,0.0,0.0,0.0,0.0,0.0,0.0,0.0,0.0,0.0,0.0,0.0,0.0,0.0,0.0,0.0,0.0,0.0,0.0,0.0,0.0,0.0,0.0,0.0,0.0,0.0,0.0,0.0,0.0,0.0,-2.2231,-2.2432,-2.3115,-2.3074,-2.2208,-2.1202,-1.9987,0.0,0.0,0.0,0.0,0.0,0.0,0.0,0.0,0.0,0.0,0.0,0.0,0.0,0.0,0.0,0.0,0.0,0.0,0.0,0.0,0.0,0.0,0.0,0.0,0.0,0.0,0.0,0.0,0.0,0.0,0.0,0.0,0.0,0.0,0.0,0.0,0.0,0.0,0.0,0.0,0.0,0.0,0.0,0.0,0.0,0.0,0.0,0.0,-1.214,0.0,0.0,0.0,0.0,0.0,0.0,0.0,0.0,0.0,0.0,0.0,0.0,0.0,0.0,0.0,0.0,0.0,0.0,0.0,0.0,0.0,0.0,0.0,0.0,0.0,0.0,0.0,0.0,0.0,0.0,0.0,0.0,0.0,0.0,0.0,0.0,0.0,0.0,0.0,0.0,0.0,0.0,0.0,0.0,0.0,0.0,0.0,0.0,0.0,0.0,0.0,0.0,0.0,0.0,0.0,0.0,0.0,0.0,0.0,-2.266,-2.3028,-2.3663,-2.3636,-2.2878,-2.2107,-2.0809,0.0,0.0,0.0,0.0,0.0,0.0,0.0,0.0,0.0,0.0,0.0,0.0,0.0,0.0,0.0,0.0,0.0,0.0,0.0,0.0,0.0,0.0,0.0,0.0,0.0,0.0,0.0,0.0,0.0,0.0,0.0,0.0,0.0,0.0,0.0,0.0,0.0,0.0,0.0,0.0,0.0,0.0,0.0,0.0,0.0,0.0,0.0,0.0,0.0,0.0,0.0,0.0,0.0,0.0,0.0,0.0,0.0,0.0,0.0,0.0,0.0,0.0,0.0,0.0,0.0,0.0,0.0,0.0,0.0,0.0,0.0,0.0,0.0,0.0,0.0,0.0,0.0,0.0,0.0,0.0,0.0,0.0,0.0,0.0,0.0,0.0,0.0,0.0,0.0,0.0,0.0,0.0,0.0,0.0,0.0,0.0,0.0,0.0,0.0,0.0,0.0,0.0,0.0,0.0,0.0,0.0,0.0,-2.1943,-2.2949,-2.3672,-2.4127,-2.4103,-2.3538,-2.2757,-2.1472,-1.9549,0.0,0.0,0.0,0.0,0.0,0.0,0.0,0.0,0.0,0.0,0.0,0.0,0.0,0.0,0.0,0.0,0.0,0.0,0.0,0.0,0.0,0.0,0.0,0.0,0.0,0.0,0.0,0.0,0.0,0.0,0.0,0.0,0.0,0.0,0.0,0.0,0.0,0.0,-1.01,-1.1457,0.0,0.0,0.0,0.0,0.0,0.0,0.0,0.0,-1.4338,0.0,0.0,0.0,0.0,0.0,0.0,0.0,0.0,0.0,0.0,0.0,0.0,0.0,0.0,0.0,0.0,0.0,0.0,0.0,0.0,0.0,0.0,0.0,0.0,0.0,0.0,0.0,0.0,0.0,0.0,0.0,0.0,0.0,0.0,0.0,0.0,0.0,0.0,0.0,0.0,0.0,0.0,0.0,0.0,0.0,0.0,0.0,0.0,0.0,0.0,0.0,0.0,0.0,0.0,0.0,0.0,-2.1073,-2.235,-2.3239,-2.3701,-2.4401,-2.4375,-2.3538,-2.305,-2.2025,-2.0366,0.0,0.0,0.0,0.0,0.0,0.0,0.0,0.0,0.0,0.0,0.0,0.0,0.0,0.0,0.0,0.0,0.0,0.0,0.0,0.0,0.0,0.0,0.0,0.0,0.0,0.0,0.0,0.0,0.0,0.0,0.0,0.0,0.0,0.0,0.0,0.0,0.0,0.0,0.0,-1.285,-1.3588,0.0,0.0,0.0,0.0,0.0,0.0,0.0,0.0,-1.4917,0.0,0.0,0.0,0.0,0.0,0.0,0.0,0.0,0.0,0.0,0.0,0.0,0.0,0.0,0.0,0.0,0.0,0.0,0.0,0.0,0.0,0.0,0.0,0.0,0.0,0.0,0.0,0.0,0.0,0.0,0.0,0.0,0.0,0.0,0.0,0.0,0.0,0.0,0.0,0.0,0.0,0.0,0.0,0.0,0.0,0.0,0.0,0.0,0.0,0.0,0.0,0.0,0.0,0.0,0.0,-2.121,-2.2715,-2.3528,-2.371,-2.4467,-2.4543,-2.3849,-2.3224,-2.2252,0.0,0.0,0.0,0.0,0.0,0.0,0.0,0.0,0.0,0.0,0.0,0.0,0.0,0.0,0.0,0.0,0.0,0.0,0.0,0.0,0.0,0.0,0.0,0.0,0.0,0.0,0.0,0.0,0.0,0.0,0.0,0.0,0.0,0.0,0.0,0.0,0.0,0.0,0.0,0.0,-1.4154,-1.5068,-1.5486,0.0,0.0,0.0,0.0,0.0,0.0,-1.6448,-1.6262,0.0,0.0,0.0,0.0,0.0,0.0,0.0,0.0,0.0,0.0,0.0,0.0,0.0,0.0,0.0,0.0,0.0,0.0,0.0,0.0,0.0,0.0,0.0,0.0,0.0,0.0,0.0,0.0,0.0,0.0,0.0,0.0,0.0,0.0,0.0,0.0,0.0,0.0,0.0,0.0,0.0,0.0,0.0,0.0,0.0,0.0,0.0,0.0,0.0,0.0,0.0,0.0,0.0,0.0,0.0,-2.1337,-2.2969,-2.3777,-2.3813,-2.4515,-2.4686,-2.4282,-2.3373,-2.2334,0.0,0.0,0.0,0.0,0.0,0.0,0.0,0.0,0.0,0.0,0.0,0.0,0.0,0.0,0.0,0.0,0.0,0.0,0.0,0.0,0.0,0.0,0.0,0.0,0.0,0.0,0.0,0.0,0.0,0.0,0.0,0.0,0.0,0.0,0.0,0.0,0.0,0.0,0.0,0.0,0.0,-1.6474,-1.6847,-1.7624,0.0,0.0,0.0,0.0,-1.7984,-1.7855,0.0,0.0,0.0,0.0,0.0,0.0,0.0,0.0,0.0,0.0,0.0,0.0,0.0,0.0,0.0,0.0,0.0,0.0,0.0,0.0,0.0,0.0,0.0,0.0,0.0,0.0,0.0,0.0,0.0,0.0,0.0,0.0,0.0,0.0,0.0,0.0,0.0,0.0,0.0,0.0,0.0,0.0,0.0,0.0,0.0,0.0,0.0,0.0,0.0,0.0,0.0,0.0,0.0,0.0,0.0,0.0,-2.1807,-2.3115,-2.3858,-2.4017,-2.4583,-2.4794,-2.447,-2.3469,-2.2343,0.0,0.0,0.0,0.0,0.0,0.0,0.0,0.0,0.0,0.0,0.0,0.0,0.0,0.0,0.0,0.0,0.0,0.0,0.0,0.0,0.0,0.0,0.0,0.0,0.0,0.0,0.0,0.0,0.0,0.0,0.0,0.0,0.0,0.0,0.0,0.0,0.0,0.0,0.0,0.0,0.0,-1.742,-1.8146,-1.8807,-1.925,0.0,0.0,-1.9203,-1.9212,-1.8686,0.0,0.0,0.0,0.0,0.0,0.0,0.0,0.0,0.0,0.0,0.0,0.0,0.0,0.0,0.0,0.0,0.0,0.0,0.0,0.0,0.0,0.0,0.0,0.0,0.0,0.0,0.0,0.0,0.0,0.0,0.0,0.0,0.0,0.0,0.0,0.0,0.0,0.0,0.0,0.0,0.0,0.0,0.0,0.0,0.0,0.0,0.0,0.0,0.0,0.0,0.0,0.0,0.0,0.0,0.0,-2.085,-2.1936,-2.3379,-2.4091,-2.4007,-2.4592,-2.4784,-2.448,-2.3459,-2.2334,0.0,0.0,0.0,0.0,0.0,0.0,0.0,0.0,0.0,0.0,0.0,0.0,0.0,0.0,0.0,0.0,0.0,0.0,0.0,0.0,0.0,0.0,0.0,0.0,0.0,0.0,0.0,0.0,0.0,0.0,0.0,0.0,0.0,0.0,0.0,0.0,0.0,0.0,0.0,0.0,0.0,0.0,-1.982,-2.0547,0.0,0.0,0.0,-2.0777,-2.0657,0.0,0.0,0.0,0.0,0.0,0.0,0.0,0.0,0.0,0.0,0.0,0.0,0.0,0.0,0.0,0.0,0.0,0.0,0.0,0.0,0.0,0.0,0.0,0.0,0.0,0.0,0.0,0.0,0.0,0.0,0.0,0.0,0.0,0.0,0.0,0.0,0.0,0.0,0.0,0.0,0.0,0.0,0.0,0.0,0.0,0.0,0.0,0.0,0.0,0.0,0.0,0.0,0.0,0.0,0.0,0.0,0.0,-2.2124,-2.3658,-2.438,-2.4311,-2.4698,-2.4833,-2.4569,-2.3516,0.0,0.0,0.0,0.0,0.0,0.0,0.0,0.0,0.0,0.0,0.0,0.0,0.0,0.0,0.0,0.0,0.0,0.0,0.0,0.0,0.0,0.0,0.0,0.0,0.0,0.0,0.0,-0.7695,0.0,0.0,0.0,0.0,0.0,0.0,0.0,0.0,0.0,0.0,0.0,0.0,0.0,0.0,-2.0722,-2.1311,-2.2109,-2.2627,0.0,0.0,-2.2463,-2.2146,-2.1787,-2.1212,0.0,0.0,0.0,0.0,0.0,0.0,0.0,0.0,0.0,0.0,0.0,0.0,0.0,0.0,0.0,0.0,0.0,0.0,0.0,0.0,0.0,0.0,0.0,0.0,0.0,0.0,0.0,0.0,0.0,0.0,0.0,0.0,0.0,0.0,0.0,0.0,0.0,0.0,0.0,0.0,0.0,0.0,0.0,0.0,0.0,0.0,0.0,0.0,0.0,0.0,0.0,0.0,0.0,0.0,0.0,-2.2705,-2.384,-2.4609,-2.5019,-2.4947,-2.4892,-2.4824,-2.3603,-2.2334,0.0,0.0,0.0,0.0,0.0,0.0,0.0,0.0,0.0,0.0,0.0,0.0,0.0,0.0,0.0,0.0,0.0,0.0,0.0,0.0,0.0,0.0,0.0,0.0,0.0,0.0,0.0,0.0,0.0,0.0,0.0,0.0,0.0,0.0,0.0,0.0,0.0,0.0,0.0,0.0,0.0,-2.1477,-2.2382,-2.3217,-2.377,0.0,0.0,-2.4179,-2.3474,-2.2896,-2.2243,-2.1486,0.0,0.0,0.0,0.0,0.0,0.0,0.0,0.0,0.0,0.0,0.0,0.0,0.0,0.0,0.0,0.0,0.0,0.0,0.0,0.0,0.0,0.0,0.0,0.0,0.0,0.0,0.0,0.0,0.0,0.0,0.0,0.0,0.0,0.0,0.0,0.0,0.0,0.0,0.0,0.0,0.0,0.0,0.0,0.0,0.0,0.0,0.0,0.0,0.0,0.0,0.0,0.0,0.0,-2.201,-2.3018,-2.4083,-2.4871,-2.5305,-2.5208,-2.5088,-2.4932,-2.3737,-2.2547,0.0,0.0,0.0,0.0,0.0,0.0,0.0,0.0,0.0,0.0,0.0,0.0,0.0,0.0,0.0,0.0,0.0,0.0,0.0,0.0,0.0,0.0,0.0,0.0,0.0,0.0,0.0,0.0,-1.0407,-1.1085,-1.1677,0.0,0.0,0.0,0.0,0.0,0.0,0.0,0.0,0.0,0.0,-2.3484,-2.3971,-2.4928,0.0,0.0,-2.5389,-2.5261,-2.483,-2.4302,-2.3713,-2.3071,-2.252,0.0,0.0,0.0,0.0,0.0,0.0,0.0,0.0,0.0,0.0,0.0,0.0,0.0,0.0,0.0,0.0,0.0,0.0,0.0,0.0,0.0,0.0,0.0,0.0,0.0,0.0,0.0,0.0,0.0,0.0,0.0,0.0,0.0,0.0,0.0,0.0,0.0,0.0,0.0,0.0,0.0,0.0,0.0,0.0,0.0,0.0,0.0,0.0,0.0,0.0,0.0,0.0,-2.2646,-2.3793,-2.4456,-2.5079,-2.5635,-2.5421,-2.5186,-2.4854,-2.387,-2.2788,0.0,0.0,0.0,0.0,0.0,0.0,0.0,0.0,0.0,0.0,0.0,0.0,0.0,0.0,0.0,0.0,0.0,0.0,0.0,0.0,0.0,0.0,0.0,0.0,0.0,0.0,0.0,0.0,-1.1608,-1.2486,-1.3215,0.0,0.0,0.0,0.0,0.0,0.0,0.0,0.0,0.0,0.0,-2.488,-2.5378,-2.64,-2.7051,-2.6858,-2.685,-2.6698,-2.6362,-2.5801,-2.5235,-2.4588,0.0,0.0,0.0,0.0,0.0,0.0,0.0,0.0,0.0,0.0,0.0,0.0,0.0,0.0,0.0,0.0,0.0,0.0,0.0,0.0,0.0,0.0,0.0,0.0,0.0,0.0,0.0,0.0,0.0,0.0,-2.1368,0.0,0.0,0.0,0.0,0.0,0.0,0.0,0.0,0.0,0.0,0.0,0.0,0.0,0.0,0.0,0.0,0.0,0.0,0.0,0.0,0.0,0.0,-2.335,-2.5127,-2.4937,-2.5265,-2.6051,-2.5567,-2.5205,-2.4883,-2.388,-2.2871,-2.1979,0.0,0.0,0.0,0.0,0.0,0.0,0.0,0.0,0.0,0.0,0.0,0.0,0.0,0.0,0.0,0.0,0.0,0.0,0.0,0.0,0.0,0.0,0.0,0.0,0.0,0.0,-1.2053,-1.3075,-1.3943,0.0,0.0,0.0,0.0,0.0,0.0,0.0,0.0,0.0,0.0,-2.4483,-2.5347,-2.6487,-2.7459,-2.8092,-2.8092,-2.8538,-2.8655,-2.8042,-2.7318,-2.6649,0.0,0.0,0.0,0.0,0.0,0.0,0.0,0.0,0.0,0.0,0.0,0.0,0.0,0.0,0.0,0.0,0.0,0.0,0.0,0.0,0.0,0.0,0.0,0.0,0.0,0.0,0.0,-2.4829,-2.4746,0.0,0.0,0.0,0.0,0.0,0.0,0.0,0.0,0.0,0.0,0.0,-2.6722,-2.6734,0.0,0.0,0.0,0.0,0.0,0.0,0.0,0.0,0.0,0.0,0.0,0.0,-2.4714,-2.5411,-2.5832,-2.6269,-2.6742,-2.6488,-2.5994,-2.5398,-2.4769,-2.3429,-2.1265,0.0,0.0,0.0,0.0,0.0,0.0,0.0,0.0,0.0,0.0,0.0,0.0,0.0,0.0,0.0,0.0,0.0,0.0,0.0,0.0,0.0,0.0,0.0,0.0,0.0,-1.2912,0.0,0.0,0.0,0.0,0.0,0.0,0.0,0.0,0.0,0.0,0.0,-2.3535,-2.4462,-2.6101,-2.7372,-2.775,-2.8787,-2.9429,0.0,0.0,0.0,0.0,0.0,0.0,0.0,0.0,0.0,0.0,0.0,0.0,0.0,0.0,-2.4549,-2.3112,-2.2935,-2.307,-2.3226,0.0,0.0,0.0,0.0,0.0,0.0,0.0,0.0,0.0,0.0,0.0,0.0,0.0,0.0,0.0,0.0,-2.6129,0.0,0.0,0.0,0.0,0.0,0.0,0.0,0.0,-2.7632,-2.8099,-2.8834,-2.9011,-2.9041,0.0,-2.8679,-2.7342,0.0,0.0,0.0,0.0,0.0,0.0,0.0,0.0,-2.5744,-2.6169,-2.6608,-2.6931,-2.711,-2.7053,-2.6554,-2.5607,-2.4737,-2.3261,-2.1075,-1.974,-1.8452,0.0,0.0,0.0,0.0,0.0,0.0,0.0,0.0,0.0,0.0,0.0,0.0,0.0,0.0,0.0,0.0,0.0,0.0,0.0,0.0,0.0,0.0,0.0,-1.4593,0.0,0.0,0.0,0.0,0.0,0.0,0.0,0.0,0.0,-2.2297,-2.3712,-2.509,-2.5929,-2.7519,-2.8744,-2.9011,0.0,0.0,0.0,0.0,0.0,0.0,0.0,-2.8674,-2.8583,-2.8074,-2.7689,-2.7689,-2.7484,-2.728,-2.728,0.0,0.0,-2.5244,-2.5025,-2.5159,-2.5382,-2.5571,-2.5748,-2.6047,-2.6365,-2.6595,0.0,0.0,0.0,0.0,0.0,0.0,0.0,0.0,-2.9854,-2.9438,0.0,-2.8482,0.0,0.0,0.0,0.0,0.0,-2.8582,0.0,0.0,-2.9917,-3.0361,-3.0684,-3.116,-3.1252,-3.1038,-3.0555,-3.0005,-2.944,-2.7434,0.0,0.0,0.0,0.0,0.0,0.0,-2.6411,-2.726,-2.7359,-2.728,-2.72,-2.7362,-2.6857,-2.5626,-2.391,-2.2463,-2.1428,-2.0307,-1.9344,-1.8696,-1.6944,0.0,0.0,0.0,0.0,0.0,0.0,0.0,0.0,0.0,0.0,0.0,0.0,0.0,0.0,0.0,0.0,0.0,0.0,0.0,0.0,-1.5569,0.0,0.0,0.0,0.0,0.0,0.0,0.0,0.0,0.0,0.0,-2.3864,-2.5295,-2.6771,-2.7938,0.0,0.0,0.0,0.0,-3.0974,-3.0985,-3.1113,-3.117,-3.087,-3.022,-2.968,-2.9435,0.0,0.0,-2.8721,-2.8711,-2.8721,-2.8711,-2.8702,-2.8371,-2.7273,-2.717,-2.7357,-2.7615,-2.7641,-2.7862,-2.8286,-2.8341,-2.8456,-3.9505,0.0,0.0,0.0,0.0,-3.3377,-3.297,-3.2723,-3.2139,-3.172,-3.1429,-3.0722,0.0,0.0,0.0,0.0,0.0,0.0,-3.106,-3.1589,-3.1733,-3.2049,-3.2508,-3.2663,-3.2678,-3.262,-3.2281,-3.1879,-3.1335,-3.0587,-2.9056,-2.691,0.0,0.0,0.0,0.0,-2.8054,-2.7849,-2.847,-2.859,-2.8096,-2.8175,-2.7503,-2.6053,-2.4251,-2.294,-2.208,-2.1264,-2.0274,-1.8958,-1.7763,0.0,0.0,0.0,0.0,0.0,0.0,0.0,0.0,0.0,0.0,0.0,0.0,0.0,0.0,0.0,0.0,0.0,0.0,0.0,-1.6386,-1.7908,-1.8934,0.0,0.0,0.0,0.0,0.0,0.0,0.0,0.0,0.0,-2.6961,-2.7319,-2.7885,0.0,0.0,-3.095,-3.1153,-3.1924,-3.2501,-3.249,0.0,0.0,0.0,-3.1443,-3.1092,-3.0835,-3.0677,-3.0584,-3.0594,-3.0584,-3.0584,-3.0574,-3.0584,-3.0491,-3.0148,-2.9043,-2.8396,-2.8558,-2.8764,-2.9019,-2.93,-2.9542,-2.972,-4.2477,-4.0368,-3.8206,-3.6997,-3.6441,-3.5726,-3.529,-3.5014,-3.4476,-3.404,-3.3642,-3.2955,-3.2208,-3.1336,-3.1144,0.0,0.0,0.0,-3.2791,-3.3128,-3.3537,-3.3897,-3.4222,-3.4426,-3.4523,-3.4511,-3.4138,-3.372,-3.3159,-3.2629,-3.1454,-2.9577,0.0,0.0,-2.8488,-2.9157,-2.9186,-2.8604,-2.9306,-2.9285,-2.853,-2.8073,-2.7286,-2.6214,-2.4625,-2.34,-2.2556,-2.1889,-2.0909,-1.9648,-1.8683,-1.7825,0.0,0.0,0.0,0.0,0.0,0.0,0.0,0.0,0.0,0.0,0.0,-1.3457,0.0,0.0,0.0,0.0,-1.6735,-1.7684,-1.8577,-1.9885,0.0,0.0,0.0,0.0,0.0,0.0,0.0,-2.6506,-2.7484,-2.8413,-2.9423,-2.9476,-2.9582,-2.9925,-3.1156,-3.1978,-3.1989,0.0,-3.2739,-3.2739,-3.2588,-3.2437,-3.221,-3.2048,-3.1895,-3.1753,-3.1655,-3.1535,-3.1589,-3.148,-3.1381,-3.1381,-3.1381,-3.1381,-3.1381,-3.045,-2.9808,-3.0056,-3.0211,-3.0468,-3.0815,-3.1019,-3.1182,-4.4523,-4.4032,-4.1489,-3.9836,-3.8791,-3.8017,-3.7526,-3.7266,-3.6796,-3.6248,-3.5706,-3.5227,-3.443,-3.3452,-3.2959,0.0,-3.3489,-3.3994,-3.4174,-3.4222,-3.5232,-3.5677,-3.5701,-3.617,-3.6411,-3.6386,-3.5905,-3.5425,-3.4895,-3.3967,-3.3242,-3.2712,-3.1541,-3.0686,-3.027,-3.0326,-3.0046,-2.9466,-2.9884,-2.9608,-2.8538,-2.7414,-2.6617,-2.6182,-2.4954,-2.3822,-2.2977,-2.2245,-2.1456,-2.0649,-1.9679,-1.8927,-1.835,0.0,0.0,0.0,0.0,0.0,0.0,0.0,0.0,0.0,0.0,0.0,0.0,0.0,0.0,0.0,-1.9159,0.0,-2.0744,-2.1624,0.0,0.0,0.0,-2.4376,-2.5896,-2.632,-2.6991,-2.8383,0.0,0.0,-3.12,0.0,-3.1571,-3.1426,-3.2104,-3.262,-3.262,-3.2458,-3.2317,-3.238,-3.2349,-3.2327,-3.2358,-3.2293,-3.2368,-3.2379,-3.2131,-3.1955,-3.191,-3.1746,-3.156,-3.1536,-3.1485,-3.1516,-3.1495,-3.1474,-3.1594,-3.1751,-3.1787,-3.1886,-3.2276,-3.2405,-3.2501,-4.5377,-4.4406,-4.3125,-4.2113,-4.1205,-4.0412,-3.9687,-3.9069,-3.8514,-3.7742,-3.6837,-3.6665,-3.6051,-3.5064,-3.4931,-3.4956,-3.5076,-3.5605,-3.5845,-3.5857,-3.6098,-3.6218,-3.6218,-3.635,-3.6411,-3.6398,-3.6278,-3.6158,-3.5987,-3.5592,-3.5171,-3.4839,-3.4101,-3.2723,-3.0911,-3.1166,-3.0872,-2.9955,-3.0208,-2.9776,-2.8675,-2.7463,-2.6617,-2.6182,-2.5182,-2.4244,-2.3389,-2.3074,-2.2565,-2.1748,-2.1048,-2.0348,-1.9588,-1.909,0.0,0.0,0.0,0.0,0.0,0.0,0.0,0.0,0.0,-1.6761,-1.7391,0.0,-1.9003,0.0,-2.1035,-2.2237,-2.2349,-2.3607,0.0,0.0,-2.5602,-2.6274,-2.7314,-2.7797,-2.8458,-2.9486,-3.0255,-3.0979,-3.1613,-3.2187,-3.2551,-3.2553,-3.2659,-3.2852,-3.2863,-3.3072,-3.3239,-3.3218,-3.3207,-3.3183,-3.2983,-3.2969,-3.2994,-3.3239,-3.3015,-3.2857,-3.2857,-3.2575,-3.2416,-3.2406,-3.2416,-3.2416,-3.2385,-3.2406,-3.2395,-3.241,-3.2135,-3.1906,-3.221,-3.2318,-3.2329,-4.6637,-4.5752,-4.4785,-4.4098,-4.3544,-4.2125,-4.1171,-4.0581,-4.0013,-3.937,-3.8656,-3.7907,-3.6955,-3.5978,-3.5966,-3.5966,-3.6014,-3.6507,-3.6759,-3.6759,-3.7,-3.7108,-3.7108,-3.7108,-3.7108,-3.7108,-3.7108,-3.6948,-3.6578,-3.6307,-3.593,-3.5397,-3.4826,-3.3787,-3.2342,-3.2301,-3.188,-3.1051,-3.0411,-2.9662,-2.8737,-2.7801,-2.7103,-2.6674,-2.5853,-2.5051,-2.4182,-2.3859,-2.328,-2.233,-2.1953,-2.1455,-2.0709,-2.0379,-2.0053,0.0,0.0,0.0,0.0,0.0,0.0,0.0,0.0,0.0,0.0,0.0,-2.1215,-2.1783,-2.3115,-2.403,-2.4215,-2.5199,-2.6082,-2.6724,-2.72,-2.7831,-2.8742,-2.9351,-3.0005,-3.0724,-3.143,-3.2025,-3.2289,-3.2723,-3.3018,-3.3018,-3.2917,-3.285,-3.304,-3.3149,-3.3172,-3.3182,-3.3182,-3.3239,-3.3193,-3.3306,-3.3409,-3.3579,-3.3353,-3.3193,-3.3193,-3.2898,-3.2669,-3.2669,-3.2669,-3.2669,-3.2669,-3.2612,-3.2545,-3.2483,-3.2153,-3.2048,-3.2517,-3.2617,-3.2683,-4.7765,-4.7065,-4.6009,-4.5578,-4.5405,-4.3319,-4.22,-4.1793,-4.1255,-4.0797,-4.036,-3.888,-3.7685,-3.6819,-3.6747,-3.6711,-3.6735,-3.712,-3.7288,-3.7324,-3.7769,-3.7974,-3.7974,-3.7974,-3.7974,-3.7974,-3.7974,-3.7599,-3.6877,-3.659,-3.6116,-3.5318,-3.4758,-3.4283,-3.3975,-3.3375,-3.2717,-3.2037,-3.0516,-2.9409,-2.872,-2.8203,-2.7714,-2.7299,-2.6555,-2.5863,-2.5114,-2.463,-2.388,-2.2872,-2.2783,-2.2514,-2.1878,-2.1689,-2.1678,0.0,-2.1658,0.0,0.0,0.0,0.0,0.0,0.0,0.0,0.0,-2.224,-2.3439,-2.4436,-2.5132,-2.573,-2.6103,-2.661,-2.7262,-2.809,-2.8597,-2.9218,-3.0067,-3.0777,-3.1376,-3.1774,-3.2498,-3.2926,-3.2902,-3.3124,-3.3257,-3.3153,-3.2944,-3.2845,-3.2991,-3.2882,-3.2727,-3.2669,-3.2669,-3.2841,-3.3136,-3.3409,-3.3523,-3.3579,-3.3437,-3.3266,-3.3298,-3.3132,-3.2866,-3.2876,-3.2849,-3.2829,-3.2788,-3.2567,-3.2452,-3.2483,-3.216,-3.2106,-3.2675,-3.2871,-3.3069,-4.7105,-4.6477,-4.5809,-4.5386,-4.5094,-4.3991,-4.3113,-4.2388,-4.1776,-4.1034,-4.0056,-3.9545,-3.9188,-3.8972,-3.8551,-3.8371,-3.8346,-3.7998,-3.7829,-3.7841,-3.7938,-3.7974,-3.7974,-3.7974,-3.7974,-3.7974,-3.7974,-3.7844,-3.7453,-3.7121,-3.6675,-3.6098,-3.5514,-3.4912,-3.4361,0.0,0.0,0.0,-3.0037,-2.9288,-2.8853,-2.8242,-2.7704,-2.729,-2.6607,0.0,-2.5503,-2.4927,-2.4517,-2.4314,-2.4339,0.0,0.0,0.0,0.0,0.0,0.0,0.0,0.0,0.0,0.0,0.0,-2.4452,-2.4255,-2.3104,-2.4366,-2.5496,-2.6098,-2.6884,-2.7448,-2.7531,-2.8297,-2.9011,-2.9539,-3.0015,-3.0522,-3.106,-3.156,-3.1871,-3.1965,-3.2727,-3.3167,-3.2957,-3.323,-3.3438,-3.317,-3.3043,-3.2881,-3.2585,-3.2676,-3.269,-3.2669,-3.2669,-3.2851,-3.3136,-3.325,-3.3363,-3.3554,-3.368,-3.3639,-3.367,-3.3741,-3.3734,-3.3487,-3.3448,-3.3309,-3.3082,-3.2983,-3.2863,-3.2903,-3.2552,-3.2268,-3.2099,-3.2086,-3.2086,-4.7385,0.0,-4.6007,-4.557,0.0,-4.4339,-4.3524,-4.2694,-4.2003,-4.1125,-4.0205,-4.005,-3.9862,-3.9597,-3.932,-3.9212,-3.9188,-3.8647,-3.8383,-3.8383,-3.8106,-3.7974,-3.7974,-3.7974,-3.7974,-3.7974,-3.7892,-3.7625,-3.737,-3.7036,-3.6592,-3.6059,-3.5478,-3.498,-3.4468,-3.3445,-3.2297,-3.1015,-3.0358,-2.9652,-2.8935,-2.8548,-2.8237,-2.7767,0.0,0.0,0.0,0.0,0.0,0.0,0.0,0.0,0.0,0.0,0.0,-2.4402,-2.46,-2.4687,-2.4697,-2.5197,-2.5544,-2.5554,-2.6382,-2.6553,-2.5725,-2.6403,-2.7179,-2.7852,-2.8349,-2.8804,-2.9259,-2.9715,-3.017,-3.0636,-3.1081,-3.1481,-3.1768,-3.2153,-3.2502,-3.2564,-3.2962,-3.3189,-3.3001,-3.3183,-3.3275,-3.3165,-3.3105,-3.3035,-3.2783,-3.2626,-3.2523,-3.2539,-3.2612,-3.2727,-3.2908,-3.2965,-3.3106,-3.3408,-3.3581,-3.3636,-3.3668,-3.3778,-3.3774,-3.3405,-3.3345,-3.3285,-3.3115,-3.2864,-3.2633,-3.2543,-3.2154,-3.168,-3.1269,-3.1366,-3.1614,-4.7586,-4.6989,-4.6201,-4.5741,-4.542,-4.4563,-4.3604,-4.2699,0.0,0.0,0.0,-4.0535,-4.0294,-3.9898,-3.9789,-3.9753,-3.9705,-3.92,-3.8912,-3.8791,-3.8346,-3.8082,-3.7974,-3.7974,-3.7974,-3.7986,-3.7732,-3.7435,-3.7078,-3.6808,-3.632,-3.5742,-3.5146,-3.4702,-3.4188,-3.2856,-3.1825,-3.1254,-3.0834,-3.0069,-2.9062,-2.8955,-2.8721,-2.8364,-2.7986,-2.7594,-2.7282,-2.7042,-2.6625,-2.5996,-2.6137,-2.6061,-2.5754,-2.5869,-2.5921,-2.5911,-2.6018,-2.611,-2.611,-2.6532,-2.6861,-2.7016,-2.7706,-2.8146,-2.8134,-2.8245,-2.8638,-2.9477,-2.957,-2.9879,-3.0665,-3.0766,-3.0949,-3.1392,-3.1845,-3.2117,-3.2336,-3.2682,-3.2969,-3.3095,-3.3075,-3.3105,-3.3035,-3.3074,-3.3033,-3.2983,-3.2921,-3.2933,-3.2874,-3.2575,-3.2408,-3.2357,-3.2523,-3.2612,-3.2612,-3.268,-3.2845,-3.3207,-3.3372,-3.3492,-3.3575,-3.3708,-3.3568,-3.3286,-3.3165,-3.3134,-3.2993,-3.2544,-3.2189,-3.2189,-3.1702,-3.1129,-3.0821,-3.0903,-3.1093,-4.6793,-4.6421,-4.5972,-4.5645,-4.5232,-4.4365,-4.3273,-4.2105,-4.1792,-4.1399,-4.1076,-4.1064,-4.104,-4.0944,-4.0487,-4.0282,-4.0246,-3.9741,-3.9248,0.0,-3.8731,-3.8443,-3.7986,-3.7974,-3.7974,-3.7986,-3.7744,-3.7423,-3.7078,-3.6592,-3.6059,-3.5478,-3.4858,-3.4188,-3.3353,-3.2363,-3.1815,-3.1687,-3.0734,-3.0027,-2.9482,-2.9111,-2.8829,-2.8631,-2.8249,-2.8137,-2.8284,-2.7914,-2.7693,-2.7573,-2.7782,-2.783,-2.7759,-2.7403,-2.7219,-2.7229,-2.7063,-2.6907,-2.6966,-2.738,-2.7965,-2.8682,-2.8884,-2.9011,-2.9115,-2.9477,-2.9932,-3.045,-3.0576,-3.07,-3.0874,-3.1,-3.1283,-3.1728,-3.2105,-3.248,-3.2844,-3.2964,-3.3055,-3.3045,-3.3133,-3.3055,-3.2838,-3.2844,-3.2787,-3.2593,-3.2613,-3.2405,-3.2243,-3.2243,-3.2412,-3.2359,-3.2367,-3.2346,-3.2424,-3.2565,-3.2782,-3.2957,-3.3297,-3.3535,-3.3669,-3.392,-3.3925,-3.3464,-3.3279,-3.3111,-3.2627,-3.2432,-3.2292,-3.2254,-3.1857,-3.1558,-3.1355,-3.0832,-3.0238,-4.6313,-4.5999,-4.5635,-4.5331,-4.4988,-4.4111,-4.3264,-4.2434,-4.2009,-4.161,-4.1196,-4.1184,-4.1184,-4.116,-4.0932,-4.0824,-4.08,-4.027,-3.9898,-3.9645,-3.908,-3.8683,-3.8419,-3.8118,-3.7945,-3.7785,-3.7465,-3.7185,-3.6862,-3.632,-3.5852,-3.5368,-3.4468,-3.3625,-3.2955,-3.2373,-3.2076,-3.2076,-3.1232,-3.059,-3.0224,-2.9891,-2.962,-2.9299,-2.885,-2.8563,-2.8488,-2.8461,-2.833,-2.8066,-2.8167,-2.8217,-2.8207,-2.7873,-2.7662,-2.7672,-2.7552,-2.7462,-2.7462,-2.8095,-2.8858,-2.9691,-2.9792,-2.993,-3.0231,-3.0245,-3.0418,-3.0866,-3.0979,-3.1238,-3.1627,-3.1765,-3.2019,-3.2451,-3.2505,-3.2615,-3.281,-3.2735,-3.264,-3.2679,-3.2758,-3.2686,-3.257,-3.2606,-3.2603,-3.2422,-3.2422,-3.2273,-3.2093,-3.2061,-3.21,-3.2245,-3.2504,-3.2577,-3.2423,-3.2441,-3.2692,-3.296,-3.3193,-3.3387,-3.3518,-3.376,-3.3515,-3.3048,-3.2858,-3.2731,-3.2422,-3.2093,-3.1901,-3.1818,-3.1405,-3.1075,-3.0664,-2.9972,-2.9437,-4.5999,-4.5635,-4.5331,-4.5025,-4.4619,-4.3951,-4.3409,-4.2952,-4.2434,-4.1916,-4.1389,-4.1244,-4.1184,-4.1184,-4.1184,-4.1184,-4.1124,-4.0763,-4.0511,-4.0319,-3.9561,-3.9044,-3.8791,-3.8305,-3.7905,-3.7608,-3.7197,-3.6874,-3.6538,-3.6016,-3.5467,-3.4969,-3.4065,-3.3285,-3.2669,-3.243,-3.2315,-3.2258,-3.1797,-3.1299,-3.0804,-3.069,-3.0464,-3.0065,-2.9621,-2.9227,-2.9019,-2.9063,-2.8942,-2.8533,-2.8523,-2.8482,-2.8432,-2.8167,-2.7963,-2.7911,-2.795,-2.7946,-2.8024,-2.8618,-2.9342,-3.0076,-3.0155,-3.0333,-3.072,-3.0601,-3.0694,-3.1184,-3.1264,-3.1469,-3.1968,-3.2088,-3.2286,-3.2712,-3.259,-3.2461,-3.2593,-3.2349,-3.2159,-3.2228,-3.2166,-3.2083,-3.2038,-3.1974,-3.191,-3.1846,-3.1974,-3.1974,-3.2001,-3.1811,-3.1806,-3.2088,-3.2529,-3.2665,-3.2395,-3.2404,-3.2595,-3.2995,-3.2964,-3.2954,-3.3121,-3.3165,-3.2921,-3.2358,-3.2166,-3.2038,-3.1974,-3.1515,-3.1193,-3.1129,-3.0788,-3.033,-2.9805,-2.9333,-2.8841,-4.5635,-4.5331,-4.4963,-4.4656,-4.4347,-4.4275,-4.3926,-4.3385,-4.2904,-4.2446,-4.1846,-4.1389,-4.1184,-4.1184,-4.1184,-4.1184,-4.1184,-4.1136,-4.086,-4.0439,-4.0306,-3.9741,-3.8869,-3.8496,-3.8113,-3.7613,-3.7036,-3.6603,-3.6332,-3.573,-3.4858,-3.3907,-3.3625,-3.3296,-3.2727,-3.243,-3.2315,-3.2315,-3.2258,-3.1862,-3.1087,-3.1083,-3.0954,-3.0785,-3.0336,-3.0199,-3.0415,-3.0097,-2.9755,-2.9484,-2.9431,-2.9326,-2.9001,-2.8757,-2.8502,-2.83,-2.8373,-2.8432,-2.8509,-2.8576,-2.887,-2.9365,-2.9441,-2.9612,-3.0003,-3.0336,-3.0894,-3.1486,-3.1564,-3.1522,-3.1658,-3.1421,-3.1541,-3.1994,-3.1927,-3.2036,-3.2232,-3.2155,-3.1963,-3.1927,-3.1451,-3.1064,-3.1073,-3.0944,-3.0694,-3.0824,-3.0824,-3.0888,-3.1138,-3.1277,-3.146,-3.1821,-3.2076,-3.2156,-3.216,-3.2392,-3.255,-3.2669,-3.2458,-3.2421,-3.2441,-3.2476,-3.2284,-3.1644,-3.1515,-3.1331,-3.0888,-3.0499,-3.0555,-3.0555,-3.0381,-3.0157,-2.9492,-2.911,-2.8968,-4.5331,-4.4963,-4.4656,-4.4409,-4.4285,-4.4285,-4.3973,-4.3481,-4.2988,-4.2518,-4.1942,-4.1413,-4.1184,-4.1184,-4.1184,-4.1184,-4.1184,-4.1184,-4.1076,-4.0836,-4.0559,-4.0162,-3.9686,-3.8807,-3.8195,-3.7753,-3.7068,-3.6483,-3.595,-3.5246,-3.4412,-3.3681,-3.3466,-3.3126,-3.2727,-3.2612,-3.2545,-3.2555,-3.2555,-3.2338,-3.2039,-3.1774,-3.1615,-3.1501,-3.1145,-3.0972,-3.1071,-3.0722,-3.0335,-2.9993,-2.9874,-2.9579,-2.8996,-2.8961,-2.8778,-2.8521,-2.8498,-2.8671,-2.8975,-2.9003,-2.9115,-2.9336,-2.9599,-2.9695,-2.9665,-3.0055,-3.0441,-3.0822,-3.1119,-3.1411,-3.1608,-3.1417,-3.139,-3.1682,-3.1522,-3.135,-3.1488,-3.1202,-3.1,-3.1,-3.075,-3.062,-3.0564,-3.0508,-3.0378,-3.0378,-3.0378,-3.0443,-3.0629,-3.0759,-3.0815,-3.1037,-3.1402,-3.1762,-3.1918,-3.2046,-3.2132,-3.2114,-3.2047,-3.2011,-3.1843,-3.1827,-3.158,-3.0944,-3.0879,-3.075,-3.0573,-3.0165,-3.0018,-3.0026,-2.9796,-2.9539,-2.8728,-2.8635,-2.8429,-4.5257,-4.4779,-4.4458,-4.4285,-4.4285,-4.4285,-4.4057,-4.3673,-4.3048,-4.2602,-4.2134,-4.1485,-4.1184,-4.1184,-4.1184,-4.1184,-4.1184,-4.1184,-4.1184,-4.1136,-4.0787,-4.0466,-4.0194,-3.9245,-3.8367,-3.7786,-3.7052,-3.6317,-3.5544,-3.4802,-3.4132,-3.3636,-3.3353,-3.3012,-3.2727,-3.2669,-3.2669,-3.2669,-3.2669,-3.2669,-3.2618,-3.2339,-3.2163,-3.2142,-3.1785,-3.1557,-3.1447,-3.1072,-3.0628,-3.0031,-2.9903,-2.9545,-2.8865,-2.8903,-2.8842,-2.8549,-2.8339,-2.8468,-2.8925,-2.8963,-2.9013,-2.9214,-2.9485,-2.9565,-2.9519,-2.9794,-3.0013,-3.0122,-3.0616,-3.1058,-3.1344,-3.1209,-3.1212,-3.1405,-3.1,-3.0759,-3.075,-3.0361,-3.0109,-3.0109,-2.9913,-2.9848,-2.9848,-2.9857,-2.9848,-2.9913,-2.9979,-3.0174,-3.023,-3.023,-3.0296,-3.0369,-3.087,-3.1258,-3.1591,-3.1725,-3.1661,-3.1598,-3.1563,-3.1284,-3.1148,-3.1111,-3.0991,-3.0417,-3.0296,-3.0165,-2.9979,-2.9765,-2.9683,-2.9626,-2.9469,-2.9176,-2.8664,-2.8323,-2.8054,-4.5588,-4.4803,-4.4409,-4.4285,-4.4285,-4.4285,-4.4273,-4.4117,-4.3228,-4.2807,-4.2614,-4.1665,-4.1196,-4.1184,-4.1184,-4.1184,-4.1184,-4.1184,-4.1184,-4.1184,-4.1136,-4.0688,-3.9914,-3.9571,-3.8794,-3.7664,-3.6956,-3.606,-3.5069,-3.4423,-3.3974,-3.3568,-3.3306,-3.3022,-3.2727,-3.2669,-3.2669,-3.2669,-3.2669,-3.2669,-3.2669,-3.2638,-3.2607,-3.2566,-3.2194,-3.1834,-3.1625,-3.1125,-3.0495,-2.9577,-2.958,-2.9234,-2.8719,-2.8644,-2.851,-2.8287,-2.7836,-2.7703,-2.8024,-2.8164,-2.8273,-2.8568,-2.8719,-2.88,-2.9012,-2.9446,-2.9685,-2.9784,-3.0068,-3.0384,-3.0419,-3.0393,-3.0428,-3.0417,-3.0434,-3.0304,-3.0378,-2.9709,-2.9373,-2.9307,-2.8922,-2.8659,-2.8527,-2.8667,-2.8939,-2.907,-2.9193,-2.9513,-2.9765,-2.9822,-2.9961,-3.0239,-3.0434,-3.0676,-3.1221,-3.1332,-3.135,-3.1277,-3.0928,-3.0502,-3.0473,-3.0369,-3.0157,-3.0018,-2.9887,-2.97,-2.9447,-2.9382,-2.9373,-2.9373,-2.9373,-2.9076,-2.8691,-2.84,-2.8069,-4.5252,-4.447,-4.4347,-4.4285,-4.4285,-4.4285,-4.4285,-4.4213,-4.3577,-4.3048,-4.2735,-4.2049,-4.1509,-4.1184,-4.1184,-4.1184,-4.1184,-4.1184,-4.1184,-4.1184,-4.1012,-4.0731,-4.0368,-3.9578,-3.8849,-3.8079,-3.7064,-3.5949,-3.4746,-3.4086,-3.3636,-3.3363,-3.3022,-3.2784,-3.2727,-3.2669,-3.2669,-3.2669,-3.2669,-3.2669,-3.2669,-3.2669,-3.2612,-3.2477,-3.2276,-3.2127,-3.206,-3.1318,-3.0596,-2.9971,-2.9824,-2.9344,-2.8503,-2.8281,-2.8179,-2.8086,-2.7875,-2.7878,-2.796,-2.8017,-2.8018,-2.7991,-2.8209,-2.8302,-2.8298,-2.8612,-2.8841,-2.8867,-2.8952,-2.9053,-2.9119,-2.9447,-2.9635,-2.9364,-2.9176,-2.9119,-2.8988,-2.879,-2.8659,-2.8593,-2.8395,-2.8337,-2.8263,-2.8395,-2.8535,-2.8741,-2.8939,-2.9119,-2.9373,-2.9495,-2.9569,-2.9709,-2.9896,-3.0083,-3.0278,-3.0602,-3.0741,-3.075,-3.0546,-3.0278,-3.0157,-3.0026,-2.9887,-2.9691,-2.9561,-2.9495,-2.9316,-2.9307,-2.9307,-2.9307,-2.9307,-2.9179,-2.8854,-2.8545,-2.8134,-4.4858,-4.4383,-4.4285,-4.4285,-4.4285,-4.4285,-4.4285,-4.4213,-4.3758,-4.3228,-4.2783,-4.2265,-4.1677,-4.1244,-4.1184,-4.1184,-4.1184,-4.1184,-4.1127,-4.1012,-4.0781,-4.0561,-4.0199,-3.9465,-3.8793,-3.8032,-3.6827,-3.55,-3.4493,-3.3767,-3.3409,-3.3193,-3.2851,-3.2669,-3.2669,-3.2669,-3.2669,-3.2669,-3.2669,-3.2669,-3.2669,-3.2612,-3.2498,-3.2305,-3.2018,-3.1845,-3.1845,-3.1199,-3.0606,-3.0036,-2.9712,-2.9211,-2.8342,-2.7997,-2.7779,-2.7719,-2.7599,-2.7539,-2.754,-2.7589,-2.7591,-2.7642,-2.7844,-2.8002,-2.794,-2.818,-2.8246,-2.8271,-2.8271,-2.8263,-2.8188,-2.851,-2.8708,-2.8642,-2.8452,-2.8271,-2.8271,-2.8188,-2.8064,-2.794,-2.794,-2.7932,-2.7998,-2.8064,-2.8196,-2.8403,-2.8601,-2.893,-2.9053,-2.9242,-2.9307,-2.9307,-2.9504,-2.9626,-2.9757,-2.9961,-3.0157,-3.0157,-3.01,-2.9896,-2.9831,-2.9691,-2.9626,-2.9373,-2.9307,-2.9307,-2.9307,-2.9307,-2.9307,-2.9242,-2.9299,-2.923,-2.8948,-2.8682,-2.8323,-4.4297,-4.4285,-4.4285,-4.4285,-4.4285,-4.4285,-4.4285,-4.4189,-4.3794,-4.3301,-4.2795,-4.2289,-4.1749,-4.1268,-4.1184,-4.1184,-4.1127,-4.1127,-4.1012,-4.0723,-4.0607,-4.0141,-3.9414,-3.9251,-3.86,-3.7562,-3.598,-3.4902,-3.4263,-3.3574,-3.3193,-3.3136,-3.2851,-3.2669,-3.2669,-3.2669,-3.2669,-3.2669,-3.2669,-3.2669,-3.2669,-3.243,-3.2248,-3.2133,-3.1441,-3.0966,-3.0908,-3.085,-3.0363,-2.9589,-2.9194,-2.8677,-2.8095,-2.7642,-2.7349,-2.7133,-2.683,-2.6641,-2.6678,-2.6724,-2.7096,-2.7454,-2.7693,-2.7826,-2.8007,-2.8172,-2.8196,-2.8138,-2.813,-2.8064,-2.7783,-2.7775,-2.7915,-2.8196,-2.8205,-2.8138,-2.813,-2.7915,-2.7584,-2.7334,-2.7334,-2.72,-2.7259,-2.7525,-2.7783,-2.7915,-2.832,-2.8733,-2.8865,-2.9062,-2.9242,-2.9307,-2.9373,-2.943,-2.9364,-2.9307,-2.9561,-2.9691,-2.9569,-2.9438,-2.9504,-2.943,-2.943,-2.9307,-2.9185,-2.9185,-2.9119,-2.9119,-2.9045,-2.9045,-2.9168,-2.9159,-2.8989,-2.875,-2.8605,-4.4285,-4.4285,-4.4285,-4.4285,-4.4285,-4.4285,-4.4285,-4.4273,-4.4081,-4.3589,-4.2903,-4.2651,-4.2026,-4.1341,-4.1184,-4.1069,-4.0838,-4.085,-4.0781,-4.0607,-4.0013,-3.9603,-3.9238,-3.8834,-3.81,-3.6949,-3.568,-3.4672,-3.4007,-3.3424,-3.3079,-3.2851,-3.2737,-3.2669,-3.2669,-3.2669,-3.2669,-3.2669,-3.2498,-3.243,-3.2373,-3.2133,-3.1787,-3.1373,-3.1024,-3.0616,-2.9971,-2.9912,-2.9677,-2.9163,-2.8815,-2.8328,-2.7711,-2.7168,-2.6865,-2.6787,-2.67,-2.6612,-2.6661,-2.6837,-2.706,-2.7328,-2.7351,-2.7389,-2.7509,-2.7533,-2.76,-2.7533,-2.7533,-2.7467,-2.74,-2.7392,-2.7467,-2.7533,-2.7541,-2.76,-2.76,-2.7459,-2.7326,-2.72,-2.72,-2.72,-2.72,-2.7326,-2.7451,-2.7642,-2.7915,-2.8188,-2.8667,-2.8865,-2.9053,-2.9242,-2.9242,-2.9307,-2.9307,-2.9307,-2.9364,-2.9495,-2.9364,-2.9307,-2.9307,-2.9307,-2.9307,-2.9176,-2.9053,-2.8988,-2.893,-2.8856,-2.879,-2.879,-2.879,-2.8839,-2.8888,-2.8824,-2.8682,-4.4285,-4.4285,-4.4285,-4.4285,-4.4285,-4.4285,-4.4285,-4.4285,-4.4285,-4.3746,-4.2964,-4.2807,-4.2182,-4.1353,-4.1069,-4.0896,-4.0665,-4.0374,-4.0188,-4.013,-3.965,-3.906,-3.8585,-3.7938,-3.7276,-3.6376,-3.5367,-3.4498,-3.3765,-3.3203,-3.272,-3.2414,-3.2373,-3.2326,-3.2383,-3.2373,-3.2383,-3.2315,-3.219,-3.2133,-3.2018,-3.1672,-3.1257,-3.0898,-3.0558,-3.003,-2.939,-2.9222,-2.9035,-2.8746,-2.8277,-2.7728,-2.7177,-2.681,-2.6536,-2.6471,-2.6549,-2.6632,-2.6669,-2.6874,-2.7075,-2.7138,-2.7214,-2.7193,-2.72,-2.72,-2.72,-2.72,-2.72,-2.72,-2.72,-2.72,-2.72,-2.72,-2.72,-2.72,-2.72,-2.72,-2.72,-2.72,-2.72,-2.72,-2.72,-2.72,-2.7267,-2.7517,-2.7642,-2.7775,-2.8329,-2.8667,-2.8865,-2.9119,-2.925,-2.9242,-2.9307,-2.9307,-2.9307,-2.9307,-2.9307,-2.9307,-2.9307,-2.9316,-2.9316,-2.9053,-2.893,-2.8733,-2.8667,-2.8535,-2.8461,-2.8403,-2.8469,-2.8593,-2.8765,-2.8829,-2.8731,-4.4285,-4.4285,-4.4285,-4.4285,-4.4285,-4.4285,-4.4285,-4.4285,-4.4285,-4.3782,-4.2988,-4.2843,-4.2218,-4.1343,-4.0898,-4.0665,-4.0433,-3.979,-3.9297,-3.9178,-3.8942,-3.8455,-3.7435,-3.6778,-3.6258,-3.5795,-3.5022,-3.4224,-3.3552,-3.2818,-3.221,-3.1885,-3.1903,-3.1787,-3.1903,-3.1845,-3.1845,-3.1903,-3.1787,-3.1787,-3.1672,-3.1208,-3.085,-3.0733,-2.9971,-2.9331,-2.8984,-2.8627,-2.8457,-2.8337,-2.7616,-2.7021,-2.6732,-2.6624,-2.6392,-2.6199,-2.6477,-2.66,-2.6695,-2.6765,-2.6933,-2.7179,-2.7169,-2.72,-2.72,-2.72,-2.72,-2.72,-2.72,-2.72,-2.72,-2.72,-2.72,-2.72,-2.72,-2.72,-2.72,-2.72,-2.72,-2.72,-2.72,-2.72,-2.72,-2.72,-2.72,-2.7259,-2.7459,-2.765,-2.7849,-2.8254,-2.8667,-2.8865,-2.9053,-2.9185,-2.9242,-2.9307,-2.9307,-2.9307,-2.9307,-2.9307,-2.9242,-2.925,-2.9053,-2.8865,-2.8667,-2.8535,-2.8337,-2.813,-2.8064,-2.8006,-2.8138,-2.8403,-2.8576,-2.8575,-2.8787,-4.4285,-4.4285,-4.4285,-4.4285,-4.4285,-4.4285,-4.4285,-4.4285,-4.4285,-4.3889,-4.3325,-4.2916,-4.2268,-4.1411,-4.0889,-4.0374,-3.9779,-3.9367,-3.8704,-3.7976,-3.7927,-3.7435,-3.6656,-3.5972,-3.5603,-3.5355,-3.4554,-3.3781,-3.3225,-3.2693,-3.2192,-3.1797,-3.174,-3.1787,-3.1787,-3.1787,-3.1787,-3.173,-3.1508,-3.1325,-3.1082,-3.0743,-3.0323,-2.9853,-2.939,-2.8984,-2.8636,-2.808,-2.7771,-2.7702,-2.7116,-2.6836,-2.6879,-2.6516,-2.6321,-2.6462,-2.6584,-2.6695,-2.6765,-2.6914,-2.7097,-2.7177,-2.7134,-2.72,-2.72,-2.72,-2.72,-2.72,-2.72,-2.72,-2.72,-2.72,-2.72,-2.72,-2.72,-2.72,-2.72,-2.72,-2.72,-2.72,-2.72,-2.72,-2.72,-2.72,-2.72,-2.72,-2.7326,-2.7459,-2.765,-2.7841,-2.8196,-2.8667,-2.893,-2.9062,-2.9185,-2.9242,-2.9307,-2.9307,-2.9307,-2.9242,-2.9185,-2.9062,-2.8799,-2.8535,-2.8254,-2.8056,-2.7857,-2.7658,-2.7592,-2.7666,-2.7799,-2.7998,-2.813,-2.8287,-2.8633,-4.4285,-4.4285,-4.4285,-4.4285,-4.4285,-4.4285,-4.4285,-4.4285,-4.4273,-4.3973,-4.3432,-4.2868,-4.2174,-4.1425,-4.0552,-3.9849,-3.9308,-3.8764,-3.8096,-3.7435,-3.6828,-3.634,-3.5849,-3.5294,-3.4974,-3.4901,-3.4234,-3.3635,-3.3154,-3.2575,-3.2088,-3.171,-3.1482,-3.146,-3.1392,-3.1392,-3.1392,-3.1334,-3.1092,-3.0859,-3.0675,-3.0274,-2.9912,-2.944,-2.9035,-2.8567,-2.808,-2.747,-2.7108,-2.7047,-2.6709,-2.6494,-2.6657,-2.6338,-2.6311,-2.6608,-2.6831,-2.6825,-2.6724,-2.6898,-2.6918,-2.68,-2.6733,-2.6867,-2.6934,-2.7,-2.7,-2.72,-2.72,-2.72,-2.72,-2.72,-2.72,-2.72,-2.72,-2.72,-2.72,-2.72,-2.72,-2.72,-2.72,-2.72,-2.72,-2.72,-2.72,-2.72,-2.72,-2.7326,-2.7451,-2.7584,-2.7783,-2.8254,-2.8601,-2.8733,-2.8922,-2.8988,-2.9053,-2.9053,-2.8914,-2.8914,-2.8914,-2.8799,-2.8461,-2.8122,-2.7849,-2.7642,-2.7517,-2.7392,-2.7334,-2.74,-2.7459,-2.7592,-2.7791,-2.7981,-2.8395,-4.4285,-4.4285,-4.4285,-4.4285,-4.4285,-4.4285,-4.4285,-4.4285,-4.4285,-4.4033,-4.3467,-4.2675,-4.2006,-4.1366,-4.0069,-3.9249,-3.9001,-3.8036,-3.7435,-3.6767,-3.5972,-3.5232,-3.517,-3.4673,-3.4413,-3.4298,-3.3985,-3.351,-3.2952,-3.2375,-3.1863,-3.1336,-3.0947,-3.084,-3.082,-3.0772,-3.0772,-3.0762,-3.0518,-3.0333,-3.0206,-2.9853,-2.9499,-2.9213,-2.8618,-2.8089,-2.753,-2.6987,-2.6631,-2.6571,-2.623,-2.6224,-2.6177,-2.62,-2.6358,-2.6611,-2.692,-2.6953,-2.671,-2.6576,-2.6532,-2.6272,-2.6197,-2.6264,-2.6592,-2.68,-2.6867,-2.72,-2.72,-2.72,-2.72,-2.72,-2.7134,-2.7067,-2.7067,-2.7067,-2.7142,-2.72,-2.72,-2.72,-2.72,-2.72,-2.72,-2.72,-2.72,-2.72,-2.72,-2.7267,-2.7326,-2.7459,-2.7584,-2.7841,-2.8122,-2.8403,-2.8535,-2.8733,-2.8733,-2.8725,-2.8386,-2.8386,-2.8452,-2.832,-2.8048,-2.7783,-2.7584,-2.7451,-2.7326,-2.72,-2.72,-2.72,-2.7326,-2.7459,-2.7584,-2.7783,-2.8048,-4.4285,-4.4285,-4.4285,-4.4285,-4.4285,-4.4285,-4.4285,-4.4285,-4.4285,-4.4065,-4.3569,-4.2685,-4.1799,-4.0912,-3.9721,-3.8823,-3.7976,-3.7435,-3.6889,-3.5726,-3.4725,-3.4298,-3.4235,-3.4047,-3.3975,-3.3859,-3.3355,-3.2952,-3.243,-3.1921,-3.1207,-3.0806,-3.0512,-3.0108,-3.0176,-3.0225,-3.0108,-3.0108,-3.0049,-2.9922,-2.9745,-2.9558,-2.9213,-2.8746,-2.808,-2.759,-2.7177,-2.6813,-2.651,-2.6263,-2.6171,-2.6224,-2.6358,-2.6528,-2.6545,-2.6631,-2.6722,-2.6666,-2.6331,-2.6197,-2.6197,-2.6071,-2.6003,-2.6272,-2.6666,-2.6658,-2.6859,-2.7134,-2.72,-2.72,-2.7134,-2.6934,-2.6867,-2.68,-2.6599,-2.6473,-2.6733,-2.7,-2.7134,-2.72,-2.72,-2.72,-2.72,-2.72,-2.72,-2.72,-2.72,-2.72,-2.7267,-2.7267,-2.7392,-2.7584,-2.7716,-2.7998,-2.8263,-2.8395,-2.8386,-2.8329,-2.8056,-2.7857,-2.7923,-2.7923,-2.7724,-2.7525,-2.7326,-2.72,-2.72,-2.72,-2.72,-2.72,-2.72,-2.7267,-2.7392,-2.7584,-2.7708,-4.4285,-4.4285,-4.4285,-4.4285,-4.4285,-4.4285,-4.4285,-4.4285,-4.4137,-4.395,-4.3526,-4.2282,-4.1289,-4.0697,-3.9179,-3.7976,-3.7374,-3.6707,-3.5839,-3.4787,-3.411,-3.3723,-3.3418,-3.3428,-3.3418,-3.3364,-3.2921,-3.2524,-3.2222,-3.1789,-3.1337,-3.0831,-3.0354,-3.0121,-2.995,-2.9863,-2.9922,-2.9872,-2.9745,-2.9627,-2.9509,-2.9153,-2.8728,-2.814,-2.765,-2.7289,-2.6882,-2.651,-2.6297,-2.6187,-2.6169,-2.6183,-2.6344,-2.6405,-2.6498,-2.6655,-2.6465,-2.6272,-2.6003,-2.5869,-2.5801,-2.5667,-2.5599,-2.5936,-2.6272,-2.6398,-2.6666,-2.7067,-2.72,-2.7142,-2.7,-2.6859,-2.6658,-2.6398,-2.6197,-2.6197,-2.6398,-2.6733,-2.7067,-2.7134,-2.72,-2.72,-2.72,-2.72,-2.72,-2.72,-2.72,-2.72,-2.72,-2.7267,-2.7267,-2.74,-2.7392,-2.7592,-2.7923,-2.799,-2.7981,-2.7915,-2.7724,-2.7525,-2.7525,-2.7459,-2.7392,-2.7267,-2.72,-2.72,-2.72,-2.72,-2.72,-2.72,-2.72,-2.72,-2.7267,-2.7392,-2.7517,-4.4285,-4.4285,-4.4285,-4.4285,-4.4285,-4.4285,-4.4285,-4.4149,-4.3939,-4.3618,-4.3145,-4.1538,-4.072,-3.9957,-3.8387,-3.7407,-3.6767,-3.59,-3.4787,-3.411,-3.3796,-3.3418,-3.3048,-3.2858,-3.274,-3.2731,-3.2485,-3.2329,-3.2162,-3.1888,-3.1258,-3.1035,-3.0554,-3.0127,-2.9905,-2.9764,-2.9686,-2.9636,-2.9509,-2.9331,-2.9213,-2.8806,-2.8259,-2.7702,-2.747,-2.7168,-2.6692,-2.6344,-2.6101,-2.6105,-2.608,-2.6144,-2.6174,-2.6223,-2.6191,-2.6525,-2.6205,-2.5869,-2.5599,-2.5532,-2.5397,-2.5127,-2.5127,-2.5397,-2.5869,-2.6138,-2.6473,-2.68,-2.7067,-2.7,-2.6733,-2.6465,-2.6331,-2.6063,-2.6003,-2.6003,-2.6071,-2.6339,-2.6599,-2.7008,-2.7067,-2.7067,-2.7134,-2.72,-2.72,-2.72,-2.72,-2.72,-2.72,-2.72,-2.7267,-2.7267,-2.7334,-2.7326,-2.7592,-2.7658,-2.765,-2.7584,-2.7392,-2.7326,-2.7267,-2.7267,-2.7267,-2.7267,-2.72,-2.72,-2.72,-2.72,-2.72,-2.72,-2.72,-2.72,-2.72,-2.72,-2.7392,-4.4285,-4.4285,-4.4285,-4.4285,-4.4285,-4.4285,-4.4149,-4.3876,-4.3814,-4.3067,-4.1962,-4.1115,-3.9937,-3.8725,-3.7852,-3.6839,-3.5849,-3.4984,-3.436,-3.3796,-3.3418,-3.2985,-3.2858,-3.2422,-3.2175,-3.2038,-3.1974,-3.1974,-3.1817,-3.1319,-3.1097,-3.0722,-3.0239,-2.9814,-2.9629,-2.9366,-2.925,-2.9281,-2.9153,-2.8984,-2.8755,-2.8517,-2.8148,-2.753,-2.7297,-2.6943,-2.6631,-2.6275,-2.6117,-2.6096,-2.5834,-2.5892,-2.6109,-2.637,-2.6224,-2.5965,-2.5734,-2.5532,-2.5329,-2.5194,-2.5194,-2.5127,-2.5059,-2.5262,-2.5667,-2.5936,-2.6339,-2.6666,-2.68,-2.68,-2.6658,-2.6197,-2.5861,-2.5667,-2.5532,-2.5464,-2.5667,-2.5801,-2.613,-2.6599,-2.6733,-2.6859,-2.7,-2.7134,-2.72,-2.72,-2.72,-2.72,-2.72,-2.72,-2.72,-2.72,-2.72,-2.72,-2.7267,-2.7334,-2.7326,-2.7392,-2.7267,-2.7267,-2.72,-2.72,-2.72,-2.72,-2.72,-2.72,-2.72,-2.72,-2.72,-2.72,-2.72,-2.72,-2.72,-2.72,-2.72,-4.4285,-4.4285,-4.4285,-4.4285,-4.4285,-4.4285,-4.4087,-4.3814,-4.3615,-4.2845,-4.166,-4.066,-3.9545,-3.8207,-3.7177,-3.6167,-3.5046,-3.436,-3.3985,-3.3607,-3.3175,-3.2794,-3.2667,-3.2111,-3.1846,-3.1708,-3.1644,-3.1644,-3.1635,-3.134,-3.0983,-3.0736,-3.0351,-3.0011,-2.9635,-2.9457,-2.9168,-2.9058,-2.8815,-2.8696,-2.8457,-2.8208,-2.7719,-2.7366,-2.7004,-2.67,-2.6361,-2.6228,-2.6086,-2.6127,-2.5974,-2.5986,-2.6082,-2.6067,-2.6003,-2.5659,-2.5464,-2.5262,-2.5127,-2.5059,-2.5127,-2.5059,-2.5059,-2.5262,-2.5599,-2.5936,-2.6272,-2.6599,-2.6658,-2.6532,-2.613,-2.5794,-2.5524,-2.5322,-2.5194,-2.5194,-2.5329,-2.5329,-2.5659,-2.6122,-2.6458,-2.6658,-2.6859,-2.7,-2.7134,-2.72,-2.72,-2.72,-2.72,-2.72,-2.72,-2.72,-2.72,-2.72,-2.72,-2.72,-2.72,-2.72,-2.72,-2.72,-2.72,-2.72,-2.72,-2.72,-2.72,-2.72,-2.72,-2.72,-2.72,-2.72,-2.72,-2.72,-2.72,-2.72,-2.72,-4.4285,-4.4285,-4.4285,-4.4285,-4.4285,-4.4211,-4.4013,-4.3689,-4.3251,-4.2337,-4.1222,-4.0129,-3.8945,-3.7729,-3.6563,-3.5418,-3.4298,-3.3985,-3.3733,-3.3418,-3.2985,-3.2613,-3.2358,-3.1974,-3.1653,-3.1506,-3.1442,-3.1377,-3.1442,-3.1396,-3.1176,-3.0974,-3.0864,-3.0516,-2.9975,-2.9593,-2.9337,-2.9015,-2.8585,-2.8397,-2.814,-2.7711,-2.7289,-2.7038,-2.6829,-2.6574,-2.6195,-2.6243,-2.6198,-2.6135,-2.6046,-2.5955,-2.5927,-2.5667,-2.5532,-2.5464,-2.5262,-2.5127,-2.5059,-2.5059,-2.5059,-2.5059,-2.5059,-2.5262,-2.5464,-2.5734,-2.613,-2.6465,-2.6465,-2.6257,-2.5794,-2.5532,-2.539,-2.5194,-2.5127,-2.5127,-2.5127,-2.5194,-2.5262,-2.5727,-2.6197,-2.6458,-2.6658,-2.6859,-2.6992,-2.72,-2.72,-2.72,-2.72,-2.72,-2.72,-2.72,-2.72,-2.72,-2.72,-2.72,-2.72,-2.72,-2.72,-2.72,-2.72,-2.72,-2.72,-2.7134,-2.72,-2.72,-2.72,-2.72,-2.72,-2.72,-2.72,-2.72,-2.72,-2.72,-2.72,-4.4285,-4.4285,-4.4285,-4.4285,-4.4285,-4.4013,-4.3689,-4.3314,-4.2713,-4.1514,-4.018,-3.9316,-3.8116,-3.6678,-3.5614,-3.4673,-3.4163,-3.3859,-3.367,-3.3355,-3.2794,-3.2485,-3.2294,-3.1708,-3.1515,-3.1377,-3.1377,-3.1377,-3.1377,-3.1377,-3.1359,-3.1222,-3.0974,-3.0699,-3.0407,-2.9694,-2.9155,-2.8976,-2.8396,-2.7908,-2.765,-2.7315,-2.7038,-2.6871,-2.682,-2.6748,-2.6284,-2.6333,-2.6416,-2.6111,-2.5843,-2.5669,-2.5592,-2.5322,-2.5187,-2.5119,-2.5119,-2.5059,-2.5059,-2.5059,-2.5059,-2.5059,-2.5059,-2.5119,-2.5329,-2.5539,-2.5869,-2.6071,-2.5936,-2.5734,-2.5532,-2.5329,-2.5194,-2.5127,-2.5059,-2.5059,-2.5059,-2.5059,-2.5194,-2.5262,-2.5727,-2.6122,-2.6458,-2.6658,-2.6859,-2.7067,-2.72,-2.72,-2.72,-2.72,-2.72,-2.72,-2.72,-2.72,-2.72,-2.72,-2.72,-2.72,-2.7134,-2.7134,-2.7067,-2.7,-2.7067,-2.7067,-2.7067,-2.7067,-2.7,-2.7,-2.7134,-2.72,-2.72,-2.72,-2.72,-2.72,-2.72,-4.4285,-4.4285,-4.4285,-4.4285,-4.4285,-4.395,-4.3627,-4.313,-4.2309,-4.1052,-3.9672,-3.877,-3.7463,-3.5944,-3.4984,-3.436,-3.3922,-3.3733,-3.3544,-3.3292,-3.2731,-3.2422,-3.223,-3.1772,-3.1442,-3.1377,-3.1377,-3.1377,-3.1377,-3.1377,-3.1377,-3.135,-3.102,-3.0683,-3.0538,-2.9888,-2.9413,-2.903,-2.8447,-2.7765,-2.7349,-2.7131,-2.7021,-2.6907,-2.6877,-2.664,-2.6501,-2.6504,-2.6478,-2.6168,-2.5904,-2.5769,-2.5562,-2.5329,-2.5127,-2.5127,-2.5127,-2.5059,-2.5059,-2.5059,-2.5059,-2.5059,-2.5127,-2.5187,-2.5329,-2.5464,-2.5599,-2.5801,-2.5667,-2.5532,-2.5397,-2.5194,-2.5127,-2.5059,-2.5059,-2.5059,-2.5059,-2.5059,-2.5127,-2.5194,-2.5255,-2.5659,-2.6055,-2.619,-2.6458,-2.6725,-2.6934,-2.7,-2.7067,-2.72,-2.72,-2.72,-2.72,-2.72,-2.72,-2.72,-2.7134,-2.7067,-2.6867,-2.6867,-2.68,-2.68,-2.68,-2.6666,-2.6532,-2.6532,-2.6607,-2.6875,-2.7067,-2.7134,-2.72,-2.7134,-2.7134,-2.72,-2.72,-4.4285,-4.4285,-4.4285,-4.4223,-4.4161,-4.3814,-4.3439,-4.293,-4.185,-4.0535,-3.9199,-3.7967,-3.6535,-3.5356,-3.4548,-3.4047,-3.3733,-3.3554,-3.3418,-3.3165,-3.2794,-3.2422,-3.2166,-3.1772,-3.1377,-3.1377,-3.1377,-3.1377,-3.1377,-3.1313,-3.1249,-3.1258,-3.1028,-3.0717,-3.0309,-2.9812,-2.9383,-2.8753,-2.8331,-2.7832,-2.7431,-2.7258,-2.711,-2.6993,-2.682,-2.6721,-2.6649,-2.6678,-2.6467,-2.6141,-2.5962,-2.5764,-2.5464,-2.5194,-2.5127,-2.5059,-2.5059,-2.5059,-2.5059,-2.5059,-2.5059,-2.5059,-2.5127,-2.5187,-2.5329,-2.5464,-2.5464,-2.5464,-2.5457,-2.5322,-2.5194,-2.5119,-2.5127,-2.5059,-2.5059,-2.5059,-2.5059,-2.5059,-2.5059,-2.5127,-2.5194,-2.5262,-2.5524,-2.5727,-2.5996,-2.6391,-2.6599,-2.6733,-2.6867,-2.7067,-2.7134,-2.7134,-2.7134,-2.7134,-2.7,-2.7,-2.6992,-2.6934,-2.6733,-2.6532,-2.6465,-2.6398,-2.6331,-2.6197,-2.5996,-2.6205,-2.6406,-2.6674,-2.6941,-2.68,-2.68,-2.7,-2.7067,-2.7134,-2.72,-4.4285,-4.4285,-4.4285,-4.4149,-4.3814,-4.3439,-4.2988,-4.2305,-4.1176,-3.9966,-3.8524,-3.6726,-3.5376,-3.4558,-3.4173,-3.3796,-3.3418,-3.3418,-3.3418,-3.3165,-3.2731,-3.2485,-3.2166,-3.1836,-3.1377,-3.1377,-3.1377,-3.1377,-3.1313,-3.1129,-3.1,-3.0879,-3.0741,-3.0611,-3.0283,-2.9722,-2.9032,-2.8539,-2.8232,-2.7991,-2.7647,-2.7453,-2.7314,-2.6896,-2.6947,-2.7035,-2.6718,-2.6732,-2.6498,-2.6098,-2.5823,-2.5524,-2.5262,-2.5127,-2.5059,-2.5059,-2.5059,-2.5059,-2.5059,-2.5059,-2.5059,-2.5059,-2.5127,-2.5119,-2.5194,-2.5127,-2.5127,-2.5194,-2.5187,-2.5194,-2.5127,-2.5059,-2.5059,-2.5059,-2.5059,-2.4984,-2.4984,-2.4984,-2.4984,-2.5059,-2.5059,-2.4924,-2.4984,-2.5187,-2.5592,-2.6063,-2.6331,-2.6473,-2.6674,-2.6808,-2.7,-2.7067,-2.7067,-2.7,-2.6725,-2.6725,-2.6666,-2.6532,-2.6331,-2.6205,-2.6071,-2.6003,-2.5727,-2.5659,-2.5524,-2.5794,-2.5996,-2.5928,-2.5928,-2.6197,-2.6406,-2.6666,-2.6867,-2.7,-2.7067,-4.4285,-4.4285,-4.4075,-4.3876,-4.3802,-4.3439,-4.2762,-4.1788,-4.0643,-3.9088,-3.7264,-3.5831,-3.4859,-3.4423,-3.4047,-3.3733,-3.3418,-3.3418,-3.3418,-3.3165,-3.2804,-3.2485,-3.2157,-3.1827,-3.1377,-3.1377,-3.1377,-3.1377,-3.1377,-3.1,-3.075,-3.062,-3.0352,-3.0213,-2.9874,-2.9527,-2.8944,-2.8439,-2.812,-2.7941,-2.7422,-2.734,-2.7246,-2.7084,-2.7082,-2.7044,-2.6753,-2.6714,-2.6316,-2.5936,-2.5667,-2.539,-2.5187,-2.5127,-2.5059,-2.5059,-2.5059,-2.5059,-2.5059,-2.5059,-2.5059,-2.5059,-2.5059,-2.5059,-2.5059,-2.5059,-2.5059,-2.5059,-2.5059,-2.5059,-2.5059,-2.5059,-2.5059,-2.5059,-2.5059,-2.4916,-2.4841,-2.4774,-2.4706,-2.4645,-2.451,-2.4367,-2.4503,-2.4638,-2.5119,-2.5659,-2.5936,-2.6138,-2.6339,-2.654,-2.6674,-2.6733,-2.6733,-2.6599,-2.6391,-2.6331,-2.6264,-2.6063,-2.5869,-2.5659,-2.5457,-2.5119,-2.4977,-2.4977,-2.4909,-2.4977,-2.4909,-2.4841,-2.5044,-2.5592,-2.6063,-2.6398,-2.6599,-2.68,-2.6934,-4.3694,-4.362,-4.3362,-4.3405,-4.358,-4.3161,-4.233,-4.1189,-4.0006,-3.8244,-3.6065,-3.517,-3.4548,-3.4235,-3.3922,-3.367,-3.3418,-3.3418,-3.3418,-3.3165,-3.2794,-3.2485,-3.2157,-3.1827,-3.1377,-3.1377,-3.1377,-3.1377,-3.1193,-3.087,-3.0546,-3.0222,-2.9896,-2.9691,-2.9569,-2.929,-2.8909,-2.8462,-2.824,-2.7979,-2.7376,-2.7336,-2.7294,-2.7179,-2.7065,-2.6945,-2.662,-2.645,-2.6055,-2.5727,-2.5532,-2.5329,-2.5194,-2.5059,-2.5059,-2.5059,-2.5059,-2.5059,-2.5059,-2.5059,-2.5059,-2.5059,-2.5059,-2.5059,-2.5059,-2.5059,-2.5059,-2.5059,-2.5059,-2.5059,-2.5059,-2.5059,-2.4984,-2.4916,-2.4849,-2.4706,-2.4503,-2.4367,-2.4299,-2.4163,-2.4095,-2.4095,-2.4095,-2.4299,-2.4706,-2.5255,-2.5667,-2.5869,-2.5936,-2.6138,-2.6272,-2.6272,-2.6264,-2.613,-2.5928,-2.5794,-2.5584,-2.5315,-2.5112,-2.4909,-2.4706,-2.4435,-2.4299,-2.4435,-2.4299,-2.4027,-2.4095,-2.4299,-2.4706,-2.5187,-2.5524,-2.5854,-2.6339,-2.6473,-2.6666,-4.2364,-4.2316,-4.2038,-4.2397,-4.3052,-4.2463,-4.1535,-4.041,-3.9108,-3.7403,-3.5572,-3.4797,-3.4298,-3.3922,-3.367,-3.3481,-3.3418,-3.3418,-3.3355,-3.3165,-3.2731,-3.2422,-3.2157,-3.1763,-3.1377,-3.1377,-3.1377,-3.1249,-3.0944,-3.0694,-3.0296,-2.9896,-2.9569,-2.9307,-2.9316,-2.8996,-2.8799,-2.8716,-2.8353,-2.8023,-2.7661,-2.7537,-2.7429,-2.7121,-2.6894,-2.6733,-2.6398,-2.6063,-2.5727,-2.5532,-2.5322,-2.5194,-2.5127,-2.5059,-2.5059,-2.5059,-2.5059,-2.5059,-2.5059,-2.5059,-2.5059,-2.5059,-2.5059,-2.5059,-2.5059,-2.5059,-2.5059,-2.5059,-2.5059,-2.5059,-2.5059,-2.5059,-2.4849,-2.4706,-2.4638,-2.4428,-2.4156,-2.3884,-2.3747,-2.3475,-2.3747,-2.3952,-2.3959,-2.4034,-2.4367,-2.4774,-2.5322,-2.5532,-2.5532,-2.5592,-2.5659,-2.5659,-2.5592,-2.5592,-2.539,-2.518,-2.4909,-2.4638,-2.4435,-2.4299,-2.4163,-2.3884,-2.3891,-2.3891,-2.3618,-2.3277,-2.355,-2.3959,-2.4163,-2.4292,-2.4841,-2.5247,-2.5734,-2.6145,-2.6339,-4.1967,-4.1956,-4.1593,-4.1536,-4.163,-4.1357,-4.0612,-3.9439,-3.7859,-3.6489,-3.5449,-3.4673,-3.4235,-3.3859,-3.3607,-3.3418,-3.3418,-3.3355,-3.3364,-3.3048,-3.2549,-3.2294,-3.1974,-3.1708,-3.1442,-3.1377,-3.1377,-3.1184,-3.087,-3.0499,-3.0165,-2.9757,-2.925,-2.8996,-2.893,-2.8799,-2.8601,-2.8122,-2.7915,-2.7716,-2.7392,-2.7334,-2.72,-2.6934,-2.6733,-2.6465,-2.6063,-2.5667,-2.5532,-2.5329,-2.5127,-2.5127,-2.5059,-2.5059,-2.5059,-2.5059,-2.5059,-2.5059,-2.5059,-2.5059,-2.5059,-2.5059,-2.5059,-2.5059,-2.5059,-2.5059,-2.5059,-2.5059,-2.5059,-2.5059,-2.5059,-2.4849,-2.4638,-2.4503,-2.4367,-2.402,-2.3679,-2.3406,-2.3133,-2.2722,-2.2722,-2.2853,-2.2928,-2.3208,-2.355,-2.3823,-2.4231,-2.457,-2.4638,-2.4774,-2.4909,-2.4909,-2.4909,-2.4909,-2.4841,-2.4638,-2.4435,-2.4163,-2.3959,-2.3891,-2.3686,-2.3338,-2.3065,-2.2866,-2.266,-2.2523,-2.2797,-2.2996,-2.3065,-2.3338,-2.3952,-2.4631,-2.5187,-2.5599,-2.5936,-4.1126,-4.1066,-4.0766,-4.0393,-4.0163,-4.0334,-3.9643,-3.821,-3.6724,-3.5675,-3.5056,-3.4485,-3.4047,-3.3733,-3.3544,-3.3418,-3.3355,-3.3238,-3.3175,-3.2858,-3.2422,-3.2175,-3.1846,-3.1589,-3.1442,-3.1377,-3.1249,-3.1064,-3.0685,-3.0361,-2.9905,-2.9373,-2.8988,-2.8659,-2.8527,-2.832,-2.8188,-2.7783,-2.765,-2.7459,-2.7267,-2.7134,-2.6926,-2.6666,-2.6398,-2.6063,-2.5734,-2.5464,-2.5329,-2.5127,-2.5059,-2.5059,-2.5059,-2.5059,-2.5059,-2.5059,-2.5059,-2.5059,-2.5059,-2.5059,-2.5059,-2.5059,-2.5059,-2.5059,-2.5059,-2.5059,-2.5059,-2.5059,-2.5059,-2.5059,-2.4984,-2.4706,-2.4435,-2.4299,-2.3891,-2.3475,-2.3065,-2.2791,-2.2516,-2.2104,-2.1897,-2.1966,-2.196,-2.231,-2.266,-2.2866,-2.3071,-2.3413,-2.3823,-2.4088,-2.4224,-2.4299,-2.4299,-2.4367,-2.4299,-2.402,-2.3816,-2.3679,-2.3482,-2.3277,-2.2866,-2.2523,-2.2179,-2.1973,-2.2042,-2.211,-2.1973,-2.2035,-2.231,-2.2722,-2.327,-2.3884,-2.4503,-2.4984,-2.539,-3.9814,-3.9743,-3.9437,-3.9106,-3.8914,-3.9198,-3.842,-3.685,-3.586,-3.5056,-3.4423,-3.411,-3.3796,-3.3481,-3.3418,-3.3355,-3.3292,-3.3048,-3.2858,-3.2676,-3.223,-3.1974,-3.1782,-3.158,-3.1442,-3.1313,-3.1129,-3.0879,-3.0434,-2.997,-2.9438,-2.8996,-2.8799,-2.8395,-2.8048,-2.7783,-2.7716,-2.7584,-2.7392,-2.7259,-2.7067,-2.6867,-2.6666,-2.6398,-2.6063,-2.5727,-2.5464,-2.5322,-2.5194,-2.5059,-2.5059,-2.5059,-2.5059,-2.5059,-2.5059,-2.5059,-2.5059,-2.5059,-2.5059,-2.5059,-2.5059,-2.5059,-2.5059,-2.5059,-2.5059,-2.5059,-2.5059,-2.5059,-2.5059,-2.5052,-2.4984,-2.4638,-2.4231,-2.3823,-2.327,-2.2859,-2.2448,-2.211,-2.1904,-2.1628,-2.1484,-2.1415,-2.1415,-2.1622,-2.1835,-2.1973,-2.2248,-2.2729,-2.314,-2.3618,-2.3754,-2.3823,-2.3891,-2.3891,-2.3754,-2.3406,-2.3133,-2.2859,-2.266,-2.2454,-2.2042,-2.1835,-2.1697,-2.1628,-2.1697,-2.1697,-2.149,-2.1559,-2.176,-2.2173,-2.2654,-2.3201,-2.3823,-2.4435,-2.4909,-3.9308,-3.906,-3.899,-3.8633,-3.813,-3.7538,-3.7019,-3.6473,-3.5726,-3.5046,-3.436,-3.4037,-3.367,-3.3418,-3.3418,-3.3228,-3.3048,-3.2858,-3.254,-3.223,-3.1974,-3.1782,-3.158,-3.1442,-3.1377,-3.1249,-3.1064,-3.0685,-3.0304,-2.9765,-2.925,-2.8873,-2.8535,-2.8122,-2.7783,-2.7459,-2.7392,-2.7326,-2.72,-2.7067,-2.6934,-2.6725,-2.6398,-2.5996,-2.5727,-2.5464,-2.5262,-2.5194,-2.5059,-2.5059,-2.5059,-2.5059,-2.5059,-2.5059,-2.5059,-2.5059,-2.5059,-2.5059,-2.5059,-2.5059,-2.5059,-2.5059,-2.5059,-2.5059,-2.5059,-2.5059,-2.5059,-2.5059,-2.4991,-2.4916,-2.4713,-2.4367,-2.3959,-2.3413,-2.2859,-2.2379,-2.1897,-2.1559,-2.1283,-2.1006,-2.0861,-2.0653,-2.0653,-2.0861,-2.1075,-2.1144,-2.1421,-2.1904,-2.2385,-2.2866,-2.3208,-2.3208,-2.3208,-2.3208,-2.3003,-2.2654,-2.2379,-2.211,-2.1973,-2.1835,-2.1559,-2.1352,-2.122,-2.122,-2.1214,-2.1144,-2.1012,-2.1144,-2.1352,-2.1622,-2.2035,-2.2585,-2.314,-2.3823,-2.4435,-3.8846,-3.8645,-3.8645,-3.8287,-3.7566,-3.6473,-3.5993,-3.586,-3.5294,-3.4673,-3.4163,-3.3849,-3.3481,-3.3238,-3.3175,-3.2985,-3.2667,-3.2476,-3.223,-3.2038,-3.1782,-3.158,-3.1442,-3.1377,-3.1313,-3.1129,-3.087,-3.0426,-3.0035,-2.9521,-2.893,-2.8601,-2.8263,-2.7923,-2.7517,-2.7326,-2.7134,-2.7067,-2.6926,-2.6867,-2.6666,-2.6458,-2.5996,-2.5659,-2.5532,-2.5262,-2.5127,-2.5059,-2.5059,-2.5059,-2.5059,-2.5059,-2.5059,-2.5059,-2.5059,-2.5059,-2.5059,-2.5059,-2.5059,-2.5059,-2.5059,-2.5059,-2.5059,-2.5059,-2.5059,-2.5059,-2.5059,-2.5059,-2.4916,-2.4713,-2.4435,-2.4027,-2.355,-2.3003,-2.2448,-2.1897,-2.1415,-2.1006,-2.0659,-2.0312,-2.0034,-1.982,-1.9825,-2.0104,-2.0312,-2.0312,-2.0451,-2.0729,-2.1352,-2.1973,-2.2317,-2.2454,-2.2454,-2.2454,-2.2248,-2.2104,-2.1904,-2.1697,-2.1622,-2.1421,-2.1075,-2.1006,-2.0943,-2.0873,-2.0804,-2.0735,-2.0804,-2.0873,-2.1012,-2.1283,-2.1553,-2.2104,-2.2729,-2.355,-2.4027,-3.838,-3.832,-3.832,-3.7818,-3.7132,-3.5911,-3.5356,-3.5232,-3.46,-3.4173,-3.3859,-3.3554,-3.3228,-3.2985,-3.2921,-3.2676,-3.2358,-3.2166,-3.1974,-3.1855,-3.158,-3.1442,-3.1442,-3.1377,-3.1193,-3.0879,-3.049,-3.0091,-2.9635,-2.9119,-2.8667,-2.8263,-2.7915,-2.7584,-2.7326,-2.7134,-2.6934,-2.68,-2.6658,-2.6465,-2.6331,-2.5996,-2.5599,-2.5464,-2.5329,-2.5059,-2.5059,-2.5059,-2.5059,-2.5059,-2.5059,-2.5059,-2.5059,-2.5059,-2.5059,-2.5059,-2.5059,-2.5059,-2.5059,-2.5059,-2.5059,-2.5059,-2.5059,-2.4991,-2.4924,-2.4916,-2.4916,-2.4849,-2.4706,-2.4367,-2.4095,-2.3686,-2.3133,-2.2585,-2.2035,-2.1421,-2.0873,-2.0388,-1.9965,-1.9616,-1.9407,-1.9267,-1.9267,-1.9547,-1.9686,-1.968,-1.982,-2.0034,-2.0312,-2.1075,-2.149,-2.1697,-2.1835,-2.1835,-2.1766,-2.1622,-2.149,-2.1283,-2.1214,-2.1144,-2.0943,-2.0804,-2.0735,-2.0665,-2.0665,-2.0665,-2.0735,-2.0804,-2.0804,-2.0943,-2.1283,-2.1697,-2.2385,-2.3208,-2.3754,-3.8249,-3.795,-3.7467,-3.6728,-3.5911,-3.5541,-3.4922,-3.4298,-3.411,-3.3922,-3.3796,-3.3292,-3.2975,-3.2794,-3.2613,-3.2358,-3.2038,-3.191,-3.1717,-3.158,-3.1377,-3.1313,-3.1313,-3.1129,-3.0935,-3.0741,-3.0287,-2.9635,-2.9185,-2.8799,-2.8461,-2.7915,-2.7708,-2.7517,-2.72,-2.7,-2.68,-2.6599,-2.6197,-2.5996,-2.5861,-2.5727,-2.5532,-2.5329,-2.5059,-2.5059,-2.5059,-2.5059,-2.5059,-2.5059,-2.5059,-2.5059,-2.5059,-2.5059,-2.5059,-2.5059,-2.4991,-2.4991,-2.4991,-2.4991,-2.4991,-2.4916,-2.4849,-2.4713,-2.4638,-2.4638,-2.4638,-2.4503,-2.4367,-2.4027,-2.3679,-2.327,-2.2791,-2.2173,-2.1622,-2.1006,-2.0324,-1.9831,-1.9273,-1.9063,-1.8854,-1.8854,-1.8854,-1.8918,-1.9058,-1.9267,-1.9541,-1.9686,-1.9686,-2.0167,-2.0653,-2.1006,-2.1283,-2.1346,-2.1276,-2.1214,-2.1075,-2.0943,-2.0804,-2.0735,-2.0671,-2.0527,-2.0457,-2.0596,-2.0665,-2.0596,-2.0596,-2.0735,-2.0735,-2.0804,-2.122,-2.1697,-2.2242,-2.3065,-2.355,-3.7407,-3.7154,-3.6484,-3.5921,-3.5356,-3.4922,-3.4423,-3.3922,-3.3607,-3.3491,-3.3418,-3.3048,-3.2731,-3.2549,-3.2239,-3.2038,-3.1717,-3.1653,-3.158,-3.1442,-3.1258,-3.1193,-3.1064,-3.0806,-3.0546,-3.0287,-2.97,-2.9119,-2.8733,-2.8329,-2.7981,-2.7708,-2.7584,-2.7392,-2.7142,-2.6867,-2.6599,-2.6398,-2.5869,-2.5599,-2.5464,-2.5329,-2.5322,-2.5127,-2.5059,-2.5059,-2.5059,-2.5059,-2.5059,-2.4991,-2.4924,-2.4713,-2.4578,-2.4503,-2.457,-2.457,-2.457,-2.457,-2.4645,-2.4645,-2.4645,-2.4578,-2.4503,-2.4299,-2.4231,-2.4231,-2.4156,-2.402,-2.3891,-2.3618,-2.327,-2.2859,-2.231,-2.1691,-2.1214,-2.0596,-1.9831,-1.9133,-1.8854,-1.8714,-1.8573,-1.8573,-1.8573,-1.8573,-1.8714,-1.8784,-1.9058,-1.9267,-1.9267,-1.9337,-1.9825,-2.0243,-2.0515,-2.0659,-2.0659,-2.0659,-2.0735,-2.0596,-2.0463,-2.0318,-2.0179,-2.0173,-2.0173,-2.0312,-2.0388,-2.0394,-2.0394,-2.0602,-2.0665,-2.0735,-2.122,-2.1766,-2.231,-2.2859,-2.355,-3.6351,-3.6167,-3.5603,-3.5294,-3.5046,-3.4235,-3.3796,-3.368,-3.3111,-3.2794,-3.2794,-3.274,-3.2422,-3.2047,-3.1791,-3.1644,-3.1506,-3.1506,-3.1442,-3.1249,-3.1064,-3.0944,-3.075,-3.049,-3.0091,-2.9709,-2.9193,-2.879,-2.8527,-2.8122,-2.7783,-2.765,-2.7392,-2.72,-2.7067,-2.68,-2.6398,-2.6071,-2.5667,-2.5397,-2.5194,-2.5059,-2.5127,-2.5127,-2.5059,-2.5059,-2.5059,-2.5059,-2.5059,-2.4849,-2.4645,-2.4374,-2.4238,-2.4163,-2.4163,-2.4163,-2.4163,-2.4163,-2.4095,-2.4163,-2.4095,-2.4027,-2.3959,-2.3891,-2.3754,-2.3618,-2.3543,-2.3406,-2.327,-2.3065,-2.2722,-2.231,-2.176,-2.1207,-2.0659,-2.0179,-1.9413,-1.8714,-1.8579,-1.8439,-1.8439,-1.8439,-1.8433,-1.8433,-1.8433,-1.8433,-1.8503,-1.8643,-1.8784,-1.8924,-1.9198,-1.9477,-1.9756,-1.9901,-2.004,-2.0179,-2.0312,-2.0179,-2.004,-1.9895,-1.9756,-1.9825,-1.9889,-1.982,-1.9895,-2.0116,-2.0324,-2.0463,-2.0602,-2.0665,-2.1283,-2.1835,-2.2173,-2.2791,-2.3618,-3.6106,-3.5552,-3.517,-3.4673,-3.4173,-3.367,-3.3364,-3.3048,-3.2676,-3.2367,-3.2175,-3.2111,-3.1983,-3.1855,-3.158,-3.1377,-3.1377,-3.1313,-3.1184,-3.1,-3.0806,-3.0685,-3.0426,-3.0026,-2.9578,-2.9128,-2.8799,-2.8461,-2.8188,-2.7849,-2.7517,-2.7326,-2.7259,-2.7067,-2.6733,-2.6465,-2.6063,-2.5734,-2.5464,-2.5194,-2.5127,-2.5059,-2.5059,-2.5059,-2.5059,-2.5059,-2.5059,-2.5059,-2.4916,-2.4645,-2.4299,-2.4095,-2.3891,-2.3823,-2.3823,-2.3823,-2.3823,-2.3823,-2.3823,-2.3754,-2.3686,-2.3686,-2.3543,-2.327,-2.3065,-2.2791,-2.2654,-2.231,-2.2242,-2.2242,-2.1966,-2.1697,-2.1214,-2.059,-2.0034,-1.9616,-1.8988,-1.8643,-1.8439,-1.8439,-1.8439,-1.8433,-1.8433,-1.8433,-1.8433,-1.8433,-1.8433,-1.8573,-1.8573,-1.8573,-1.8573,-1.8854,-1.9063,-1.9337,-1.9541,-1.9756,-1.9825,-1.9756,-1.9616,-1.9477,-1.9407,-1.9611,-1.9611,-1.9401,-1.9686,-1.9976,-2.0185,-2.0318,-2.0533,-2.0735,-2.1352,-2.1829,-2.2173,-2.2722,-2.355]}]]